[[{"header":{"parameterUnit":"m.s-1","parameterCategory":1,"la1":30.6,"la2":29.2853,"lo1":-89.7004,"lo2":-87.6739,"dy":0.0162,"dx":0.0183,"nx":112,"ny":82,"refTime":"2024-07-01T18:00:00:Z","depth":0,"parameterNumber":2,"parameterNumberName":"U-component_of_WINDS"},"data":[0.0,0.0,0.0,0.0,0.0,0.0,0.0,0.0,0.0,0.0,0.0,0.0,0.0,0.0,0.0,0.0,0.0,0.0,0.0,0.0,0.0,0.0,0.0,0.0,0.0,0.0,0.0,0.0,0.0,0.0,0.0,0.0,0.0,0.0,0.0,0.0,0.0,0.0,0.0,0.0,0.0,0.0,0.0,0.0,0.0,0.0,0.0,0.0,0.0,0.0,0.0,0.0,0.0,0.0,0.0,0.0,0.0,0.0,0.0,0.0,0.0,0.0,0.0,0.0,0.0,0.0,0.0,0.0,0.0,0.0,0.0,0.0,0.0,0.0,0.0,0.0,0.0,0.0,0.0,0.0,0.0,0.0,0.0,0.0,0.0,0.0,0.0,0.0,0.0,0.0,-2.4066,-2.5032,-2.5094,-2.5018,-2.4915,-2.47,-2.3859,-2.2185,0.0,0.0,0.0,0.0,0.0,0.0,0.0,0.0,0.0,0.0,0.0,0.0,0.0,0.0,0.0,0.0,0.0,0.0,0.0,0.0,0.0,0.0,0.0,0.0,0.0,0.0,0.0,0.0,0.0,0.0,0.0,0.0,0.0,0.0,0.0,0.0,0.0,0.0,0.0,0.0,0.0,0.0,0.0,0.0,0.0,0.0,0.0,0.0,0.0,0.0,0.0,0.0,0.0,0.0,0.0,0.0,0.0,0.0,0.0,0.0,0.0,0.0,0.0,0.0,0.0,0.0,0.0,0.0,0.0,0.0,0.0,0.0,0.0,0.0,0.0,0.0,0.0,0.0,0.0,0.0,0.0,0.0,0.0,0.0,0.0,0.0,0.0,0.0,0.0,0.0,0.0,0.0,0.0,0.0,0.0,0.0,0.0,0.0,0.0,0.0,0.0,0.0,0.0,0.0,-2.3427,-2.5095,-2.5074,-2.4919,-2.4899,-2.461,-2.4004,-2.2981,0.0,0.0,0.0,0.0,0.0,0.0,0.0,0.0,0.0,0.0,0.0,0.0,0.0,0.0,0.0,0.0,0.0,0.0,0.0,0.0,0.0,0.0,0.0,0.0,0.0,0.0,0.0,0.0,0.0,0.0,0.0,0.0,0.0,0.0,0.0,0.0,0.0,0.0,0.0,0.0,0.0,0.0,0.0,0.0,0.0,0.0,0.0,0.0,0.0,0.0,0.0,0.0,0.0,0.0,0.0,0.0,0.0,0.0,0.0,0.0,0.0,0.0,0.0,0.0,0.0,0.0,0.0,0.0,0.0,0.0,0.0,0.0,0.0,0.0,0.0,0.0,0.0,0.0,0.0,0.0,0.0,0.0,0.0,0.0,0.0,0.0,0.0,0.0,0.0,0.0,0.0,0.0,0.0,0.0,0.0,0.0,0.0,0.0,0.0,0.0,0.0,0.0,0.0,-2.3345,-2.3895,-2.5159,-2.5126,-2.4962,-2.4853,-2.4614,-2.4047,-2.3103,-2.218,0.0,0.0,0.0,0.0,0.0,0.0,0.0,0.0,0.0,0.0,0.0,0.0,0.0,0.0,0.0,0.0,0.0,0.0,0.0,0.0,0.0,0.0,0.0,0.0,0.0,0.0,0.0,0.0,0.0,0.0,0.0,0.0,0.0,0.0,0.0,0.0,0.0,0.0,0.0,0.0,0.0,0.0,0.0,0.0,0.0,0.0,0.0,0.0,0.0,0.0,0.0,0.0,0.0,0.0,0.0,0.0,0.0,0.0,0.0,0.0,0.0,0.0,0.0,0.0,0.0,0.0,0.0,0.0,0.0,0.0,0.0,0.0,0.0,0.0,0.0,0.0,0.0,0.0,0.0,0.0,0.0,0.0,0.0,0.0,0.0,0.0,0.0,0.0,0.0,0.0,0.0,0.0,0.0,0.0,0.0,0.0,0.0,0.0,0.0,0.0,0.0,0.0,-2.4134,-2.462,-2.5231,-2.5149,-2.4978,-2.4804,-2.4406,-2.3748,-2.2782,-2.1914,0.0,0.0,0.0,0.0,0.0,0.0,0.0,0.0,0.0,0.0,0.0,0.0,0.0,0.0,0.0,0.0,0.0,0.0,0.0,0.0,0.0,0.0,0.0,0.0,0.0,0.0,0.0,0.0,0.0,0.0,0.0,0.0,0.0,0.0,0.0,0.0,0.0,0.0,0.0,0.0,0.0,0.0,0.0,0.0,0.0,0.0,0.0,0.0,0.0,0.0,0.0,0.0,0.0,0.0,0.0,0.0,0.0,0.0,0.0,0.0,0.0,0.0,0.0,0.0,0.0,0.0,0.0,0.0,0.0,0.0,0.0,0.0,0.0,0.0,0.0,0.0,0.0,0.0,0.0,0.0,0.0,0.0,0.0,0.0,0.0,0.0,0.0,0.0,0.0,0.0,0.0,0.0,0.0,0.0,0.0,0.0,0.0,0.0,0.0,0.0,0.0,0.0,-2.4255,-2.524,-2.5288,-2.5074,-2.4883,-2.4806,-2.3816,-2.2825,-2.1936,-2.095,0.0,0.0,0.0,0.0,0.0,0.0,0.0,0.0,0.0,0.0,0.0,0.0,0.0,0.0,0.0,0.0,0.0,0.0,0.0,0.0,0.0,0.0,0.0,0.0,0.0,0.0,0.0,0.0,0.0,0.0,0.0,0.0,0.0,0.0,0.0,0.0,0.0,0.0,0.0,0.0,0.0,0.0,0.0,0.0,0.0,0.0,0.0,0.0,0.0,0.0,0.0,0.0,0.0,0.0,0.0,0.0,0.0,0.0,0.0,0.0,0.0,0.0,0.0,0.0,0.0,0.0,0.0,0.0,0.0,0.0,0.0,0.0,0.0,0.0,0.0,0.0,0.0,0.0,0.0,0.0,0.0,0.0,0.0,0.0,0.0,0.0,0.0,0.0,0.0,0.0,0.0,0.0,0.0,0.0,0.0,0.0,0.0,0.0,0.0,0.0,0.0,0.0,-2.3836,-2.4711,-2.5134,-2.4971,-2.478,-2.4631,-2.4102,-2.3437,-2.2601,0.0,0.0,0.0,0.0,0.0,0.0,0.0,0.0,0.0,0.0,0.0,0.0,0.0,0.0,0.0,0.0,0.0,0.0,0.0,0.0,0.0,0.0,0.0,0.0,0.0,0.0,0.0,0.0,0.0,0.0,0.0,0.0,0.0,0.0,0.0,0.0,0.0,0.0,0.0,0.0,0.0,0.0,0.0,0.0,0.0,0.0,0.0,0.0,0.0,0.0,0.0,0.0,0.0,0.0,0.0,0.0,0.0,0.0,0.0,0.0,0.0,0.0,0.0,0.0,0.0,0.0,0.0,0.0,0.0,0.0,0.0,0.0,0.0,0.0,0.0,0.0,0.0,0.0,0.0,0.0,0.0,0.0,0.0,0.0,0.0,0.0,0.0,0.0,0.0,0.0,0.0,0.0,0.0,0.0,0.0,0.0,0.0,0.0,0.0,0.0,0.0,0.0,-2.2638,-2.3722,-2.4584,-2.5054,-2.4884,-2.4669,-2.4504,-2.4079,-2.3483,-2.2666,0.0,0.0,0.0,0.0,0.0,0.0,0.0,0.0,0.0,0.0,0.0,0.0,0.0,0.0,0.0,0.0,0.0,0.0,0.0,0.0,0.0,0.0,0.0,0.0,0.0,0.0,0.0,0.0,0.0,0.0,0.0,0.0,0.0,0.0,0.0,0.0,0.0,0.0,0.0,0.0,0.0,0.0,0.0,0.0,0.0,0.0,0.0,0.0,0.0,0.0,0.0,0.0,0.0,0.0,0.0,0.0,0.0,0.0,0.0,0.0,0.0,0.0,0.0,0.0,0.0,0.0,0.0,0.0,0.0,0.0,0.0,0.0,0.0,0.0,0.0,0.0,0.0,0.0,0.0,0.0,0.0,0.0,0.0,0.0,0.0,0.0,0.0,0.0,0.0,0.0,0.0,0.0,0.0,0.0,0.0,0.0,0.0,0.0,0.0,0.0,0.0,0.0,-2.2592,-2.4054,-2.5099,-2.5099,-2.4797,-2.4564,-2.4505,-2.3596,-2.2664,0.0,0.0,0.0,0.0,0.0,0.0,0.0,0.0,0.0,0.0,0.0,0.0,0.0,0.0,0.0,0.0,0.0,0.0,0.0,0.0,0.0,0.0,0.0,0.0,0.0,0.0,0.0,0.0,0.0,0.0,0.0,0.0,0.0,0.0,0.0,0.0,0.0,0.0,0.0,0.0,0.0,0.0,0.0,0.0,0.0,0.0,0.0,0.0,0.0,0.0,0.0,0.0,0.0,0.0,0.0,0.0,0.0,0.0,0.0,0.0,0.0,0.0,0.0,0.0,0.0,0.0,0.0,0.0,0.0,0.0,0.0,0.0,0.0,0.0,0.0,0.0,0.0,0.0,0.0,0.0,0.0,0.0,0.0,0.0,0.0,0.0,0.0,0.0,0.0,0.0,0.0,0.0,0.0,0.0,0.0,0.0,0.0,0.0,0.0,0.0,0.0,0.0,0.0,-2.2592,-2.4054,-2.5049,-2.4901,-2.4669,-2.4465,-2.4302,-2.4017,-2.3254,-2.1886,0.0,0.0,0.0,0.0,0.0,0.0,0.0,0.0,0.0,0.0,0.0,0.0,0.0,0.0,0.0,0.0,0.0,0.0,0.0,0.0,0.0,0.0,0.0,0.0,0.0,0.0,0.0,0.0,0.0,0.0,0.0,0.0,0.0,0.0,0.0,0.0,0.0,0.0,0.0,0.0,0.0,0.0,0.0,0.0,0.0,0.0,0.0,0.0,0.0,0.0,0.0,0.0,0.0,0.0,0.0,0.0,0.0,0.0,0.0,0.0,0.0,0.0,0.0,0.0,0.0,0.0,0.0,0.0,0.0,0.0,0.0,0.0,0.0,0.0,0.0,0.0,0.0,0.0,0.0,0.0,0.0,0.0,0.0,0.0,0.0,0.0,0.0,0.0,0.0,0.0,0.0,0.0,0.0,0.0,0.0,0.0,0.0,0.0,0.0,0.0,0.0,0.0,-2.245,-2.395,-2.4939,-2.4737,-2.4539,-2.4355,-2.421,-2.42,-2.3501,-2.1895,0.0,0.0,0.0,0.0,0.0,0.0,0.0,0.0,0.0,0.0,0.0,0.0,0.0,0.0,0.0,0.0,0.0,0.0,0.0,0.0,0.0,0.0,0.0,0.0,0.0,0.0,0.0,0.0,0.0,0.0,0.0,0.0,0.0,0.0,0.0,0.0,0.0,0.0,0.0,0.0,0.0,0.0,0.0,0.0,0.0,0.0,0.0,0.0,0.0,0.0,0.0,0.0,0.0,0.0,0.0,0.0,0.0,0.0,0.0,0.0,0.0,0.0,0.0,0.0,0.0,0.0,0.0,0.0,0.0,0.0,0.0,0.0,0.0,0.0,0.0,0.0,0.0,0.0,0.0,0.0,0.0,0.0,0.0,0.0,0.0,0.0,0.0,0.0,0.0,0.0,0.0,0.0,0.0,0.0,0.0,0.0,0.0,0.0,0.0,0.0,0.0,0.0,-2.2217,-2.3756,-2.4802,-2.4614,-2.4409,-2.4266,-2.421,-2.42,-2.3501,-2.1895,0.0,0.0,0.0,0.0,0.0,0.0,0.0,0.0,0.0,0.0,0.0,0.0,0.0,0.0,0.0,0.0,0.0,0.0,0.0,0.0,0.0,0.0,0.0,0.0,0.0,0.0,0.0,0.0,0.0,0.0,0.0,0.0,0.0,0.0,0.0,0.0,0.0,0.0,0.0,0.0,0.0,0.0,0.0,0.0,0.0,0.0,0.0,0.0,0.0,0.0,0.0,0.0,0.0,0.0,0.0,0.0,0.0,0.0,0.0,0.0,-2.0832,-2.0424,0.0,0.0,0.0,0.0,0.0,0.0,0.0,0.0,0.0,0.0,0.0,0.0,0.0,0.0,0.0,0.0,0.0,0.0,0.0,0.0,0.0,0.0,0.0,0.0,0.0,0.0,0.0,0.0,0.0,0.0,0.0,0.0,0.0,0.0,0.0,0.0,0.0,0.0,0.0,0.0,-2.2212,-2.3635,-2.4629,-2.4531,-2.4337,-2.4219,-2.42,-2.4199,-2.3501,-2.1895,-2.0987,0.0,0.0,0.0,0.0,0.0,0.0,0.0,0.0,0.0,0.0,0.0,0.0,0.0,0.0,0.0,0.0,0.0,0.0,0.0,0.0,0.0,0.0,0.0,0.0,0.0,0.0,0.0,0.0,0.0,0.0,0.0,0.0,0.0,0.0,0.0,0.0,0.0,0.0,0.0,0.0,0.0,0.0,0.0,0.0,0.0,0.0,0.0,0.0,0.0,0.0,0.0,0.0,0.0,0.0,0.0,0.0,0.0,0.0,0.0,-2.1962,-2.1425,0.0,0.0,0.0,0.0,0.0,0.0,0.0,0.0,0.0,0.0,0.0,0.0,0.0,0.0,0.0,0.0,0.0,0.0,0.0,0.0,0.0,0.0,0.0,0.0,0.0,0.0,0.0,0.0,0.0,0.0,0.0,0.0,0.0,0.0,0.0,0.0,0.0,0.0,0.0,0.0,-2.2643,-2.3807,-2.4541,-2.4425,-2.4284,-2.4044,-2.3657,-2.3621,-2.2923,-2.1281,-2.0391,0.0,0.0,0.0,0.0,0.0,0.0,0.0,0.0,0.0,0.0,0.0,0.0,0.0,0.0,0.0,0.0,0.0,0.0,0.0,0.0,0.0,0.0,0.0,0.0,0.0,0.0,0.0,0.0,0.0,0.0,0.0,0.0,0.0,0.0,0.0,0.0,0.0,0.0,0.0,0.0,0.0,0.0,0.0,0.0,0.0,0.0,0.0,0.0,0.0,0.0,0.0,0.0,0.0,-2.3032,-2.3049,-2.3502,-2.3502,-2.3865,-2.4423,-2.329,-2.2817,-2.2831,-2.2662,0.0,0.0,0.0,0.0,0.0,0.0,0.0,0.0,0.0,0.0,0.0,0.0,0.0,0.0,0.0,0.0,0.0,0.0,0.0,0.0,0.0,0.0,-2.3546,-2.2991,-2.3906,-2.45,-2.2969,0.0,0.0,0.0,0.0,0.0,0.0,0.0,0.0,0.0,0.0,0.0,-2.3184,-2.4015,-2.4438,-2.4118,-2.4036,-2.3667,-2.2859,-2.2786,-2.2134,-2.0603,-1.9886,-1.9152,0.0,0.0,0.0,0.0,0.0,0.0,0.0,0.0,0.0,0.0,0.0,0.0,0.0,0.0,0.0,0.0,0.0,0.0,0.0,0.0,0.0,0.0,0.0,0.0,0.0,0.0,0.0,0.0,0.0,0.0,0.0,0.0,-1.5852,-1.6707,0.0,0.0,0.0,0.0,0.0,0.0,0.0,0.0,0.0,0.0,0.0,0.0,0.0,-2.3286,-2.3996,-2.4726,-2.5103,-2.509,-2.5704,-2.5682,-2.5103,-2.5103,-2.5156,-2.5279,-2.5788,0.0,-2.4985,-2.4967,0.0,0.0,0.0,0.0,0.0,0.0,0.0,0.0,0.0,0.0,0.0,0.0,0.0,0.0,0.0,0.0,0.0,0.0,0.0,0.0,0.0,0.0,-2.6368,-2.6284,-2.6423,-2.633,-2.5411,-2.4074,-2.2803,-2.1996,-2.1838,-2.1773,0.0,0.0,0.0,0.0,0.0,0.0,-2.3424,-2.4037,-2.4134,-2.3341,-2.3205,-2.283,-2.2032,-2.1959,-2.1538,-2.0566,-2.0401,-1.9979,-1.9178,-1.8372,0.0,0.0,0.0,0.0,0.0,0.0,0.0,0.0,0.0,0.0,0.0,0.0,0.0,0.0,0.0,0.0,0.0,0.0,0.0,0.0,0.0,0.0,0.0,0.0,0.0,0.0,0.0,0.0,0.0,-1.6737,-1.7813,-1.7795,-1.8862,-1.9405,0.0,0.0,0.0,0.0,0.0,0.0,0.0,0.0,0.0,-2.396,-2.4689,-2.523,-2.5586,-2.6323,-2.6692,-2.67,-2.7052,-2.7034,-2.6692,-2.6692,-2.6692,-2.6709,-2.7069,-2.7016,-2.6657,-2.6253,-2.5419,-2.4388,0.0,0.0,0.0,0.0,-2.3909,-2.4015,-2.48,-2.4866,-2.4559,-2.4436,0.0,0.0,0.0,0.0,0.0,0.0,0.0,-2.5156,-2.5946,-2.6074,-2.6039,-2.6191,-2.6563,-2.6674,-2.5875,-2.5838,-2.5448,-2.3739,-2.3405,-2.3247,-2.2757,-2.3081,0.0,0.0,0.0,-2.3959,-2.405,-2.4259,-2.4079,-2.3247,-2.3057,-2.2489,-2.1231,-2.1095,-2.0712,-1.9877,-1.9831,-1.9666,-1.9306,-1.8967,-1.8555,0.0,0.0,0.0,0.0,0.0,0.0,0.0,0.0,0.0,0.0,0.0,0.0,0.0,0.0,0.0,0.0,0.0,0.0,0.0,0.0,0.0,0.0,0.0,0.0,0.0,0.0,0.0,0.0,-1.8282,-1.9427,-1.9097,-2.028,-2.1024,0.0,0.0,0.0,0.0,0.0,0.0,-2.4527,-2.4923,-2.5225,-2.5442,-2.6431,-2.6936,-2.687,-2.7429,-2.7692,-2.7692,-2.7692,-2.7692,-2.7692,-2.7692,-2.7692,-2.7692,-2.7692,-2.7692,-2.7657,-2.7113,-2.6428,-2.5717,-2.5717,-2.5586,-2.5428,-2.5625,-2.5717,-2.5823,-2.6613,-2.6756,-2.652,-2.6121,-2.5867,-2.5484,-2.4335,0.0,0.0,0.0,0.0,-2.6201,-2.6624,-2.6286,-2.5834,-2.5825,-2.6289,-2.6576,-2.6042,-2.6867,-2.7201,-2.5457,-2.5113,-2.4909,-2.426,-2.4677,0.0,-2.3987,-2.4389,-2.4723,-2.4552,-2.4447,-2.3987,-2.2996,-2.2771,-2.2037,-2.0436,-2.0223,-1.9941,-1.9343,-1.9297,-1.9297,-1.9297,-1.9297,-1.9022,-1.8418,0.0,0.0,0.0,0.0,0.0,0.0,0.0,0.0,0.0,0.0,0.0,0.0,0.0,0.0,0.0,0.0,0.0,0.0,0.0,0.0,0.0,0.0,0.0,0.0,0.0,0.0,0.0,0.0,0.0,-2.0777,-2.1668,0.0,0.0,0.0,0.0,-2.4775,-2.4818,-2.5492,-2.7121,-2.7004,-2.7219,-2.7991,-2.7955,-2.7835,-2.764,-2.7675,-2.7692,-2.7692,-2.7692,-2.7692,-2.7692,-2.7692,-2.7692,-2.7692,-2.7692,-2.7692,-2.7692,-2.7657,-2.721,-2.6537,-2.6537,-2.6063,-2.5484,-2.6256,-2.6537,-2.6642,-2.7394,-2.7192,-2.6704,-2.7368,-2.7113,-2.652,-2.6449,-2.5914,0.0,0.0,-2.6911,-2.7002,-2.7281,-2.7317,-2.7111,-2.635,-2.6216,-2.6299,-2.6511,-2.6618,-2.6698,-2.6766,-2.6776,-2.6767,-2.6721,0.0,-2.6535,-2.5782,-2.5596,-2.5309,-2.4678,-2.4436,-2.373,-2.2216,-2.1939,-2.1209,-1.96,-1.9395,-1.9343,-1.9297,-1.9297,-1.9297,-1.9297,-1.9297,-1.9279,-1.9242,-1.8454,0.0,0.0,0.0,0.0,0.0,0.0,0.0,0.0,0.0,0.0,0.0,0.0,0.0,0.0,0.0,0.0,0.0,0.0,0.0,0.0,0.0,0.0,0.0,0.0,0.0,0.0,0.0,0.0,-2.27,-2.3862,0.0,-2.421,-2.446,-2.5172,-2.6453,-2.6522,-2.6998,-2.8111,-2.8009,-2.7991,-2.8192,-2.8067,-2.7902,-2.7692,-2.7692,-2.7692,-2.7692,-2.7692,-2.7692,-2.7692,-2.7692,-2.7692,-2.7692,-2.7692,-2.7692,-2.7692,-2.7692,-2.7543,-2.7306,-2.7306,-2.7131,-2.6911,-2.7201,-2.7306,-2.735,-2.7605,-2.7526,-2.735,-2.7605,-2.7517,-2.7306,-2.7306,-2.7113,-2.6966,-2.7338,-2.7102,-2.68,-2.7078,-2.637,-2.5575,-2.5452,-2.5424,-2.5446,-2.555,-2.6107,-2.6628,-2.6691,-2.7227,-2.7668,-2.7668,-2.8133,-2.7854,-2.5959,-2.607,-2.5894,-2.4586,-2.4339,-2.3896,-2.2815,-2.2634,-2.1917,-2.0316,-2.0104,-1.9849,-1.9334,-1.9297,-1.9297,-1.9297,-1.9297,-1.9297,-1.9297,-1.8509,-1.7704,0.0,0.0,0.0,0.0,0.0,0.0,0.0,0.0,0.0,0.0,0.0,0.0,0.0,0.0,0.0,0.0,0.0,0.0,0.0,0.0,0.0,0.0,0.0,0.0,0.0,-2.3003,-2.433,-2.4254,-2.5199,-2.5846,-2.5812,-2.605,-2.6651,-2.7719,-2.7803,-2.8038,-2.8572,-2.8519,-2.8406,-2.8264,-2.8136,-2.7988,-2.7798,-2.7722,-2.7692,-2.7692,-2.7692,-2.7692,-2.7692,-2.7692,-2.7561,-2.7332,-2.7332,-2.7166,-2.6946,-2.7218,-2.7166,-2.6973,-2.7499,-2.7543,-2.7332,-2.7332,-2.7332,-2.7359,-2.7605,-2.7692,-2.7657,-2.7411,-2.7499,-2.7648,-2.7403,-2.7499,-2.7692,-2.7692,-2.7174,-2.6585,-2.6481,-2.5474,-2.4464,-2.4357,-2.4329,-2.4414,-2.4786,-2.542,-2.6036,-2.6388,-2.7349,-2.8012,-2.7743,-2.8402,-2.8197,-2.5912,-2.6041,-2.5893,-2.4487,-2.4275,-2.398,-2.3213,-2.305,-2.2343,-2.074,-2.0535,-2.0162,-1.9352,-1.9297,-1.9297,-1.9297,-1.9297,-1.9297,-1.9297,-1.8509,-1.797,-1.7713,0.0,0.0,0.0,0.0,0.0,0.0,0.0,0.0,0.0,0.0,0.0,0.0,0.0,0.0,0.0,0.0,0.0,0.0,0.0,0.0,0.0,0.0,0.0,-2.3424,-2.3564,-2.4126,-2.5431,-2.5662,-2.5907,-2.6427,-2.7177,-2.7904,-2.8549,-2.86,-2.86,-2.86,-2.86,-2.8536,-2.8402,-2.8264,-2.8136,-2.8005,-2.7798,-2.7692,-2.7692,-2.7675,-2.7675,-2.7692,-2.7648,-2.7253,-2.6598,-2.6572,-2.6116,-2.5463,-2.6239,-2.609,-2.5551,-2.7069,-2.721,-2.6555,-2.6555,-2.6555,-2.666,-2.7376,-2.7631,-2.7508,-2.6783,-2.7052,-2.749,-2.6774,-2.706,-2.7631,-2.7631,-2.7104,-2.6344,-2.5577,-2.4805,-2.4037,-2.3207,-2.2999,-2.3279,-2.4322,-2.4563,-2.4864,-2.5914,-2.7143,-2.7769,-2.7018,-2.7538,-2.7481,-2.5753,-2.556,0.0,-2.4404,-2.4238,-2.3953,-2.3303,-2.3106,-2.24,-2.0805,-2.059,-2.0199,-1.9389,-1.9306,-1.9297,-1.9297,-1.9325,-1.9334,-1.9341,-1.8581,-1.8561,-1.9303,0.0,0.0,0.0,0.0,0.0,0.0,0.0,0.0,0.0,0.0,0.0,0.0,0.0,0.0,0.0,0.0,0.0,0.0,0.0,0.0,0.0,-2.2857,-2.4123,-2.425,-2.5747,-2.6972,-2.7334,-2.7828,-2.8164,-2.821,-2.8409,-2.8566,-2.8594,-2.86,-2.86,-2.86,-2.86,-2.8536,-2.8402,-2.8264,-2.8136,-2.8005,-2.7798,-2.7692,-2.7683,-2.7157,-2.7183,-2.7657,-2.6542,-2.6244,-2.6563,-2.5976,-2.5603,-2.5428,-2.5647,-2.5603,-2.5507,-2.6516,-2.6428,-2.5735,-2.5735,-2.5735,-2.577,-2.5963,-2.6033,-2.6007,-2.5805,-2.5875,-2.5998,-2.5796,-2.5875,-2.6033,-2.6033,-2.5471,-2.4813,-2.4647,-2.395,-2.3244,-2.3047,-2.2961,-2.3009,-2.3303,-2.356,-2.3823,-2.411,-2.5072,-2.6027,-2.6596,-2.6946,-2.6802,-2.5726,-2.555,-2.5207,-2.434,-2.4248,-2.4183,-2.3953,-2.3888,-2.3456,-2.2427,-2.1794,-2.1079,-2.0217,-1.962,-1.9297,-1.9297,-1.9858,-2.0218,-2.0305,-2.0148,-1.9927,0.0,0.0,0.0,0.0,0.0,0.0,0.0,0.0,0.0,0.0,0.0,0.0,0.0,0.0,0.0,0.0,0.0,0.0,0.0,0.0,0.0,0.0,-2.3766,-2.4847,-2.4918,-2.6163,-2.7147,-2.7369,-2.7736,-2.8047,-2.8251,-2.8585,-2.8588,-2.8132,-2.841,-2.8455,-2.812,-2.8419,-2.8562,-2.8493,-2.8353,-2.8219,-2.809,-2.7581,-2.7285,-2.7236,-2.6463,-2.6323,-2.6709,-2.5814,-2.5489,-2.5603,-2.5138,-2.4752,-2.4458,-2.4796,-2.4743,-2.4559,0.0,0.0,0.0,0.0,-2.4936,-2.4971,-2.5296,-2.5401,-2.5349,-2.5033,-2.5147,-2.5335,-2.5006,-2.5107,-2.5347,-2.532,-2.475,-2.416,-2.42,-2.3558,-2.2898,-2.291,-2.2893,-2.2859,-2.2859,-2.3015,-2.3154,-2.319,-2.3776,0.0,-2.5219,-2.5823,-2.5946,-2.5171,-2.507,-2.4894,-2.4349,-2.4321,-2.433,-2.4284,-2.4257,-2.3916,-2.3106,-2.2305,0.0,0.0,0.0,-1.9562,-1.9948,-2.0737,0.0,0.0,0.0,0.0,0.0,-2.1474,0.0,0.0,-2.2138,-2.2142,0.0,0.0,0.0,0.0,0.0,0.0,0.0,0.0,0.0,0.0,0.0,0.0,0.0,0.0,0.0,0.0,-2.4401,-2.5393,-2.5393,-2.5503,-2.578,-2.6339,-2.6401,-2.6627,-2.7221,-2.7903,-2.8029,-2.7324,-2.793,-2.8057,-2.7423,-2.7993,0.0,0.0,0.0,-2.8205,-2.8076,-2.72,-2.6659,-2.6449,-2.5629,-2.5287,-2.5393,-2.5226,-2.4822,-2.4282,-2.4194,-2.3764,-2.316,-2.3878,-2.3734,-2.3239,-2.4607,-2.4734,-2.4159,-2.4159,-2.4159,-2.4256,-2.491,0.0,0.0,-2.4379,-2.4603,-2.5011,-2.4283,-2.4532,-2.5039,-2.4962,-2.4464,-2.3955,-2.3955,-2.3411,-2.2859,-2.2816,-2.2795,-2.279,-2.279,-2.2795,-2.2829,-2.2881,-2.3081,-2.3327,-2.3553,-2.4499,-2.5017,-2.4386,-2.4393,-2.4447,-2.4394,-2.4376,-2.4394,-2.4376,-2.4312,0.0,-2.3287,-2.2401,-2.1579,-2.0868,-2.0004,-1.9971,-2.0989,-2.1742,-2.2193,-2.2319,-2.2404,-2.2779,-2.342,-2.3684,-2.4175,-2.4797,-2.2642,-2.2555,0.0,0.0,0.0,0.0,0.0,0.0,0.0,0.0,0.0,0.0,0.0,0.0,0.0,0.0,0.0,-2.3841,-2.4768,-2.5393,-2.5393,-2.5423,-2.5707,-2.6399,-2.639,-2.6366,-2.6509,-2.6607,-2.6599,-2.6437,-2.6572,-2.6871,-2.7369,-2.6925,-2.726,-2.8563,-2.7837,-2.7367,-2.7232,-2.6779,-2.6248,-2.5616,-2.4653,0.0,-2.5366,-2.4107,-2.3821,-2.4269,-2.3611,-2.3239,-2.3116,-2.3265,-2.3239,-2.3133,-2.3432,-2.3458,-2.3326,-2.3326,-2.3326,-2.3344,-2.3502,-2.3537,-2.3519,-2.337,-2.3423,-2.3507,-2.3295,-2.3369,0.0,-2.338,-2.3237,-2.3137,-2.3137,-2.2942,-2.2751,-2.279,-2.2764,-2.2725,-2.2725,-2.2764,-2.2795,-2.2816,-2.2902,-2.3096,-2.3455,-2.3892,-2.4219,-2.4294,-2.4275,-2.4257,-2.4238,-2.4294,-2.4294,-2.4237,-2.4229,-2.4155,-2.3998,-2.2647,-2.1754,-2.1603,-2.0318,-2.0273,-2.18,-2.2121,-2.2325,-2.2461,-2.3106,-2.3265,-2.2944,-2.3634,-2.4387,-2.5188,-2.4608,-2.4549,0.0,0.0,0.0,0.0,0.0,0.0,0.0,0.0,0.0,0.0,0.0,-2.1749,-2.1749,0.0,-2.3731,-2.4125,-2.4539,-2.4805,-2.4805,-2.4805,-2.4923,-2.5256,-2.5564,-2.5745,-2.5693,-2.6003,-2.6032,-2.5633,-2.5966,-2.6204,-2.6204,-2.6069,-2.6369,-2.7169,-2.6615,-2.6303,-2.6299,-2.5694,-2.5257,-2.4944,-2.3955,-2.3763,-2.4221,-2.3449,-2.3318,-2.3672,-2.3265,-2.3098,-2.3098,-2.3098,-2.3098,-2.3098,-2.3098,-2.3098,-2.3098,-2.3098,-2.3098,-2.3098,-2.3098,-2.3098,-2.3098,-2.3098,-2.3098,-2.3095,-2.3024,-2.3024,-2.3024,-2.2885,-2.2846,-2.2833,-2.2816,-2.2751,-2.2712,-2.2738,-2.2716,-2.2699,-2.2699,-2.2725,-2.2751,-2.2751,-2.2893,-2.3105,-2.3398,-2.3662,-2.3938,-2.421,-2.4248,-2.4248,-2.4248,-2.4275,-2.4303,-2.4303,-2.4303,-2.4303,-2.4349,-2.2835,-2.1741,-2.1373,-2.0658,-2.0686,-2.1664,-2.2148,-2.2485,-2.2649,-2.3037,-2.3077,-2.2753,-2.3194,-2.3832,-2.4649,-2.451,-2.4713,0.0,0.0,0.0,0.0,0.0,0.0,0.0,-1.9008,-1.9767,-2.0575,-2.1951,-2.2997,-2.2997,-2.3667,-2.4199,-2.4199,-2.4199,-2.4199,-2.4199,-2.4199,-2.418,-2.4122,-2.4629,-2.4961,-2.489,-2.5406,-2.5482,-2.4818,-2.5371,-2.5493,-2.4942,-2.5201,-2.5474,-2.5709,-2.5375,-2.5235,-2.5314,-2.4559,-2.4173,-2.4117,-2.3321,-2.2986,-2.3036,-2.3036,-2.3061,-2.3098,-2.3098,-2.3098,-2.3098,-2.3098,-2.3098,-2.3098,-2.3098,-2.3098,-2.3098,-2.3098,-2.3098,-2.3098,-2.3098,-2.3098,-2.3098,-2.3098,-2.3098,-2.3095,-2.3024,-2.3011,-2.2986,-2.2855,-2.2829,-2.2803,-2.2742,-2.2725,-2.2699,-2.2712,-2.2712,-2.2699,-2.2712,-2.2725,-2.2738,-2.2808,-2.299,-2.3218,-2.3466,-2.3692,-2.3919,-2.4154,-2.4247,-2.4294,-2.4303,-2.4294,-2.4303,-2.4376,-2.4376,-2.4338,-2.4241,-2.3031,-2.1876,-2.0958,-2.0959,-2.1091,-2.1304,-2.212,-2.2631,-2.2795,-2.2972,-2.303,-2.2969,-2.2866,-2.3298,-2.4245,-2.3983,-2.4382,-1.8139,-1.8085,-1.8068,-1.8281,-1.8431,-1.8789,0.0,-2.0209,-2.0612,-2.1482,-2.2373,-2.2997,-2.2997,-2.3667,-2.4199,-2.4199,-2.4199,-2.4199,-2.4199,-2.4199,-2.4199,-2.4189,-2.4215,-2.4201,-2.4133,-2.4135,-2.4103,-2.3951,-2.4013,-2.4234,-2.4622,-2.4078,-2.4284,-2.5407,-2.4778,-2.437,-2.4274,-2.393,-2.3445,-2.2814,-2.2532,-2.2557,-2.2833,-2.2833,-2.2923,-2.3098,-2.3098,-2.3098,-2.3098,-2.3098,-2.3098,-2.3098,-2.3098,-2.3098,-2.3098,-2.3098,-2.3098,-2.3098,-2.3098,-2.3098,-2.3098,-2.3098,-2.3098,-2.3095,-2.3024,-2.3036,-2.3061,-2.2932,-2.2885,-2.2893,-2.2872,-2.279,-2.2712,-2.2769,-2.2742,-2.2712,-2.2777,-2.279,-2.2885,-2.3182,-2.3253,-2.342,-2.3855,-2.3957,-2.4027,-2.4182,-2.4209,-2.4228,-2.4294,-2.4248,-2.4238,-2.4303,-2.4312,-2.4025,-2.3322,-2.3255,-2.2577,-2.1002,-2.1174,-2.1358,-2.1392,-2.2278,-2.278,-2.2802,-2.3557,-2.3952,-2.3937,-2.3168,-2.361,-2.5139,-2.4409,-2.4505,-1.8183,-1.8304,-1.8387,-1.8744,-1.8851,-1.9155,-2.0277,-2.0577,-2.084,-2.1634,-2.2436,-2.3005,-2.3005,-2.3667,-2.42,-2.42,-2.42,-2.42,-2.4199,-2.4199,-2.4199,-2.4199,-2.418,-2.4122,-2.4006,-2.3946,-2.3867,-2.3806,-2.3687,-2.3721,-2.395,-2.337,-2.3282,-2.3807,-2.3386,-2.3182,-2.3289,-2.3106,-2.2924,-2.2769,-2.2773,-2.2838,-2.2982,-2.3057,-2.3086,-2.3098,-2.3098,-2.3098,-2.3098,-2.3098,-2.3098,-2.3098,-2.3098,-2.3098,-2.3098,-2.3098,-2.3098,-2.3098,-2.3098,-2.3098,-2.3098,-2.3098,-2.3098,-2.3086,-2.307,-2.3074,-2.3074,-2.2986,-2.2923,-2.2885,-2.2846,-2.2777,-2.2712,-2.2782,-2.2777,-2.2777,-2.2846,-2.2859,-2.2948,-2.3242,-2.3399,-2.3582,-2.3936,-2.4095,-2.421,-2.4303,-2.4284,-2.4266,-2.4294,-2.4284,-2.4284,-2.4348,-2.4384,-2.4306,-2.4053,-2.3682,-2.3208,-2.2618,-2.2212,-2.1794,-2.1358,-2.2171,-2.2411,-2.1943,-2.2858,-2.3318,-2.3275,-2.2957,-2.3404,-2.4543,-2.4245,-2.4529,-1.822,-1.8368,-1.8477,-1.8852,-1.8896,-1.91,-2.0066,-2.0294,-2.0453,-2.1041,-2.1981,-2.27,-2.2699,-2.3538,-2.4229,-2.4229,-2.421,-2.4201,-2.42,-2.4199,-2.4199,-2.4199,-2.4199,-2.4152,-2.4045,-2.3976,-2.3896,-2.3827,-2.362,-2.3472,-2.3394,-2.2944,-2.2667,-2.2587,-2.2399,-2.2391,-2.2587,-2.2492,-2.2533,-2.2712,-2.2876,-2.2977,-2.3024,-2.3253,-2.3301,-2.3217,-2.3217,-2.3193,-2.3156,-2.3156,-2.3135,-2.3098,-2.3098,-2.3098,-2.3098,-2.3098,-2.3098,-2.3098,-2.3098,-2.3098,-2.3098,-2.3098,-2.3098,-2.3098,-2.3098,-2.3095,-2.3061,-2.3011,-2.2936,-2.2868,-2.2842,-2.2756,-2.2712,-2.2782,-2.279,-2.279,-2.2859,-2.2923,-2.3065,-2.333,-2.356,-2.3806,-2.4056,-2.4229,-2.4348,-2.4421,-2.4394,-2.4358,-2.4358,-2.4358,-2.4375,-2.4411,-2.4474,-2.4541,-2.4638,-2.414,-2.3783,-2.3695,-2.3117,-2.2444,-2.1686,-2.248,-2.2667,-2.2081,-2.3007,-2.3472,-2.3424,-2.3241,-2.3567,-2.4346,-2.4178,-2.4529,-1.8525,-1.8541,-1.8626,-1.8769,-1.8761,-1.8807,-1.9157,-1.9251,-1.9312,-1.9518,-2.0829,-2.1929,-2.1929,-2.3232,-2.4303,-2.4303,-2.4238,-2.4201,-2.4201,-2.42,-2.4199,-2.4199,-2.4199,-2.417,-2.4103,-2.4035,-2.3967,-2.3907,-2.3653,-2.3392,-2.3124,-2.285,-2.2574,-2.2324,-2.231,-2.231,-2.231,-2.231,-2.2282,-2.222,-2.2489,-2.2686,-2.282,-2.3289,-2.3494,-2.3494,-2.3494,-2.3407,-2.3289,-2.3289,-2.3217,-2.3098,-2.3098,-2.3098,-2.3098,-2.3098,-2.3098,-2.3098,-2.3098,-2.3098,-2.3098,-2.3098,-2.3098,-2.3098,-2.3098,-2.3049,-2.2999,-2.2999,-2.2898,-2.2829,-2.2872,-2.2803,-2.2712,-2.2782,-2.2751,-2.2725,-2.279,-2.3008,-2.3262,-2.354,-2.3815,-2.4075,-2.434,-2.4385,-2.4421,-2.4491,-2.45,-2.4482,-2.4482,-2.4482,-2.4482,-2.45,-2.45,-2.45,-2.4508,-2.4594,-2.4307,-2.3469,-2.3635,-2.3396,-2.2589,-2.3525,-2.4033,-2.4019,-2.4808,-2.5216,-2.5216,-2.4442,-2.4471,-2.524,-2.4461,-2.4529,-1.8705,-1.8723,-1.8778,-1.8949,-1.8975,-1.9009,-1.9158,-1.92,-1.9193,-1.9169,-2.0545,-2.1765,-2.1765,-2.3187,-2.4367,-2.4367,-2.4348,-2.4321,-2.4275,-2.4229,-2.4201,-2.4201,-2.42,-2.4199,-2.417,-2.4113,-2.4016,-2.3907,-2.3486,-2.3206,-2.3091,-2.2677,-2.2391,-2.231,-2.2296,-2.2296,-2.2296,-2.2296,-2.2282,-2.2268,-2.2725,-2.3096,-2.34,-2.3473,-2.345,-2.336,-2.3268,-2.3217,-2.3168,-2.3168,-2.3135,-2.3098,-2.3098,-2.3098,-2.3098,-2.3098,-2.3098,-2.3098,-2.3098,-2.3098,-2.3098,-2.3098,-2.3098,-2.3098,-2.3098,-2.3086,-2.307,-2.307,-2.2974,-2.2872,-2.2898,-2.2803,-2.2712,-2.2782,-2.2782,-2.2833,-2.3074,-2.3196,-2.3398,-2.3783,-2.3946,-2.4066,-2.4303,-2.4367,-2.4421,-2.4491,-2.45,-2.45,-2.45,-2.45,-2.45,-2.45,-2.45,-2.4533,-2.4622,-2.4757,-2.4754,-2.4544,-2.4608,-2.4297,-2.3496,-2.4302,-2.4506,-2.3985,-2.4841,-2.5298,-2.5298,-2.5029,-2.5038,-2.5288,-2.5019,-2.5038,-1.8824,-1.8824,-1.8861,-1.8967,-1.8993,-1.9019,-1.9145,-1.9177,-1.9193,-1.9151,-2.0341,-2.1384,-2.1384,-2.2565,-2.3633,-2.392,-2.3967,-2.4061,-2.4302,-2.4275,-2.4229,-2.4201,-2.42,-2.42,-2.4199,-2.4161,-2.4094,-2.3986,-2.3522,-2.3242,-2.3242,-2.2738,-2.2446,-2.2446,-2.2344,-2.2296,-2.2296,-2.2296,-2.2399,-2.2597,-2.3035,-2.3417,-2.3736,-2.3623,-2.3522,-2.3441,-2.3301,-2.3217,-2.3172,-2.3172,-2.3135,-2.3098,-2.3098,-2.3098,-2.3098,-2.3098,-2.3098,-2.3098,-2.3098,-2.3098,-2.3098,-2.3098,-2.3098,-2.3098,-2.3098,-2.3086,-2.3061,-2.3061,-2.2986,-2.2898,-2.2898,-2.2842,-2.2777,-2.2829,-2.2902,-2.304,-2.3247,-2.3435,-2.3649,-2.3936,-2.4056,-2.4162,-2.4312,-2.4394,-2.4447,-2.4491,-2.45,-2.45,-2.45,-2.45,-2.45,-2.45,-2.45,-2.4549,-2.4692,-2.4779,-2.4888,-2.5022,-2.5066,-2.4866,-2.4348,-2.4867,-2.4927,-2.4411,-2.4995,-2.5298,-2.5298,-2.5298,-2.5298,-2.5298,-2.5298,-2.5298,-1.887,-1.8861,-1.8887,-1.8825,-1.8824,-1.8861,-1.9045,-1.9136,-1.9232,-1.935,-2.0128,-2.079,-2.079,-2.1486,-2.2321,-2.3082,-2.3234,-2.3523,-2.4301,-2.4348,-2.4275,-2.421,-2.4201,-2.4201,-2.4199,-2.4199,-2.417,-2.4113,-2.3724,-2.3502,-2.3502,-2.2993,-2.2699,-2.2699,-2.2432,-2.2296,-2.2296,-2.2302,-2.2583,-2.3116,-2.3371,-2.3609,-2.3795,-2.3725,-2.37,-2.3689,-2.3564,-2.3427,-2.3301,-2.3301,-2.3217,-2.3098,-2.3098,-2.3098,-2.3098,-2.3098,-2.3098,-2.3098,-2.3098,-2.3098,-2.3098,-2.3098,-2.3098,-2.3098,-2.3098,-2.3057,-2.3008,-2.3008,-2.2957,-2.2906,-2.2906,-2.2898,-2.2898,-2.2923,-2.3118,-2.3313,-2.3336,-2.3696,-2.4006,-2.4016,-2.4172,-2.4321,-2.4394,-2.4456,-2.45,-2.45,-2.45,-2.45,-2.45,-2.45,-2.45,-2.45,-2.4508,-2.4557,-2.4692,-2.4706,-2.477,-2.4899,-2.504,-2.5111,-2.5111,-2.5228,-2.5298,-2.5298,-2.5298,-2.5298,-2.5298,-2.5298,-2.5298,-2.5298,-2.5298,-2.5298,-1.9074,-1.9041,-1.9041,-1.9027,-1.9019,-1.901,-1.8957,-1.9042,-1.9116,-1.911,-1.9933,-2.0651,-2.0651,-2.1923,-2.3038,-2.3242,-2.3775,-2.4241,-2.4446,-2.4421,-2.4348,-2.4275,-2.4229,-2.4201,-2.4199,-2.4199,-2.419,-2.418,-2.3806,-2.3555,-2.3502,-2.2993,-2.2699,-2.2699,-2.2432,-2.2296,-2.2296,-2.2501,-2.2876,-2.3403,-2.347,-2.3609,-2.3795,-2.3725,-2.37,-2.3689,-2.3564,-2.3427,-2.3301,-2.3301,-2.3217,-2.3098,-2.3098,-2.3098,-2.3098,-2.3098,-2.3098,-2.3098,-2.3098,-2.3098,-2.3098,-2.3098,-2.3098,-2.3098,-2.3098,-2.3086,-2.3074,-2.3074,-2.3033,-2.2974,-2.2974,-2.2944,-2.2948,-2.3154,-2.3253,-2.3406,-2.375,-2.3916,-2.4046,-2.4191,-2.4257,-2.4321,-2.4394,-2.4403,-2.4447,-2.4491,-2.45,-2.45,-2.45,-2.45,-2.45,-2.45,-2.459,-2.466,-2.47,-2.4881,-2.5015,-2.5052,-2.5171,-2.5248,-2.5248,-2.5283,-2.5298,-2.5298,-2.5298,-2.5298,-2.5298,-2.5298,-2.5298,-2.5298,-2.5298,-2.5298,-1.9248,-1.9185,-1.9171,-1.9111,-1.9104,-1.9095,-1.9076,-1.9167,-1.9239,-1.9257,-1.9776,-2.0214,-2.0214,-2.13,-2.2328,-2.271,-2.342,-2.4063,-2.4453,-2.4465,-2.4421,-2.4348,-2.4312,-2.4257,-2.4209,-2.42,-2.42,-2.4199,-2.3936,-2.3755,-2.3714,-2.3292,-2.3042,-2.3056,-2.2786,-2.2655,-2.2655,-2.2918,-2.3202,-2.3504,-2.3587,-2.3687,-2.3795,-2.3725,-2.37,-2.3689,-2.3564,-2.3459,-2.3383,-2.3324,-2.3253,-2.318,-2.3123,-2.3098,-2.3098,-2.3098,-2.3098,-2.3098,-2.3098,-2.3098,-2.3098,-2.3098,-2.3098,-2.3098,-2.3098,-2.3098,-2.3098,-2.3098,-2.3074,-2.3074,-2.3187,-2.319,-2.3218,-2.3457,-2.3582,-2.3714,-2.3989,-2.4143,-2.4257,-2.4367,-2.4384,-2.4393,-2.4438,-2.4438,-2.4456,-2.4491,-2.45,-2.45,-2.45,-2.45,-2.4516,-2.4582,-2.4662,-2.4751,-2.4877,-2.5006,-2.5132,-2.5182,-2.5259,-2.5298,-2.5298,-2.5298,-2.5298,-2.5298,-2.5298,-2.5298,-2.5298,-2.5298,-2.5298,-2.5298,-2.5298,-2.5298,-1.9403,-1.9346,-1.9311,-1.9176,-1.9145,-1.917,-1.929,-1.9375,-1.9457,-1.9576,-1.9656,-1.9715,-1.9715,-2.032,-2.1112,-2.1969,-2.2732,-2.3507,-2.4387,-2.45,-2.4474,-2.4412,-2.4403,-2.4348,-2.4229,-2.421,-2.4201,-2.4199,-2.4075,-2.4006,-2.4006,-2.3701,-2.3486,-2.3452,-2.3215,-2.312,-2.3149,-2.3383,-2.3506,-2.354,-2.3719,-2.3806,-2.3795,-2.3747,-2.3712,-2.3711,-2.3589,-2.3522,-2.3519,-2.3395,-2.3336,-2.3289,-2.3172,-2.3119,-2.3098,-2.3098,-2.3098,-2.3098,-2.3098,-2.3098,-2.3098,-2.3098,-2.3098,-2.3098,-2.3098,-2.3098,-2.3098,-2.3098,-2.3098,-2.316,-2.3435,-2.3504,-2.3562,-2.3785,-2.397,-2.4107,-2.4145,-2.4339,-2.45,-2.45,-2.45,-2.45,-2.45,-2.45,-2.45,-2.45,-2.4517,-2.4534,-2.4534,-2.4534,-2.4566,-2.4692,-2.4736,-2.4856,-2.5082,-2.5126,-2.518,-2.5293,-2.5298,-2.5298,-2.5298,-2.5308,-2.5308,-2.5308,-2.5308,-2.5308,-2.5308,-2.5308,-2.5308,-2.5308,-2.5322,-2.5327,-1.9607,-1.9548,-1.952,-1.9372,-1.9352,-1.935,-1.9381,-1.9478,-1.9564,-1.9603,-1.9699,-1.9779,-1.9779,-2.0428,-2.1225,-2.205,-2.2795,-2.3567,-2.4384,-2.4498,-2.4474,-2.4412,-2.4403,-2.4367,-2.4284,-2.4238,-2.4201,-2.4201,-2.4133,-2.4084,-2.4084,-2.3765,-2.3466,-2.3183,-2.3117,-2.3212,-2.3426,-2.3481,-2.3576,-2.3742,-2.3785,-2.3806,-2.3795,-2.3794,-2.3783,-2.3783,-2.3762,-2.3716,-2.3656,-2.3645,-2.3499,-2.3301,-2.3268,-2.3205,-2.3098,-2.3098,-2.3098,-2.3098,-2.3098,-2.3098,-2.3098,-2.3098,-2.3098,-2.3098,-2.3098,-2.3098,-2.3098,-2.3098,-2.3098,-2.316,-2.3435,-2.3504,-2.3598,-2.396,-2.4069,-2.4154,-2.4384,-2.4464,-2.45,-2.45,-2.45,-2.45,-2.45,-2.45,-2.45,-2.45,-2.4589,-2.467,-2.467,-2.467,-2.4676,-2.47,-2.4902,-2.5052,-2.5099,-2.5202,-2.5278,-2.5293,-2.5298,-2.5298,-2.5298,-2.5348,-2.5377,-2.5377,-2.5377,-2.5377,-2.5377,-2.5377,-2.5377,-2.5381,-2.5439,-2.5467,-1.9802,-1.9763,-1.9717,-1.9554,-1.9476,-1.9469,-1.9534,-1.9582,-1.9621,-1.969,-1.976,-1.9801,-1.9801,-2.0467,-2.1142,-2.1558,-2.2628,-2.3561,-2.4012,-2.4379,-2.4589,-2.4556,-2.449,-2.443,-2.4367,-2.4321,-2.4284,-2.421,-2.4172,-2.4143,-2.4103,-2.3917,-2.3724,-2.3577,-2.3524,-2.3553,-2.3664,-2.3664,-2.37,-2.3806,-2.3806,-2.3806,-2.3806,-2.3806,-2.3806,-2.3806,-2.3806,-2.3783,-2.3748,-2.3712,-2.3614,-2.3499,-2.343,-2.3313,-2.3196,-2.3196,-2.316,-2.3098,-2.3098,-2.3098,-2.3098,-2.3098,-2.3098,-2.3098,-2.3098,-2.3098,-2.3135,-2.3271,-2.3307,-2.3392,-2.3721,-2.3816,-2.3899,-2.4229,-2.4303,-2.4339,-2.4473,-2.45,-2.45,-2.45,-2.45,-2.45,-2.45,-2.45,-2.4516,-2.4589,-2.4653,-2.4729,-2.4801,-2.4861,-2.4915,-2.4915,-2.5018,-2.5132,-2.5202,-2.5259,-2.5298,-2.5298,-2.5298,-2.5298,-2.5298,-2.5361,-2.5401,-2.5401,-2.5432,-2.5453,-2.5453,-2.5453,-2.5453,-2.5453,-2.5486,-2.5501,-1.9959,-1.9922,-1.9879,-1.9732,-1.9647,-1.9634,-1.9717,-1.9704,-1.9687,-1.9779,-1.9801,-1.9801,-1.9801,-2.0333,-2.0897,-2.1314,-2.2445,-2.345,-2.391,-2.4419,-2.4734,-2.4698,-2.4615,-2.4507,-2.443,-2.4412,-2.4348,-2.4229,-2.421,-2.4181,-2.4113,-2.4065,-2.4035,-2.4016,-2.3967,-2.3907,-2.3816,-2.3816,-2.3816,-2.3806,-2.3806,-2.3806,-2.3806,-2.3806,-2.3806,-2.3806,-2.3806,-2.3806,-2.3804,-2.3738,-2.3712,-2.3689,-2.3578,-2.3462,-2.3336,-2.3313,-2.3232,-2.3147,-2.3184,-2.3184,-2.3187,-2.3247,-2.3214,-2.3184,-2.3184,-2.3211,-2.3298,-2.3497,-2.3553,-2.3653,-2.401,-2.4098,-2.4173,-2.4447,-2.45,-2.45,-2.45,-2.45,-2.45,-2.45,-2.45,-2.45,-2.45,-2.4516,-2.4582,-2.4684,-2.4742,-2.4818,-2.4926,-2.5058,-2.5139,-2.5139,-2.5139,-2.5191,-2.5288,-2.5298,-2.5298,-2.5298,-2.5308,-2.5322,-2.5322,-2.5401,-2.5443,-2.5443,-2.5488,-2.5521,-2.5521,-2.5521,-2.5521,-2.5521,-2.5544,-2.5539,-2.0031,-1.9996,-1.999,-1.9963,-1.996,-1.994,-1.989,-1.9882,-1.9865,-1.9813,-1.9801,-1.9801,-1.9801,-1.991,-2.0501,-2.2027,-2.2462,-2.3134,-2.4661,-2.4879,-2.4839,-2.4704,-2.4692,-2.463,-2.4499,-2.4438,-2.4367,-2.4303,-2.4228,-2.4208,-2.419,-2.418,-2.4152,-2.4094,-2.4075,-2.4016,-2.3887,-2.3896,-2.3856,-2.3806,-2.3806,-2.3806,-2.3806,-2.3806,-2.3806,-2.3806,-2.3806,-2.3806,-2.3795,-2.3785,-2.375,-2.37,-2.3689,-2.3598,-2.3471,-2.3336,-2.3289,-2.3301,-2.3424,-2.3461,-2.3495,-2.3676,-2.3611,-2.3461,-2.3461,-2.3589,-2.3742,-2.3764,-2.3774,-2.3818,-2.4039,-2.4098,-2.4173,-2.4447,-2.45,-2.45,-2.45,-2.45,-2.45,-2.45,-2.45,-2.45,-2.45,-2.4597,-2.4684,-2.47,-2.4915,-2.507,-2.5082,-2.5202,-2.5283,-2.5283,-2.5283,-2.5288,-2.5293,-2.5298,-2.5298,-2.5298,-2.5362,-2.5389,-2.5389,-2.5515,-2.5579,-2.5579,-2.5593,-2.5595,-2.5595,-2.5595,-2.5595,-2.5586,-2.565,-2.5681,-2.0146,-2.0124,-2.0106,-2.0069,-2.0032,-2.0004,-2.0023,-1.9962,-1.9924,-1.9967,-1.9982,-1.9982,-1.9982,-2.0,-2.0417,-2.1661,-2.2288,-2.306,-2.4337,-2.5295,-2.5633,-2.5006,-2.5335,-2.5337,-2.4675,-2.4597,-2.4497,-2.4303,-2.4238,-2.42,-2.4199,-2.4199,-2.417,-2.4094,-2.4094,-2.4055,-2.3957,-2.3957,-2.3936,-2.3856,-2.3856,-2.3846,-2.3806,-2.3806,-2.3806,-2.3806,-2.3806,-2.3806,-2.3806,-2.3806,-2.3774,-2.3771,-2.3884,-2.3861,-2.3738,-2.3764,-2.373,-2.3664,-2.3718,-2.3709,-2.3689,-2.3774,-2.3827,-2.3837,-2.3719,-2.3741,-2.3827,-2.3949,-2.398,-2.4039,-2.4275,-2.4339,-2.4375,-2.4473,-2.45,-2.45,-2.45,-2.45,-2.45,-2.45,-2.45,-2.4534,-2.4615,-2.466,-2.4749,-2.4922,-2.5034,-2.5128,-2.5207,-2.5273,-2.5298,-2.5298,-2.5298,-2.5298,-2.5298,-2.5298,-2.5298,-2.5298,-2.5361,-2.5401,-2.5401,-2.5529,-2.5601,-2.5601,-2.5642,-2.5664,-2.5658,-2.5658,-2.5661,-2.5656,-2.5694,-2.5696,-2.0556,-2.0435,-2.0285,-2.0485,-2.0308,-2.0098,-2.0116,-2.006,-2.0016,-2.0079,-2.0103,-2.0103,-2.0103,-2.0116,-2.0429,-2.1354,-2.2212,-2.31,-2.4065,-2.5562,-2.629,-2.5577,-2.5939,-2.5936,-2.5123,-2.4793,-2.4522,-2.4321,-2.4238,-2.4201,-2.4208,-2.4199,-2.418,-2.4132,-2.4132,-2.4094,-2.4035,-2.4035,-2.3996,-2.3936,-2.3907,-2.3886,-2.3836,-2.3806,-2.3806,-2.3806,-2.3806,-2.3806,-2.3806,-2.3867,-2.3896,-2.3907,-2.4094,-2.4095,-2.4027,-2.4078,-2.4039,-2.3958,-2.3979,-2.3958,-2.3929,-2.3989,-2.4106,-2.4192,-2.4048,-2.4008,-2.4038,-2.4173,-2.422,-2.4257,-2.4456,-2.45,-2.45,-2.45,-2.45,-2.45,-2.45,-2.45,-2.45,-2.45,-2.4533,-2.459,-2.4684,-2.4764,-2.4881,-2.5076,-2.5128,-2.5187,-2.5288,-2.5298,-2.5308,-2.5327,-2.5331,-2.5322,-2.5298,-2.5327,-2.5331,-2.5331,-2.5416,-2.546,-2.546,-2.5573,-2.5631,-2.5631,-2.5683,-2.5703,-2.5696,-2.5696,-2.5698,-2.57,-2.57,-2.57,-2.1374,-2.096,-2.051,-2.1369,-2.0942,-2.0283,-2.0209,-2.02,-2.0176,-2.0112,-2.0103,-2.0103,-2.0103,-2.015,-2.0481,-2.1362,-2.2286,-2.3202,-2.4082,-2.5643,-2.6622,-2.6408,-2.6385,-2.6266,-2.5924,-2.4988,-2.4376,-2.4303,-2.4238,-2.4201,-2.4208,-2.4199,-2.4199,-2.4199,-2.4199,-2.417,-2.4094,-2.4094,-2.4074,-2.3996,-2.3927,-2.3896,-2.3896,-2.3827,-2.3806,-2.3806,-2.3806,-2.3806,-2.3825,-2.4016,-2.4103,-2.4113,-2.4247,-2.4303,-2.4275,-2.4154,-2.4098,-2.4116,-2.4173,-2.4201,-2.4238,-2.4438,-2.4482,-2.45,-2.4491,-2.4491,-2.4491,-2.45,-2.45,-2.45,-2.45,-2.45,-2.45,-2.45,-2.45,-2.45,-2.45,-2.45,-2.45,-2.45,-2.4615,-2.47,-2.47,-2.4919,-2.5099,-2.5099,-2.5213,-2.5293,-2.5298,-2.5298,-2.5327,-2.5389,-2.5401,-2.5374,-2.5303,-2.5357,-2.5401,-2.5401,-2.5524,-2.56,-2.56,-2.566,-2.5703,-2.5703,-2.5698,-2.57,-2.57,-2.57,-2.57,-2.57,-2.57,-2.57,-2.0647,-2.0537,-2.0424,-2.0648,-2.0471,-2.0234,-2.0261,-2.0229,-2.0223,-2.0294,-2.0311,-2.0311,-2.0311,-2.0323,-2.0996,-2.3022,-2.3595,-2.4486,-2.6513,-2.725,-2.7339,-2.668,-2.5961,-2.5427,-2.5239,-2.4847,-2.454,-2.4385,-2.4303,-2.4247,-2.4201,-2.42,-2.4199,-2.4199,-2.4199,-2.4189,-2.417,-2.417,-2.4132,-2.4074,-2.4045,-2.3996,-2.3896,-2.3886,-2.3837,-2.3806,-2.3806,-2.3886,-2.4006,-2.4065,-2.4143,-2.4247,-2.4383,-2.4444,-2.4435,-2.4486,-2.4513,-2.4506,-2.4479,-2.4435,-2.4427,-2.4482,-2.45,-2.45,-2.45,-2.45,-2.45,-2.45,-2.45,-2.45,-2.45,-2.45,-2.45,-2.45,-2.45,-2.45,-2.45,-2.45,-2.4534,-2.4622,-2.4668,-2.4757,-2.4939,-2.5037,-2.5128,-2.5218,-2.5269,-2.5298,-2.5298,-2.5298,-2.5327,-2.5393,-2.5401,-2.5412,-2.5432,-2.5457,-2.5466,-2.5466,-2.5548,-2.5603,-2.5603,-2.566,-2.5698,-2.5698,-2.57,-2.57,-2.5702,-2.5702,-2.5702,-2.5703,-2.5703,-2.5703,-2.0792,-2.0662,-2.0497,-2.0762,-2.0552,-2.0295,-2.0331,-2.031,-2.0296,-2.0383,-2.0402,-2.0402,-2.0402,-2.0672,-2.1411,-2.3,-2.406,-2.524,-2.6826,-2.7598,-2.7667,-2.6771,-2.6029,-2.5433,-2.5022,-2.4806,-2.4645,-2.4497,-2.4375,-2.4275,-2.4201,-2.42,-2.4199,-2.4199,-2.4199,-2.4199,-2.4199,-2.4199,-2.418,-2.4132,-2.4103,-2.4064,-2.3986,-2.3978,-2.3949,-2.3919,-2.3969,-2.4066,0.0,-2.4229,-2.4303,-2.4383,-2.452,-2.4579,-2.4595,-2.4667,-2.4701,-2.4689,-2.4649,-2.4615,-2.4573,-2.4524,-2.4499,-2.45,-2.45,-2.45,-2.45,-2.45,-2.45,-2.45,-2.45,-2.45,-2.45,-2.45,-2.45,-2.45,-2.45,-2.45,-2.4541,-2.4676,-2.4744,-2.484,-2.5064,-2.5134,-2.5202,-2.5288,-2.5298,-2.5313,-2.5331,-2.5345,-2.5368,-2.5467,-2.5476,-2.5496,-2.5574,-2.5553,-2.5537,-2.5544,-2.5598,-2.5637,-2.5637,-2.5677,-2.5701,-2.5701,-2.5702,-2.5702,-2.5703,-2.5703,-2.5703,-2.5701,-2.5703,-2.5692,0.0,-2.112,-2.068,-2.1432,-2.1015,-2.0412,-2.0398,-2.0401,0.0,-2.0402,-2.0402,-2.0421,-2.0479,-2.1153,-2.1756,-2.194,-2.3954,-2.5536,-2.5666,-2.6955,-2.7556,-2.6627,-2.6402,-2.5994,-2.5182,-2.4865,-2.4696,-2.4615,-2.4426,-2.4294,-2.421,-2.42,-2.4199,-2.4199,-2.4199,-2.4199,-2.4199,-2.4199,-2.4199,-2.4199,-2.4141,-2.4113,-2.4114,-2.4107,-2.4117,-2.4126,-2.4248,-2.4303,-2.4321,-2.4444,-2.4512,-2.4528,-2.4651,-2.47,-2.47,-2.47,-2.47,-2.47,-2.4698,-2.4699,-2.4683,-2.4555,-2.4514,-2.4508,-2.4499,-2.45,-2.45,-2.45,-2.45,-2.45,-2.45,-2.45,-2.45,-2.45,-2.45,-2.45,-2.45,-2.4508,-2.4549,-2.4692,-2.4828,-2.4958,-2.5094,-2.5218,-2.5298,-2.5298,-2.5298,-2.5317,-2.5393,-2.5405,-2.545,-2.5586,-2.5597,-2.5633,-2.5689,-2.5642,-2.5605,-2.5615,-2.5674,-2.57,-2.57,-2.5702,-2.5702,-2.5702,-2.5703,-2.5703,-2.5703,-2.5703,-2.57,-2.5697,-2.57,-2.5663,-2.0763,0.0,-2.0553,-2.0729,-2.0631,-2.046,0.0,-2.0403,-2.0395,-2.0401,-2.0402,-2.0595,-2.1269,-2.1562,-2.2346,-2.4292,-2.5114,-2.5946,-2.7227,-2.7183,-2.6679,-2.5788,-2.5615,-2.5439,-2.513,-2.5039,-2.4912,-2.4689,-2.4594,-2.4461,-2.4284,-2.4229,-2.42,-2.4199,-2.4199,-2.4199,-2.4199,-2.4199,-2.4199,-2.4199,-2.418,-2.4201,-2.4247,-2.4247,-2.4283,-2.4328,-2.4364,-2.4409,-2.4462,-2.4486,-2.4561,-2.466,-2.4692,-2.47,-2.47,-2.47,-2.47,-2.47,-2.4698,-2.4699,-2.4691,-2.4597,-2.4582,-2.4574,-2.4522,-2.4497,-2.45,-2.45,-2.45,-2.45,-2.45,-2.45,-2.45,-2.45,-2.45,-2.45,-2.45,-2.4582,-2.469,-2.4828,-2.4958,-2.5103,-2.5233,-2.5283,-2.5298,-2.5298,-2.5298,-2.5322,-2.5391,-2.5402,-2.5447,-2.559,-2.5598,-2.5632,-2.5691,-2.569,-2.5679,-2.568,-2.5692,-2.5703,-2.5703,-2.5703,-2.5703,-2.5703,-2.5703,-2.5703,-2.5703,-2.5699,-2.5702,-2.5697,-2.5654,-2.5618,-2.0564,-2.0842,-2.1127,-2.1103,-2.1096,-2.1089,-2.1046,-2.0735,-2.0437,-2.0411,-2.0419,-2.0703,-2.1543,-2.2028,-2.287,-2.4623,-2.557,-2.6397,-2.7282,-2.7005,-2.6379,-2.5503,-2.537,-2.5317,-2.5234,-2.515,-2.5006,-2.4806,-2.467,-2.4537,-2.4348,-2.4248,-2.4201,-2.42,-2.4199,-2.4199,-2.4199,-2.4199,-2.4228,-2.4284,-2.4284,-2.4365,-2.4483,-2.4515,-2.4555,-2.458,-2.4582,-2.4599,-2.4642,-2.4602,-2.4626,-2.47,-2.47,-2.47,-2.47,-2.47,-2.47,-2.47,-2.4703,-2.4698,-2.4691,-2.4658,-2.4632,-2.4589,-2.4555,-2.4548,-2.4541,-2.4508,-2.45,-2.45,-2.45,-2.45,-2.45,-2.45,-2.45,-2.4525,-2.4582,-2.4654,-2.4757,-2.4952,-2.5052,-2.5154,-2.5322,-2.5351,-2.5356,-2.5356,-2.5373,-2.542,-2.5483,-2.5486,-2.5529,-2.5629,-2.5652,-2.5657,-2.5703,-2.5703,-2.5703,-2.5703,-2.5703,-2.5703,-2.5703,-2.5703,-2.5703,-2.5703,-2.5703,-2.5703,-2.57,-2.5702,-2.5666,-2.5605,-2.5601,-2.5578,-2.0762,-2.1426,-2.2011,-2.1686,-2.1721,-2.1775,-2.1628,0.0,0.0,0.0,0.0,-2.0937,-2.1747,-2.2615,-2.3474,-2.428,-2.5635,-2.6585,-2.6506,-2.6502,-2.6233,-2.5492,-2.5397,-2.5403,-2.5403,-2.5248,-2.5086,-2.4906,-2.4744,-2.4568,-2.4412,-2.4303,-2.4257,-2.4248,-2.4284,-2.4284,-2.4284,-2.4247,-2.4294,-2.4398,-2.4433,-2.4543,-2.4736,-2.4792,-2.4835,-2.4851,-2.4847,-2.4825,-2.4796,-2.4736,-2.4715,-2.47,-2.47,-2.47,-2.47,-2.47,-2.47,-2.47,-2.47,-2.4703,-2.4707,-2.4707,-2.4665,-2.4623,-2.4615,-2.4624,-2.4599,-2.4533,-2.4517,-2.4499,-2.45,-2.45,-2.4508,-2.4534,-2.4533,-2.4566,-2.4698,-2.4751,-2.4835,-2.5064,-2.5122,-2.5197,-2.5375,-2.5403,-2.5402,-2.5408,-2.5462,-2.5515,-2.5586,-2.5595,-2.5626,-2.5692,-2.5703,-2.5703,-2.5703,-2.5703,-2.5703,-2.5703,-2.5703,-2.5703,-2.5703,-2.5703,-2.5703,-2.5703,-2.5703,-2.569,-2.5682,-2.5669,-2.5607,-2.5504,-2.5564,-2.5549,-2.1504,-2.2305,-2.2568,-2.1142,-2.1337,-2.1678,-2.0877,-2.0599,0.0,0.0,-2.1083,-2.1854,-2.2647,-2.3513,-2.4384,-2.5254,-2.5558,-2.5677,-2.5611,-2.5604,-2.5556,-2.5417,-2.54,-2.5406,-2.5406,-2.537,-2.5227,-2.4919,-2.4865,-2.4716,-2.4421,-2.4496,-2.4508,-2.4465,-2.4612,-2.4676,-2.462,-2.445,-2.4381,-2.4398,-2.4568,-2.4725,-2.4867,-2.4881,-2.495,-2.505,-2.505,-2.4959,-2.4803,-2.4789,-2.4751,-2.47,-2.47,-2.47,-2.47,-2.47,-2.47,-2.47,-2.47,-2.47,-2.4701,-2.4701,-2.4692,-2.4676,-2.4673,-2.4674,-2.4666,-2.4599,-2.4539,-2.4505,-2.4499,-2.45,-2.4524,-2.4637,-2.4668,-2.4715,-2.484,-2.4958,-2.5049,-2.5094,-2.5239,-2.5361,-2.5387,-2.5406,-2.5422,-2.5477,-2.5489,-2.5517,-2.5585,-2.5597,-2.5631,-2.5693,-2.5703,-2.5703,-2.5703,-2.5703,-2.5703,-2.5703,-2.5703,-2.5703,-2.5703,-2.5703,-2.5702,-2.5702,-2.5702,-2.5671,-2.5621,-2.5561,-2.5521,-2.5501,-2.5511,-2.5515,-2.1084,-2.1776,-2.2224,-2.1494,-2.2275,-2.3144,-2.2713,-2.2244,-2.19,-2.1904,-2.225,-2.2787,-2.3556,-2.4055,-2.4629,-2.5461,-2.5539,-2.5486,-2.5459,-2.5447,-2.5447,-2.5447,-2.5421,-2.5404,-2.5401,-2.5402,-2.5292,-2.5028,-2.4939,-2.4797,-2.4572,-2.4594,-2.4582,-2.4556,-2.4704,-2.479,-2.4751,-2.4729,-2.4706,-2.4665,-2.4758,-2.49,-2.5057,-2.5057,-2.5095,-2.5148,-2.512,-2.5053,-2.4952,-2.4839,-2.4781,-2.4751,-2.4706,-2.47,-2.47,-2.47,-2.47,-2.47,-2.47,-2.47,-2.47,-2.47,-2.47,-2.47,-2.4703,-2.4695,-2.4687,-2.4657,-2.4607,-2.4572,-2.4643,-2.4667,-2.4706,-2.4828,-2.483,-2.4855,-2.5028,-2.5084,-2.5131,-2.524,-2.5346,-2.5402,-2.5404,-2.5426,-2.5461,-2.5496,-2.5559,-2.5619,-2.5652,-2.5654,-2.5671,-2.5703,-2.5703,-2.5703,-2.5703,-2.5703,-2.5703,-2.5703,-2.5703,-2.5703,-2.5703,-2.5701,-2.5696,-2.5697,-2.5664,-2.5609,-2.5552,-2.5515,-2.5502,-2.5505,-2.5497,-2.5497,-2.0806,-2.133,-2.1861,-2.2096,-2.2988,-2.3857,-2.4053,-2.3428,-2.2881,-2.3081,-2.3309,-2.3651,-2.4224,-2.4532,-2.4896,-2.5505,-2.5539,-2.5499,-2.5499,-2.5497,-2.5497,-2.5497,-2.5447,-2.5421,-2.54,-2.5397,-2.5322,-2.5122,-2.5,-2.4888,-2.4749,-2.4731,-2.4719,-2.4719,-2.4851,-2.4922,-2.4915,-2.5016,-2.5016,-2.4915,-2.4961,-2.5051,-2.5201,-2.5201,-2.5201,-2.5195,-2.5151,-2.5104,-2.5089,-2.4929,-2.4839,-2.4787,-2.4744,-2.4706,-2.47,-2.47,-2.47,-2.47,-2.47,-2.47,-2.47,-2.47,-2.47,-2.4707,-2.4744,-2.4751,-2.4751,-2.4776,-2.4761,-2.4734,-2.4792,-2.4816,-2.4879,-2.5009,-2.5012,-2.5018,-2.5213,-2.5209,-2.5215,-2.5368,-2.5395,-2.5404,-2.5425,-2.5469,-2.5514,-2.5521,-2.5614,-2.5699,-2.5703,-2.5702,-2.5703,-2.5703,-2.5703,-2.5703,-2.5703,-2.5703,-2.5703,-2.5703,-2.5703,-2.5703,-2.5702,-2.5705,-2.5692,-2.565,-2.5603,-2.5539,-2.5483,-2.5483,-2.5482,-2.5476,-2.548,-2.548,-2.1493,-2.1756,-2.198,-2.2726,-2.2501,-2.2275,-2.3018,-2.2568,-2.2217,-2.3027,-2.3789,-2.4326,-2.4384,-2.5063,-2.5614,-2.5597,-2.5539,-2.5499,-2.5499,-2.5497,-2.5497,-2.5497,-2.5497,-2.547,-2.5411,-2.54,-2.5317,-2.5122,-2.5086,-2.5028,-2.4885,-2.5003,-2.5061,-2.5061,-2.5187,-2.5258,-2.5266,-2.5271,-2.518,-2.4993,-2.5122,-2.5189,-2.5201,-2.5201,-2.5201,-2.5201,-2.5185,-2.5163,-2.5101,-2.5079,-2.4965,-2.4803,-2.4787,-2.4751,-2.47,-2.47,-2.47,-2.47,-2.47,-2.47,-2.47,-2.47,-2.47,-2.4721,-2.4856,-2.4888,-2.4906,-2.5034,-2.507,-2.5018,-2.4854,-2.4885,-2.5019,-2.5149,-2.5176,-2.5218,-2.536,-2.5378,-2.5377,-2.5403,-2.5397,-2.5425,-2.5484,-2.5505,-2.5521,-2.5579,-2.565,-2.5703,-2.5703,-2.5703,-2.5703,-2.5703,-2.5703,-2.5703,-2.5703,-2.5703,-2.5703,-2.5703,-2.5703,-2.5702,-2.57,-2.5698,-2.5644,-2.5518,-2.551,-2.547,-2.5414,-2.5414,-2.5411,-2.5415,-2.5412,-2.5412,-2.0885,-2.136,-2.1825,-2.2166,-2.2037,-2.2199,-2.3588,-2.3671,-2.3701,-2.457,-2.5,-2.5215,-2.5215,-2.5483,-2.568,-2.5607,-2.5539,-2.5499,-2.5499,-2.5497,-2.5497,-2.5497,-2.5497,-2.547,-2.5411,-2.5403,-2.5373,-2.5284,-2.5168,-2.508,-2.5028,-2.5076,-2.5099,-2.5099,-2.5233,-2.5303,-2.5302,-2.5297,-2.5261,-2.5195,-2.5195,-2.5199,-2.5201,-2.5201,-2.5201,-2.5201,-2.5201,-2.5183,-2.516,-2.512,-2.506,-2.4972,-2.4856,-2.4863,-2.4939,-2.4863,-2.4818,-2.4818,-2.4818,-2.4772,-2.4713,-2.4801,-2.4818,-2.4847,-2.4984,-2.5018,-2.5024,-2.5088,-2.516,-2.5207,-2.5132,-2.5153,-2.5222,-2.5351,-2.5345,-2.535,-2.5436,-2.5426,-2.5407,-2.5456,-2.546,-2.5466,-2.5502,-2.5566,-2.5629,-2.5661,-2.5683,-2.5702,-2.5703,-2.5703,-2.5703,-2.5703,-2.5703,-2.5703,-2.5703,-2.5703,-2.5683,-2.5636,-2.5676,-2.5684,-2.5644,-2.5605,-2.5551,-2.5496,-2.5458,-2.5431,-2.54,-2.54,-2.54,-2.5401,-2.54,-2.5395,-2.0875,-2.1282,-2.1769,-2.2073,-2.1959,-2.2218,-2.3965,-2.4169,-2.4238,-2.5107,-2.5508,-2.5703,-2.5703,-2.5698,-2.568,-2.5607,-2.5539,-2.5499,-2.5499,-2.5497,-2.5497,-2.5497,-2.5497,-2.5484,-2.5443,-2.5415,-2.5399,-2.5402,-2.5269,-2.5188,-2.5191,-2.5171,-2.5165,-2.5165,-2.5253,-2.5298,-2.5298,-2.5297,-2.5297,-2.5301,-2.5255,-2.5217,-2.5203,-2.5207,-2.5201,-2.5201,-2.5201,-2.5201,-2.5201,-2.5168,-2.5162,-2.5152,-2.4964,-2.4981,-2.509,-2.5003,-2.4965,-2.4965,-2.4965,-2.4899,-2.484,-2.4932,-2.4965,-2.499,-2.5117,-2.5165,-2.5171,-2.5208,-2.5288,-2.5365,-2.5365,-2.5365,-2.5393,-2.5476,-2.546,-2.5443,-2.5488,-2.546,-2.5451,-2.5489,-2.5499,-2.551,-2.5526,-2.5626,-2.5697,-2.5697,-2.57,-2.5703,-2.5703,-2.5703,-2.5703,-2.5703,-2.5703,-2.5693,-2.5672,-2.5672,-2.5636,-2.5567,-2.5608,-2.5622,-2.5566,-2.5521,-2.5486,-2.547,-2.5421,-2.5396,-2.5402,-2.5402,-2.5369,-2.5313,-2.5374,-2.5341,-2.1685,-2.1688,-2.1891,-2.2681,-2.2293,-2.216,-2.3878,-2.3668,-2.3362,-2.4228,-2.5098,-2.5703,-2.5703,-2.5698,-2.568,-2.5607,-2.5542,-2.5499,-2.5503,-2.5501,-2.5497,-2.5497,-2.5497,-2.5497,-2.5497,-2.5443,-2.5401,-2.5401,-2.5402,-2.5398,-2.5398,-2.5337,-2.5298,-2.5298,-2.5298,-2.5298,-2.5298,-2.5298,-2.5302,-2.5301,-2.5301,-2.5261,-2.5202,-2.5203,-2.5201,-2.5201,-2.5201,-2.5201,-2.5207,-2.527,-2.5302,-2.5288,-2.5143,-2.5106,-2.5101,-2.5101,-2.5105,-2.5105,-2.5105,-2.5099,-2.5099,-2.5099,-2.5105,-2.5132,-2.5259,-2.5298,-2.5327,-2.5464,-2.5497,-2.5497,-2.5497,-2.5497,-2.5497,-2.5497,-2.5497,-2.5497,-2.5497,-2.5501,-2.5505,-2.5499,-2.5504,-2.5524,-2.5593,-2.5661,-2.5697,-2.5697,-2.57,-2.5703,-2.5703,-2.5703,-2.5703,-2.5703,-2.5703,-2.5672,-2.5603,-2.5601,-2.5566,-2.5503,-2.5505,-2.5495,-2.5495,-2.5505,-2.547,-2.5401,-2.5401,-2.5397,-2.5398,-2.5394,-2.5293,-2.5105,-2.5298,-2.5216,-2.0946,-2.123,-2.1611,-2.1237,-2.1853,-2.2527,-2.2485,-2.3242,-2.4202,-2.5116,-2.5516,-2.5703,-2.5703,-2.5698,-2.5685,-2.5668,-2.5573,-2.5495,-2.5506,-2.5497,-2.5497,-2.5497,-2.5497,-2.5497,-2.5497,-2.5484,-2.5447,-2.5401,-2.5399,-2.5395,-2.5402,-2.5374,-2.537,-2.537,-2.5317,-2.5298,-2.5298,-2.5298,-2.5303,-2.5298,-2.5297,-2.5262,-2.5201,-2.5202,-2.5201,-2.5201,-2.5197,-2.5201,-2.5207,-2.527,-2.5327,-2.5361,-2.5274,-2.5303,-2.5366,-2.5279,-2.5235,-2.5243,-2.5243,-2.5176,-2.5126,-2.5207,-2.5243,-2.5273,-2.5402,-2.5441,-2.5446,-2.5493,-2.5497,-2.5497,-2.5497,-2.5497,-2.5497,-2.5497,-2.5497,-2.5497,-2.5497,-2.5504,-2.5499,-2.5498,-2.5585,-2.5647,-2.5665,-2.5694,-2.5702,-2.5702,-2.5703,-2.5703,-2.5703,-2.5703,-2.5683,-2.5634,-2.5633,-2.5603,-2.5541,-2.5527,-2.5501,-2.5431,-2.5433,-2.5432,-2.543,-2.5431,-2.5396,-2.5332,-2.5332,-2.5327,-2.5332,-2.5233,-2.5154,-2.5099,-2.5058,-2.4994,-2.1975,-2.2039,-2.213,-2.1952,-2.2165,-2.2469,-2.2649,-2.3553,-2.4602,-2.5509,-2.57,-2.5703,-2.5703,-2.5701,-2.5696,-2.5698,-2.5629,-2.5564,-2.551,-2.5496,-2.5371,-2.5022,-2.4979,-2.4979,-2.4979,-2.4979,-2.5107,-2.5423,-2.5415,-2.5397,-2.5404,-2.5402,-2.5403,-2.5402,-2.5327,-2.5313,-2.5337,-2.5313,-2.5298,-2.5298,-2.5302,-2.5288,-2.5284,-2.5218,-2.521,-2.5241,-2.5271,-2.5292,-2.5322,-2.5365,-2.5421,-2.5481,-2.5423,-2.5472,-2.5527,-2.5423,-2.5376,-2.5378,-2.5378,-2.5332,-2.5274,-2.5351,-2.5378,-2.5387,-2.5481,-2.5497,-2.5497,-2.5497,-2.5497,-2.5497,-2.5497,-2.5497,-2.5497,-2.5497,-2.5497,-2.5497,-2.5497,-2.5502,-2.551,-2.5532,-2.5626,-2.57,-2.5696,-2.5702,-2.5703,-2.5703,-2.5703,-2.5703,-2.5703,-2.5681,-2.5635,-2.5599,-2.5577,-2.5529,-2.5467,-2.5458,-2.5431,-2.5363,-2.5354,-2.5359,-2.5363,-2.5359,-2.5337,-2.5298,-2.5248,-2.5248,-2.5298,-2.5105,-2.5022,-2.5022,-2.4932,-2.484,-2.3801,-2.3387,-2.2981,-2.377,-2.2826,-2.2123,-2.3722,-2.418,-2.452,-2.5391,-2.5582,-2.5576,-2.5576,-2.5576,-2.5576,-2.5576,-2.5581,-2.5515,-2.5311,-2.5277,-2.4978,-2.4179,-2.4087,-2.4083,-2.408,-2.408,-2.4409,-2.5201,-2.5211,-2.5212,-2.529,-2.529,-2.5315,-2.5401,-2.5341,-2.5337,-2.5398,-2.5337,-2.5308,-2.5298,-2.5308,-2.534,-2.5397,-2.5269,-2.5249,-2.5313,-2.5373,-2.5439,-2.5495,-2.5495,-2.5541,-2.5598,-2.5596,-2.5599,-2.5593,-2.5527,-2.5509,-2.5505,-2.5499,-2.5501,-2.5497,-2.5497,-2.5497,-2.5497,-2.5497,-2.5497,-2.5497,-2.5497,-2.5497,-2.5497,-2.5497,-2.5497,-2.5501,-2.5499,-2.5499,-2.5499,-2.5499,-2.5509,-2.5544,-2.56,-2.5664,-2.5705,-2.5703,-2.5703,-2.5703,-2.5703,-2.5703,-2.5702,-2.5692,-2.5639,-2.56,-2.5582,-2.5529,-2.5464,-2.5396,-2.5389,-2.5361,-2.5303,-2.5298,-2.5293,-2.5283,-2.5293,-2.5293,-2.5283,-2.516,-2.5154,-2.5259,-2.5013,-2.4881,-2.4881,-2.4867,-2.4734,-2.2378,-2.2101,-2.1998,-2.2191,-2.1969,-2.1959,-2.2952,-2.3244,-2.3554,-2.4417,-2.4637,-2.4678,-2.4678,-2.4678,-2.4678,-2.4677,-2.468,-2.4434,-2.3724,-2.357,-2.347,-2.3281,-2.3214,-2.3178,-2.3184,-2.3184,-2.3261,-2.3451,-2.3448,-2.3738,-2.442,-2.4459,-2.4756,-2.5383,-2.5387,-2.5388,-2.5398,-2.5389,-2.5351,-2.5298,-2.5348,-2.539,-2.5401,-2.5365,-2.5357,-2.5382,-2.5394,-2.5443,-2.5495,-2.5495,-2.5541,-2.5601,-2.5598,-2.5599,-2.5596,-2.558,-2.5547,-2.5495,-2.5501,-2.5503,-2.5497,-2.5497,-2.5497,-2.5497,-2.5497,-2.5497,-2.5497,-2.5497,-2.5497,-2.5497,-2.5497,-2.5497,-2.5497,-2.5496,-2.5499,-2.5499,-2.5499,-2.5583,-2.5662,-2.5679,-2.5686,-2.5703,-2.5703,-2.5703,-2.5702,-2.5701,-2.5701,-2.5678,-2.5634,-2.5607,-2.5558,-2.5447,-2.5431,-2.5392,-2.5331,-2.5322,-2.5317,-2.5298,-2.5298,-2.5253,-2.5149,-2.5234,-2.5248,-2.5149,-2.5111,-2.5064,-2.4994,-2.4821,-2.4734,-2.4744,-2.4646,-2.4524,-2.2807,-2.231,-2.1598,-2.1185,-2.1385,-2.1814,-2.2226,-2.2683,-2.3006,-2.3052,-2.344,-2.3776,-2.3776,-2.3778,-2.3779,-2.3779,-2.3779,-2.3619,-2.3157,-2.307,-2.2882,-2.243,-2.2352,-2.2328,-2.2327,-2.2326,-2.2487,-2.2874,-2.2903,-2.3097,-2.3548,-2.3964,-2.4202,-2.42,-2.4578,-2.4793,-2.4831,-2.4836,-2.5019,-2.5395,-2.5435,-2.5464,-2.5498,-2.5506,-2.5499,-2.5496,-2.5496,-2.5522,-2.5547,-2.5548,-2.5567,-2.5601,-2.5601,-2.5595,-2.5599,-2.5599,-2.5577,-2.5543,-2.5516,-2.5501,-2.5499,-2.5501,-2.5497,-2.5497,-2.5497,-2.5497,-2.5497,-2.5497,-2.5497,-2.5499,-2.5498,-2.5498,-2.5506,-2.5541,-2.5524,-2.551,-2.5539,-2.5628,-2.5698,-2.57,-2.5701,-2.5703,-2.5703,-2.5702,-2.5701,-2.57,-2.5699,-2.5682,-2.5608,-2.5574,-2.5508,-2.5406,-2.5365,-2.5344,-2.5303,-2.5298,-2.5269,-2.5207,-2.5198,-2.5128,-2.4962,-2.5027,-2.5027,-2.4956,-2.4923,-2.4892,-2.4846,-2.4648,-2.4588,-2.465,-2.4479,-2.4394,-2.3423,-2.2762,-2.1526,-2.0798,-2.1053,-2.1482,-2.1482,-2.2035,-2.2342,-2.1614,-2.22,-2.2864,-2.2873,-2.2875,-2.288,-2.2888,-2.2889,-2.2842,-2.2694,-2.2663,-2.2359,-2.1593,-2.1484,-2.1483,-2.1478,-2.1478,-2.1752,-2.2416,-2.2465,-2.2536,-2.2681,-2.3382,-2.3504,-2.2923,-2.3558,-2.3931,-2.3982,-2.3986,-2.4348,-2.5068,-2.5067,-2.5097,-2.5172,-2.5165,-2.5332,-2.5622,-2.5607,-2.5603,-2.5596,-2.5606,-2.5601,-2.5601,-2.5601,-2.5601,-2.5598,-2.5596,-2.5599,-2.5593,-2.554,-2.5512,-2.5505,-2.5499,-2.5395,-2.5279,-2.5279,-2.5172,-2.5047,-2.5068,-2.5182,-2.5287,-2.5287,-2.5399,-2.5532,-2.5601,-2.5565,-2.5547,-2.5615,-2.5658,-2.5704,-2.5697,-2.5703,-2.5702,-2.57,-2.5699,-2.5699,-2.5699,-2.5693,-2.5659,-2.5588,-2.5522,-2.5457,-2.5389,-2.5326,-2.5298,-2.5298,-2.5269,-2.5198,-2.509,-2.5061,-2.4959,-2.4764,-2.475,-2.4726,-2.4706,-2.4678,-2.4685,-2.4713,-2.4486,-2.4446,-2.4543,-2.4374,-2.4284,-2.2055,-2.191,-2.1671,-2.1559,-2.1053,-2.0566,-2.0566,-2.0663,-2.0695,-2.0521,-2.123,-2.1901,-2.196,-2.1972,-2.1986,-2.2046,-2.2057,-2.1803,-2.1042,-2.0879,-2.0796,-2.0679,-2.0609,-2.057,-2.0571,-2.0566,-2.0624,-2.073,-2.073,-2.1062,-2.1823,-2.1965,-2.2304,-2.2884,-2.3056,-2.3123,-2.3072,-2.3132,-2.322,-2.333,-2.3329,-2.3369,-2.3428,-2.3427,-2.426,-2.5683,-2.5625,-2.5597,-2.5596,-2.5606,-2.5601,-2.5601,-2.5601,-2.5601,-2.5601,-2.5598,-2.5599,-2.5596,-2.5593,-2.5547,-2.5495,-2.5505,-2.499,-2.437,-2.437,-2.3848,-2.3262,-2.3323,-2.3878,-2.4458,-2.4454,-2.5024,-2.5603,-2.5666,-2.5684,-2.5684,-2.5683,-2.5689,-2.5703,-2.5703,-2.5702,-2.57,-2.5696,-2.5704,-2.5703,-2.57,-2.5651,-2.5586,-2.5524,-2.5447,-2.5394,-2.5317,-2.5313,-2.5298,-2.5298,-2.5137,-2.5028,-2.5016,-2.4907,-2.4749,-2.4544,-2.4536,-2.4456,-2.4275,-2.444,-2.4466,-2.4374,-2.433,-2.4312,-2.4339,-2.4312,-2.4182,-2.1622,-2.2077,-2.231,-2.182,-2.1404,-2.0995,-2.0508,-2.0366,-2.0341,-2.0308,-2.0633,-2.0939,-2.0999,-2.1054,-2.109,-2.1163,-2.1166,-2.1039,-2.0645,-2.0572,-2.0537,-2.0495,-2.0467,-2.0458,-2.0462,-2.0417,-2.0397,-2.0397,-2.0397,-2.0566,-2.0946,-2.1429,-2.164,-2.1495,-2.2039,-2.2311,-2.2277,-2.231,-2.2574,-2.3057,-2.3059,-2.3066,-2.3095,-2.3103,-2.3781,-2.4966,-2.4942,-2.5199,-2.565,-2.5621,-2.56,-2.5596,-2.56,-2.56,-2.5596,-2.5603,-2.5595,-2.5599,-2.5602,-2.556,-2.542,-2.4931,-2.4509,-2.4109,-2.362,-2.3227,-2.296,-2.2994,-2.3628,-2.4314,-2.4354,-2.4998,-2.5659,-2.5691,-2.5703,-2.5703,-2.5703,-2.5703,-2.5701,-2.5699,-2.5696,-2.5703,-2.5701,-2.567,-2.5639,-2.5636,-2.5591,-2.5521,-2.5453,-2.5424,-2.5374,-2.5307,-2.5297,-2.5257,-2.5141,-2.5049,-2.4914,-2.4728,-2.4661,-2.4539,-2.4337,-2.4328,-2.4293,-2.4191,-2.4321,-2.4338,-2.4238,-2.4238,-2.4238,-2.4238,-2.4096,-2.3958,-2.1437,-2.2186,-2.2572,-2.214,-2.1859,-2.153,-2.0863,-2.0486,-2.0305,-2.0305,-2.0296,-2.0324,-2.0371,-2.0424,-2.0479,-2.0564,-2.0571,-2.0583,-2.0603,-2.0603,-2.0579,-2.0508,-2.0498,-2.0504,-2.05,-2.0448,-2.043,-2.0428,-2.0434,-2.0432,-2.0432,-2.1044,-2.1104,-2.0447,-2.1104,-2.1471,-2.1471,-2.1487,-2.1821,-2.246,-2.2456,-2.2464,-2.2457,-2.2463,-2.2931,-2.3752,-2.3973,-2.4443,-2.5038,-2.4988,-2.4958,-2.4993,-2.5207,-2.5155,-2.4995,-2.5206,-2.5136,-2.4938,-2.4937,-2.4907,-2.4765,-2.4116,-2.3749,-2.3441,-2.2786,-2.2486,-2.241,-2.2629,-2.3319,-2.4057,-2.4332,-2.5048,-2.5703,-2.5701,-2.5699,-2.5699,-2.5699,-2.5699,-2.5698,-2.5702,-2.5699,-2.5697,-2.5697,-2.5636,-2.5601,-2.5601,-2.5529,-2.5457,-2.541,-2.5392,-2.5345,-2.5231,-2.5215,-2.5149,-2.4958,-2.4899,-2.4771,-2.4524,-2.4449,-2.4355,-2.421,-2.4201,-2.42,-2.4199,-2.4247,-2.4247,-2.4201,-2.4201,-2.4154,-2.4097,-2.3888,-2.3742,-2.1333,-2.1777,-2.1956,-2.2736,-2.2304,-2.1675,-2.1558,-2.0894,-2.0295,-2.0295,-2.0304,-2.0303,-2.0299,-2.0311,-2.0345,-2.0481,-2.0511,-2.0531,-2.0591,-2.0603,-2.0579,-2.0508,-2.0498,-2.0504,-2.05,-2.05,-2.0492,-2.0495,-2.0492,-2.0489,-2.0494,-2.0544,-2.0536,-2.0497,-2.0543,-2.0573,-2.0573,-2.0631,-2.0692,-2.0731,-2.0728,-2.073,-2.0732,-2.0732,-2.1172,-2.1982,-2.2808,-2.3187,-2.3231,-2.3233,-2.3228,-2.3306,-2.4142,-2.3964,-2.3326,-2.4159,-2.39,-2.3137,-2.3135,-2.3133,-2.3121,-2.3077,-2.25,-2.1817,-2.1783,-2.1231,-2.0805,-2.1634,-2.2487,-2.3348,-2.4178,-2.5046,-2.57,-2.57,-2.5698,-2.5704,-2.5704,-2.5704,-2.5702,-2.5698,-2.5697,-2.5697,-2.5697,-2.5636,-2.5601,-2.5601,-2.5492,-2.5401,-2.5396,-2.5341,-2.5225,-2.5041,-2.5022,-2.4961,-2.4825,-2.464,-2.4519,-2.4494,-2.4321,-2.4209,-2.4199,-2.4199,-2.4208,-2.4199,-2.4199,-2.4199,-2.4199,-2.4199,-2.4065,-2.3816,-2.3806,-2.3558,-2.1333,-2.1776,-2.1957,-2.2791,-2.2772,-2.2372,-2.1745,-2.1357,-2.0986,-2.0417,-2.0302,-2.0298,-2.0298,-2.0301,-2.0332,-2.0423,-2.0466,-2.0513,-2.0533,-2.0566,-2.0586,-2.0571,-2.0562,-2.0564,-2.0556,-2.0526,-2.0501,-2.05,-2.0495,-2.0501,-2.0504,-2.0503,-2.0499,-2.0496,-2.0541,-2.0565,-2.0565,-2.0585,-2.0576,-2.0543,-2.0536,-2.0545,-2.0539,-2.0542,-2.0687,-2.0976,-2.1304,-2.2068,-2.3103,-2.3095,-2.3095,-2.3133,-2.3437,-2.3366,-2.314,-2.3452,-2.3353,-2.3061,-2.3061,-2.304,-2.2909,-2.2398,-2.2021,-2.1657,-2.1103,-2.0761,-2.0625,-2.0888,-2.2002,-2.3054,-2.2853,-2.4238,-2.5702,-2.5702,-2.5701,-2.5699,-2.5699,-2.5699,-2.5699,-2.5697,-2.5675,-2.5641,-2.5641,-2.5542,-2.547,-2.547,-2.5392,-2.5322,-2.5279,-2.5175,-2.5081,-2.5009,-2.4879,-2.4741,-2.4556,-2.4475,-2.44,-2.4312,-2.4247,-2.4199,-2.4199,-2.4199,-2.4199,-2.4199,-2.4035,-2.3937,-2.3937,-2.3937,-2.3806,-2.3544,-2.3411,-2.3262,-2.0888,-2.1576,-2.1932,-2.2458,-2.2581,-2.2472,-2.212,-2.1812,-2.1439,-2.086,-2.0735,-2.0646,-2.0346,-2.0301,-2.0321,-2.0388,-2.0457,-2.0513,-2.0532,-2.0566,-2.0603,-2.0603,-2.0603,-2.0603,-2.0603,-2.0564,-2.0527,-2.0527,-2.0534,-2.0527,-2.0532,-2.0532,-2.0534,-2.0532,-2.0547,-2.0575,-2.0575,-2.0573,-2.0537,-2.0496,-2.0501,-2.0499,-2.0499,-2.0495,-2.0505,-2.0499,-2.0499,-2.1157,-2.2227,-2.2231,-2.2229,-2.2264,-2.2554,-2.2499,-2.2304,-2.2586,-2.2504,-2.2227,-2.2227,-2.2201,-2.2068,-2.154,-2.1362,-2.1258,-2.0698,-2.0557,-2.0648,-2.0897,-2.1999,-2.2978,-2.2437,-2.3783,-2.5335,-2.5629,-2.5697,-2.5697,-2.5697,-2.5697,-2.5697,-2.5697,-2.5654,-2.5595,-2.5595,-2.547,-2.5367,-2.5374,-2.5308,-2.5236,-2.5136,-2.5063,-2.4945,-2.4804,-2.4683,-2.4533,-2.4347,-2.4329,-2.4293,-2.4208,-2.4199,-2.4199,-2.4199,-2.4199,-2.4161,-2.4074,-2.3896,-2.3721,-2.3578,-2.3628,-2.3531,-2.3301,-2.3157,-2.3049,0.0,0.0,0.0,-2.1793,-2.175,-2.191,-2.2692,-2.2207,-2.1599,-2.1567,-2.156,-2.1301,-2.046,-2.0302,-2.0316,-2.0391,-2.0455,-2.0518,-2.058,-2.0603,-2.0603,-2.0603,-2.0603,-2.0603,-2.0603,-2.0603,-2.0595,-2.0599,-2.0599,-2.0601,-2.0604,-2.0604,-2.0585,-2.0586,-2.0531,-2.0495,-2.0495,-2.0504,-2.0498,-2.0498,-2.0501,-2.0501,-2.0497,-2.0501,-2.0501,-2.0498,-2.0498,-2.0498,-2.05,-2.0504,-2.05,-2.0577,-2.1434,-2.1293,-2.0701,-2.1548,-2.1294,-2.0498,-2.0498,-2.0496,-2.05,-2.0498,-2.0498,-2.0517,-2.0578,-2.0603,-2.0779,-2.1617,-2.2437,-2.3082,-2.313,-2.3774,-2.4623,-2.5492,-2.5697,-2.5697,-2.5697,-2.5696,-2.5696,-2.5696,-2.5637,-2.559,-2.559,-2.5417,-2.5291,-2.5291,-2.5235,-2.5136,-2.5006,-2.4989,-2.4828,-2.4441,-2.4399,-2.4338,-2.4209,-2.4199,-2.4199,-2.4199,-2.419,-2.4189,-2.4189,-2.418,-2.4055,-2.3786,-2.3785,-2.3567,-2.3098,-2.3301,-2.3289,-2.3086,-2.3086,-2.2948,-2.0195,0.0,0.0,0.0,0.0,0.0,-2.1988,-2.1853,-2.1485,-2.0799,-2.0662,-2.0593,-2.0344,-2.0296,-2.0305,-2.0317,-2.0383,-2.0433,-2.0455,-2.0536,-2.0603,-2.0603,-2.0603,-2.0603,-2.0603,-2.0603,-2.0604,-2.0595,-2.0595,-2.0582,-2.0533,-2.0476,-2.0462,-2.0455,-2.0483,-2.0501,-2.0501,-2.0503,-2.0477,-2.0429,-2.0431,-2.0431,-2.043,-2.0481,-2.0496,-2.0498,-2.0503,-2.0498,-2.05,-2.0504,-2.05,-2.0528,-2.0818,-2.0804,-2.0633,-2.0866,-2.0801,-2.057,-2.057,-2.0572,-2.0573,-2.0571,-2.057,-2.0579,-2.0595,-2.0603,-2.0652,-2.0886,-2.1569,-2.2515,-2.3735,-2.4222,-2.4623,-2.5492,-2.5697,-2.5696,-2.5702,-2.5655,-2.5627,-2.5627,-2.5497,-2.5381,-2.5381,-2.5221,-2.5084,-2.508,-2.4942,-2.4821,-2.4789,-2.4664,-2.4524,-2.4407,-2.4311,-2.4238,-2.4199,-2.4199,-2.4199,-2.4199,-2.4025,-2.3907,-2.3907,-2.3714,-2.3586,-2.3502,-2.3365,-2.3226,-2.3098,-2.3154,-2.3056,-2.2816,-2.2816,-2.2777,-2.036,-2.0498,-2.0616,-2.1127,0.0,0.0,-2.1672,-2.1722,-2.1539,-2.1001,-2.0858,-2.0734,-2.0366,-2.0304,-2.0302,-2.0302,-2.0357,-2.0398,-2.0398,-2.0485,-2.0562,-2.0562,-2.058,-2.0603,-2.0603,-2.0567,-2.0562,-2.0562,-2.0533,-2.0501,-2.0456,-2.0422,-2.0402,-2.0396,-2.0435,-2.0463,-2.0457,-2.0456,-2.0442,-2.0402,-2.0402,-2.0399,-2.0403,-2.0444,-2.0473,-2.0497,-2.0498,-2.0497,-2.0498,-2.0498,-2.0497,-2.0504,-2.054,-2.0564,-2.0558,-2.059,-2.06,-2.06,-2.06,-2.0602,-2.0603,-2.0603,-2.0603,-2.0603,-2.0603,-2.0603,-2.0603,-2.0603,-2.0973,-2.1744,-2.3422,-2.3608,-2.3656,-2.4874,-2.5156,-2.5249,-2.5592,-2.558,-2.5526,-2.5593,-2.5437,-2.5273,-2.5192,-2.5052,-2.4945,-2.4882,-2.4779,-2.4671,-2.4584,-2.4467,-2.4373,-2.4321,-2.4247,-2.4199,-2.4199,-2.4199,-2.4199,-2.4199,-2.3946,-2.3806,-2.3806,-2.3544,-2.3355,-2.3286,-2.3166,-2.3024,-2.2885,-2.2923,-2.2846,-2.2699,-2.2672,-2.2659,-2.0777,-2.0783,-2.076,-2.0671,-2.0643,0.0,-2.1496,-2.1612,-2.1569,-2.1571,-2.1504,-2.123,-2.0452,-2.0314,-2.031,-2.0297,-2.035,-2.0387,-2.0396,-2.0465,-2.0498,-2.0498,-2.0562,-2.0603,-2.0591,-2.0533,-2.0498,-2.0494,-2.0427,-2.0393,-2.039,-2.0387,-2.0388,-2.0389,-2.0393,-2.0386,-2.0388,-2.0403,-2.0402,-2.0402,-2.0402,-2.0398,-2.0398,-2.0403,-2.0429,-2.0495,-2.0497,-2.0498,-2.05,-2.0502,-2.0501,-2.0496,-2.0504,-2.0497,-2.0509,-2.0573,-2.0585,-2.0596,-2.0596,-2.0599,-2.0603,-2.0603,-2.0603,-2.0603,-2.0603,-2.0603,-2.0603,-2.0603,-2.0672,-2.1091,-2.2574,-2.2493,-2.2402,-2.3888,-2.4314,-2.4575,-2.5289,-2.5425,-2.5424,-2.5545,-2.542,-2.5235,-2.5019,-2.4927,-2.4825,-2.469,-2.4651,-2.4578,-2.4399,-2.4373,-2.4329,-2.4209,-2.4199,-2.4199,-2.4199,-2.4199,-2.4189,-2.4161,-2.3907,-2.3753,-2.3721,-2.3466,-2.3242,-2.3061,-2.3049,-2.2898,-2.2601,-2.2659,-2.2694,-2.2681,-2.2614,-2.2587,-2.251,-2.2511,-2.236,-2.1714,-2.1552,0.0,-2.0873,-2.0739,-2.0733,-2.0733,-2.0684,-2.0575,-2.0411,-2.0382,-2.0363,-2.031,-2.031,-2.034,-2.0387,-2.0459,-2.0498,-2.0498,-2.0562,-2.0578,-2.052,-2.0513,-2.0477,-2.0415,-2.036,-2.0323,-2.0317,-2.0325,-2.0314,-2.0318,-2.0318,-2.0318,-2.0321,-2.0373,-2.0402,-2.0402,-2.0402,-2.0405,-2.0401,-2.0402,-2.0409,-2.0417,-2.0481,-2.0498,-2.05,-2.0502,-2.0501,-2.0496,-2.0497,-2.0503,-2.0498,-2.0509,-2.0552,-2.0596,-2.0596,-2.0599,-2.0603,-2.0603,-2.0603,-2.0603,-2.0603,-2.0603,-2.0603,-2.0603,-2.111,-2.1714,-2.1975,-2.2419,-2.2866,-2.32,-2.3769,-2.4284,-2.4442,-2.4921,-2.5324,-2.5353,-2.5278,-2.5153,-2.4952,-2.4816,-2.4681,-2.4493,-2.4375,-2.4275,-2.4238,-2.4247,-2.4228,-2.4199,-2.4199,-2.4199,-2.4199,-2.4199,-2.4113,-2.3896,-2.363,-2.3416,-2.3238,-2.2973,-2.2825,-2.2777,-2.2725,-2.2667,-2.2601,-2.2605,-2.2587,-2.2533,-2.2528,-2.252,-2.1939,-2.2343,-2.2695,-2.1461,-2.1481,0.0,0.0,-2.0504,-2.0499,-2.0497,-2.0126,-1.9796,-1.9801,-1.98,-1.9776,-1.9709,-2.007,-2.0347,-2.0347,-2.0382,-2.0405,-2.0449,-2.0479,-2.05,-2.0498,-2.0443,-2.0393,-2.0353,-2.0321,-2.03,-2.03,-2.0304,-2.0302,-2.0304,-2.0306,-2.0111,-1.9713,-1.9726,-1.9532,-1.9106,-1.9541,-1.9754,-1.9773,-2.0198,-2.0397,-2.04,-2.0437,-2.047,-2.0495,-2.0496,-2.0502,-2.0503,-2.0504,-2.0497,-2.0499,-2.0501,-2.0516,-2.0551,-2.0548,-2.0573,-2.059,-2.0558,-2.0547,-2.0547,-2.0547,-2.0568,-2.059,-2.0558,-2.089,-2.123,-2.1134,-2.1717,-2.2451,-2.2848,-2.3556,-2.426,-2.4658,-2.5041,-2.5259,-2.5126,-2.5075,-2.4996,-2.4828,-2.4654,-2.4494,-2.433,-2.4238,-2.4199,-2.4199,-2.4199,-2.4199,-2.4199,-2.4199,-2.4151,-2.4006,-2.3996,-2.3886,-2.3619,-2.3382,-2.3209,-2.3098,-2.2816,-2.2632,-2.2601,-2.2601,-2.2569,-2.2501,-2.2501,-2.2501,-2.2501,-2.2296,-2.2203,-2.1276,-2.1927,-2.2633,-2.1112,-2.1273,-2.1572,0.0,0.0,0.0,-2.05,-1.9945,-1.9447,-1.9452,-1.9314,-1.9235,-1.9347,-1.9807,-2.0187,-2.0302,-2.0324,-2.0336,-2.0391,-2.0395,-2.0421,-2.0455,-2.0365,-2.0297,-2.0302,-2.0298,-2.0298,-2.0298,-2.0298,-2.0296,-2.0296,-2.0136,-1.974,-1.9095,-1.8934,-1.8502,-1.7813,-1.8509,-1.8845,-1.8874,-1.9754,-2.015,-2.016,-2.0331,-2.0441,-2.0499,-2.05,-2.0501,-2.05,-2.0503,-2.0503,-2.05,-2.0503,-2.0499,-2.0504,-2.0499,-2.0544,-2.0573,-2.0519,-2.0498,-2.0498,-2.0498,-2.0527,-2.0547,-2.0501,-2.0627,-2.0774,-2.0657,-2.127,-2.2066,-2.2711,-2.3481,-2.4225,-2.486,-2.5112,-2.5143,-2.4908,-2.483,-2.4766,-2.4665,-2.451,-2.4347,-2.4228,-2.4199,-2.4199,-2.4199,-2.4152,-2.4122,-2.4122,-2.4084,-2.3957,-2.3744,-2.3714,-2.3608,-2.3352,-2.3182,-2.3061,-2.3008,-2.2725,-2.2569,-2.2501,-2.2533,-2.2515,-2.2399,-2.2321,-2.2313,-2.236,-2.203,-2.1855,-2.2759,-2.2847,-2.2767,-2.1803,-2.1682,-2.1565,-2.0697,0.0,-2.0566,-2.0508,0.0,-2.0351,-2.0349,0.0,0.0,-2.0224,-1.9726,-1.9505,-2.0281,-2.039,-2.0389,-2.0403,-2.0403,-2.0379,-2.0332,-2.0313,-2.03,-2.0298,-2.0298,-2.0298,-2.0298,-2.0298,-2.0298,-2.0302,-1.9551,-1.9097,-1.9014,-1.83,-1.7899,-1.7804,-1.79,-1.7949,-1.7978,-1.8845,-1.9251,-1.9293,-2.006,-2.0441,-2.0499,-2.05,-2.0501,-2.05,-2.05,-2.05,-2.05,-2.05,-2.0503,-2.0497,-2.0496,-2.0501,-2.0509,-2.0498,-2.0498,-2.0498,-2.0498,-2.0461,-2.0418,-2.0406,-2.0927,-2.1482,-2.1468,-2.207,-2.2681,-2.2719,-2.3338,-2.3915,-2.3888,-2.4442,-2.4902,-2.4749,-2.4583,-2.4449,-2.4442,-2.4424,-2.4347,-2.4228,-2.4199,-2.4199,-2.4199,-2.3996,-2.3846,-2.3846,-2.363,-2.3479,-2.3457,-2.3446,-2.3361,-2.3151,-2.3061,-2.2898,-2.2667,-2.256,-2.2515,-2.2501,-2.2446,-2.2413,-2.2399,-2.204,-2.1863,-2.1886,-2.1834,-2.1653,-2.1629,-2.2226,-2.2674,-2.1294,-2.1353,-2.1523,-2.0686,-2.0516,-2.0527,-2.0515,0.0,0.0,0.0,0.0,0.0,0.0,-1.9836,-1.9858,-1.972,-2.0138,-2.0439,-2.0402,-2.0369,-2.0331,-2.0304,-2.0764,-2.0843,-2.0337,-2.0298,-2.0298,-2.0298,-2.023,-2.0181,-2.0181,-1.9304,-1.8618,-1.819,-1.7385,-1.6774,-1.6358,-1.6858,-1.71,-1.7129,-1.7968,-1.8626,-1.9119,-1.9491,-1.9949,-2.0437,-2.0482,-2.0504,-2.0503,-2.0505,-2.0498,-2.0498,-2.0498,-2.0501,-2.0496,-2.0503,-2.0496,-2.05,-2.0499,-2.0497,-2.0495,-2.0446,-2.042,-2.0392,-2.0354,-2.0592,-2.0949,-2.1418,-2.2139,-2.2852,-2.3284,-2.3948,-2.4461,-2.4413,-2.4596,-2.4733,-2.4559,-2.4458,-2.4382,-2.4303,-2.4284,-2.4266,-2.4209,-2.4199,-2.4142,-2.3986,-2.3867,-2.3744,-2.3577,-2.3468,-2.3343,-2.3236,-2.3224,-2.3109,-2.282,-2.2751,-2.2632,-2.2487,-2.2492,-2.246,-2.2386,-2.2198,-2.2089,-2.2055,-2.1691,-2.1409,-2.1214,-2.1214,-2.1151,-2.0565,-2.1316,-2.1977,-2.0718,-2.0879,-2.1189,-2.0611,-2.049,-2.0486,-2.0476,-1.9976,0.0,0.0,0.0,-1.9277,-1.952,0.0,-2.0012,-1.9606,-2.0102,-2.0389,-2.0077,-2.021,-2.032,-2.0305,-2.0874,-2.0978,-2.0348,-2.03,-2.0275,-2.0247,-2.0149,-2.0079,-2.005,-1.8944,-1.8099,-1.758,-1.6542,-1.5757,-1.5255,-1.5892,-1.6192,-1.6221,-1.7039,-1.7904,-1.8763,-1.8975,-1.9582,-2.0406,-2.0466,-2.0501,-2.05,-2.0502,-2.0498,-2.0498,-2.0498,-2.0501,-2.0503,-2.05,-2.0501,-2.0503,-2.05,-2.0494,-2.046,-2.0411,-2.0374,-2.0342,-2.0292,-2.0433,-2.0744,-2.1324,-2.2216,-2.312,-2.3713,-2.4363,-2.4832,-2.4771,-2.4685,-2.456,-2.4382,-2.4347,-2.4311,-2.4218,-2.4199,-2.418,-2.4094,-2.4094,-2.3987,-2.3714,-2.3637,-2.3526,-2.3315,-2.3224,-2.311,-2.2948,-2.2944,-2.282,-2.256,-2.2501,-2.2446,-2.238,-2.2427,-2.2363,-2.2166,-2.1966,-2.1802,-2.1653,-2.1323,-2.1031,-2.0794,-2.0794,-2.0728,-2.0411,-2.0443,-2.0468,-2.041,-2.0425,-2.0427,-2.041,-2.0453,-2.0482,-2.0422,-2.0432,-2.0462,-2.0459,-1.9769,-1.948,-2.0316,-1.9772,0.0,0.0,-2.0475,-2.0156,-1.9252,-1.9877,-2.0366,-2.0307,-2.0332,-2.0335,-2.0304,-2.0304,-2.0238,-2.0112,-2.0103,-2.0036,-1.9908,-1.8302,-1.7458,-1.7502,-1.587,-1.5074,-1.5111,-1.513,-1.5149,-1.5178,-1.6045,-1.6962,-1.7892,-1.867,-1.9529,-2.0406,-2.0466,-2.0501,-2.05,-2.0502,-2.0498,-2.0498,-2.0498,-2.05,-2.05,-2.05,-2.05,-2.05,-2.05,-2.0457,-2.0402,-2.04,-2.0308,-2.0206,-2.0206,-2.0763,-2.1369,-2.1402,-2.2534,-2.3673,-2.3695,-2.4224,-2.465,-2.4458,-2.4407,-2.4364,-2.4238,-2.4208,-2.4208,-2.4199,-2.4199,-2.4103,-2.3856,-2.3816,-2.3723,-2.3446,-2.3248,-2.3089,-2.3024,-2.2782,-2.2601,-2.2528,-2.252,-2.2487,-2.2413,-2.2391,-2.2372,-2.231,-2.231,-2.2143,-2.1819,-2.1804,-2.1638,-2.1323,-2.099,-2.0811,-2.0794,-2.0794,-2.0553,-2.0402,-2.0399,-2.0397,-2.0401,-2.0404,-2.04,-2.0401,-2.0417,-2.0429,-2.0404,-2.0418,-2.0427,-2.0429,-2.019,-2.0107,-2.044,-2.0251,-1.9778,0.0,-1.8349,-1.8058,-1.8282,-1.9551,-2.0391,-2.0366,-2.0849,-2.0918,-2.0346,-2.0225,-2.0147,-2.0093,-1.9924,-1.9809,-1.9768,-1.8095,-1.7283,-1.743,-1.5767,-1.4994,-1.5095,-1.5095,-1.5095,-1.5114,-1.5415,-1.6032,-1.6888,-1.7157,-1.8108,-1.9484,-1.9503,-1.9869,-2.0435,-2.0427,-2.0425,-2.0436,-2.0481,-2.0498,-2.0498,-2.0498,-2.0474,-2.0433,-2.0433,-2.0388,-2.0332,-2.0276,-2.0237,-2.0186,-2.0147,-2.0331,-2.0671,-2.1254,-2.2118,-2.2994,-2.3566,-2.4108,-2.4475,-2.4407,-2.4338,-2.4247,-2.4209,-2.4199,-2.4142,-2.3976,-2.3936,-2.3907,-2.3816,-2.3651,-2.3441,-2.3164,-2.3077,-2.2936,-2.2707,-2.2587,-2.252,-2.2501,-2.246,-2.2419,-2.2399,-2.2358,-2.2316,-2.2296,-2.2296,-2.2143,-2.1804,-2.1577,-2.1292,-2.0974,-2.0538,-2.0333,-2.0333,-2.0296,-2.021,-2.0433,-2.0439,-2.0437,-2.0439,-2.0439,-2.0433,-2.0407,-2.0396,-2.04,-2.0401,-2.0398,-2.0411,-2.0434,-2.042,-2.0419,-2.0494,-2.0481,-1.9989,0.0,-1.7703,-1.7354,-1.7865,-1.9136,-1.9958,-1.9941,-2.0688,-2.0923,-2.0306,-2.0157,-2.0069,-1.9996,-1.9803,-1.9685,-1.9669,-1.8,-1.7173,-1.7333,-1.5687,-1.4917,-1.5033,-1.5051,-1.5058,-1.5058,-1.5058,-1.554,-1.6363,-1.6363,-1.7194,-1.856,-1.887,-1.9361,-1.9932,-2.0235,-2.0358,-2.0378,-2.0472,-2.0498,-2.0497,-2.0466,-2.0443,-2.0398,-2.0366,-2.0317,-2.0255,-2.0204,-2.0178,-2.016,-2.0112,-2.0103,-2.0217,-2.0732,-2.1578,-2.2434,-2.2973,-2.3708,-2.4284,-2.4284,-2.421,-2.4132,-2.4132,-2.4151,-2.4065,-2.3785,-2.3671,-2.3606,-2.3558,-2.3382,-2.3167,-2.2889,-2.2842,-2.2725,-2.2487,-2.246,-2.2446,-2.2432,-2.2386,-2.2358,-2.2358,-2.2316,-2.2296,-2.2296,-2.2189,-2.1968,-2.1631,-2.1292,-2.0958,-2.0611,-2.0264,-2.0108,-2.0108,-2.0025,-1.999]},{"header":{"parameterUnit":"m.s-1","parameterCategory":1,"la1":30.6,"la2":29.2853,"lo1":-89.7004,"lo2":-87.6739,"dy":0.0162,"dx":0.0183,"nx":112,"ny":82,"refTime":"2024-07-01T18:00:00:Z","depth":0,"parameterNumber":3,"parameterNumberName":"V-component_of_WINDS"},"data":[0.0,0.0,0.0,0.0,0.0,0.0,0.0,0.0,0.0,0.0,0.0,0.0,0.0,0.0,0.0,0.0,0.0,0.0,0.0,0.0,0.0,0.0,0.0,0.0,0.0,0.0,0.0,0.0,0.0,0.0,0.0,0.0,0.0,0.0,0.0,0.0,0.0,0.0,0.0,0.0,0.0,0.0,0.0,0.0,0.0,0.0,0.0,0.0,0.0,0.0,0.0,0.0,0.0,0.0,0.0,0.0,0.0,0.0,0.0,0.0,0.0,0.0,0.0,0.0,0.0,0.0,0.0,0.0,0.0,0.0,0.0,0.0,0.0,0.0,0.0,0.0,0.0,0.0,0.0,0.0,0.0,0.0,0.0,0.0,0.0,0.0,0.0,0.0,0.0,0.0,-0.4951,-0.515,-0.5334,-0.5632,-0.6154,-0.6966,-0.7466,-0.7558,0.0,0.0,0.0,0.0,0.0,0.0,0.0,0.0,0.0,0.0,0.0,0.0,0.0,0.0,0.0,0.0,0.0,0.0,0.0,0.0,0.0,0.0,0.0,0.0,0.0,0.0,0.0,0.0,0.0,0.0,0.0,0.0,0.0,0.0,0.0,0.0,0.0,0.0,0.0,0.0,0.0,0.0,0.0,0.0,0.0,0.0,0.0,0.0,0.0,0.0,0.0,0.0,0.0,0.0,0.0,0.0,0.0,0.0,0.0,0.0,0.0,0.0,0.0,0.0,0.0,0.0,0.0,0.0,0.0,0.0,0.0,0.0,0.0,0.0,0.0,0.0,0.0,0.0,0.0,0.0,0.0,0.0,0.0,0.0,0.0,0.0,0.0,0.0,0.0,0.0,0.0,0.0,0.0,0.0,0.0,0.0,0.0,0.0,0.0,0.0,0.0,0.0,0.0,0.0,-0.4713,-0.4623,-0.5473,-0.6098,-0.6179,-0.7348,-0.8002,-0.7857,0.0,0.0,0.0,0.0,0.0,0.0,0.0,0.0,0.0,0.0,0.0,0.0,0.0,0.0,0.0,0.0,0.0,0.0,0.0,0.0,0.0,0.0,0.0,0.0,0.0,0.0,0.0,0.0,0.0,0.0,0.0,0.0,0.0,0.0,0.0,0.0,0.0,0.0,0.0,0.0,0.0,0.0,0.0,0.0,0.0,0.0,0.0,0.0,0.0,0.0,0.0,0.0,0.0,0.0,0.0,0.0,0.0,0.0,0.0,0.0,0.0,0.0,0.0,0.0,0.0,0.0,0.0,0.0,0.0,0.0,0.0,0.0,0.0,0.0,0.0,0.0,0.0,0.0,0.0,0.0,0.0,0.0,0.0,0.0,0.0,0.0,0.0,0.0,0.0,0.0,0.0,0.0,0.0,0.0,0.0,0.0,0.0,0.0,0.0,0.0,0.0,0.0,0.0,-0.4723,-0.4456,-0.4493,-0.5226,-0.5878,-0.6283,-0.7233,-0.7871,-0.8012,-0.8073,0.0,0.0,0.0,0.0,0.0,0.0,0.0,0.0,0.0,0.0,0.0,0.0,0.0,0.0,0.0,0.0,0.0,0.0,0.0,0.0,0.0,0.0,0.0,0.0,0.0,0.0,0.0,0.0,0.0,0.0,0.0,0.0,0.0,0.0,0.0,0.0,0.0,0.0,0.0,0.0,0.0,0.0,0.0,0.0,0.0,0.0,0.0,0.0,0.0,0.0,0.0,0.0,0.0,0.0,0.0,0.0,0.0,0.0,0.0,0.0,0.0,0.0,0.0,0.0,0.0,0.0,0.0,0.0,0.0,0.0,0.0,0.0,0.0,0.0,0.0,0.0,0.0,0.0,0.0,0.0,0.0,0.0,0.0,0.0,0.0,0.0,0.0,0.0,0.0,0.0,0.0,0.0,0.0,0.0,0.0,0.0,0.0,0.0,0.0,0.0,0.0,0.0,-0.4228,-0.4341,-0.4477,-0.5117,-0.5767,-0.6357,-0.7143,-0.7716,-0.7984,-0.7976,0.0,0.0,0.0,0.0,0.0,0.0,0.0,0.0,0.0,0.0,0.0,0.0,0.0,0.0,0.0,0.0,0.0,0.0,0.0,0.0,0.0,0.0,0.0,0.0,0.0,0.0,0.0,0.0,0.0,0.0,0.0,0.0,0.0,0.0,0.0,0.0,0.0,0.0,0.0,0.0,0.0,0.0,0.0,0.0,0.0,0.0,0.0,0.0,0.0,0.0,0.0,0.0,0.0,0.0,0.0,0.0,0.0,0.0,0.0,0.0,0.0,0.0,0.0,0.0,0.0,0.0,0.0,0.0,0.0,0.0,0.0,0.0,0.0,0.0,0.0,0.0,0.0,0.0,0.0,0.0,0.0,0.0,0.0,0.0,0.0,0.0,0.0,0.0,0.0,0.0,0.0,0.0,0.0,0.0,0.0,0.0,0.0,0.0,0.0,0.0,0.0,0.0,-0.4277,-0.4479,-0.4487,-0.5473,-0.6204,-0.6386,-0.731,-0.7831,-0.7741,-0.7963,0.0,0.0,0.0,0.0,0.0,0.0,0.0,0.0,0.0,0.0,0.0,0.0,0.0,0.0,0.0,0.0,0.0,0.0,0.0,0.0,0.0,0.0,0.0,0.0,0.0,0.0,0.0,0.0,0.0,0.0,0.0,0.0,0.0,0.0,0.0,0.0,0.0,0.0,0.0,0.0,0.0,0.0,0.0,0.0,0.0,0.0,0.0,0.0,0.0,0.0,0.0,0.0,0.0,0.0,0.0,0.0,0.0,0.0,0.0,0.0,0.0,0.0,0.0,0.0,0.0,0.0,0.0,0.0,0.0,0.0,0.0,0.0,0.0,0.0,0.0,0.0,0.0,0.0,0.0,0.0,0.0,0.0,0.0,0.0,0.0,0.0,0.0,0.0,0.0,0.0,0.0,0.0,0.0,0.0,0.0,0.0,0.0,0.0,0.0,0.0,0.0,0.0,-0.4176,-0.4496,-0.4942,-0.5794,-0.6524,-0.7034,-0.786,-0.8271,-0.8143,0.0,0.0,0.0,0.0,0.0,0.0,0.0,0.0,0.0,0.0,0.0,0.0,0.0,0.0,0.0,0.0,0.0,0.0,0.0,0.0,0.0,0.0,0.0,0.0,0.0,0.0,0.0,0.0,0.0,0.0,0.0,0.0,0.0,0.0,0.0,0.0,0.0,0.0,0.0,0.0,0.0,0.0,0.0,0.0,0.0,0.0,0.0,0.0,0.0,0.0,0.0,0.0,0.0,0.0,0.0,0.0,0.0,0.0,0.0,0.0,0.0,0.0,0.0,0.0,0.0,0.0,0.0,0.0,0.0,0.0,0.0,0.0,0.0,0.0,0.0,0.0,0.0,0.0,0.0,0.0,0.0,0.0,0.0,0.0,0.0,0.0,0.0,0.0,0.0,0.0,0.0,0.0,0.0,0.0,0.0,0.0,0.0,0.0,0.0,0.0,0.0,0.0,-0.4323,-0.4423,-0.4751,-0.524,-0.6118,-0.6899,-0.7462,-0.8086,-0.8374,-0.825,0.0,0.0,0.0,0.0,0.0,0.0,0.0,0.0,0.0,0.0,0.0,0.0,0.0,0.0,0.0,0.0,0.0,0.0,0.0,0.0,0.0,0.0,0.0,0.0,0.0,0.0,0.0,0.0,0.0,0.0,0.0,0.0,0.0,0.0,0.0,0.0,0.0,0.0,0.0,0.0,0.0,0.0,0.0,0.0,0.0,0.0,0.0,0.0,0.0,0.0,0.0,0.0,0.0,0.0,0.0,0.0,0.0,0.0,0.0,0.0,0.0,0.0,0.0,0.0,0.0,0.0,0.0,0.0,0.0,0.0,0.0,0.0,0.0,0.0,0.0,0.0,0.0,0.0,0.0,0.0,0.0,0.0,0.0,0.0,0.0,0.0,0.0,0.0,0.0,0.0,0.0,0.0,0.0,0.0,0.0,0.0,0.0,0.0,0.0,0.0,0.0,0.0,-0.4751,-0.5058,-0.5306,-0.5306,-0.65,-0.7364,-0.7492,-0.7867,-0.8054,0.0,0.0,0.0,0.0,0.0,0.0,0.0,0.0,0.0,0.0,0.0,0.0,0.0,0.0,0.0,0.0,0.0,0.0,0.0,0.0,0.0,0.0,0.0,0.0,0.0,0.0,0.0,0.0,0.0,0.0,0.0,0.0,0.0,0.0,0.0,0.0,0.0,0.0,0.0,0.0,0.0,0.0,0.0,0.0,0.0,0.0,0.0,0.0,0.0,0.0,0.0,0.0,0.0,0.0,0.0,0.0,0.0,0.0,0.0,0.0,0.0,0.0,0.0,0.0,0.0,0.0,0.0,0.0,0.0,0.0,0.0,0.0,0.0,0.0,0.0,0.0,0.0,0.0,0.0,0.0,0.0,0.0,0.0,0.0,0.0,0.0,0.0,0.0,0.0,0.0,0.0,0.0,0.0,0.0,0.0,0.0,0.0,0.0,0.0,0.0,0.0,0.0,0.0,-0.4751,-0.5058,-0.5496,-0.6007,-0.6899,-0.7655,-0.822,-0.8475,-0.8406,-0.7939,0.0,0.0,0.0,0.0,0.0,0.0,0.0,0.0,0.0,0.0,0.0,0.0,0.0,0.0,0.0,0.0,0.0,0.0,0.0,0.0,0.0,0.0,0.0,0.0,0.0,0.0,0.0,0.0,0.0,0.0,0.0,0.0,0.0,0.0,0.0,0.0,0.0,0.0,0.0,0.0,0.0,0.0,0.0,0.0,0.0,0.0,0.0,0.0,0.0,0.0,0.0,0.0,0.0,0.0,0.0,0.0,0.0,0.0,0.0,0.0,0.0,0.0,0.0,0.0,0.0,0.0,0.0,0.0,0.0,0.0,0.0,0.0,0.0,0.0,0.0,0.0,0.0,0.0,0.0,0.0,0.0,0.0,0.0,0.0,0.0,0.0,0.0,0.0,0.0,0.0,0.0,0.0,0.0,0.0,0.0,0.0,0.0,0.0,0.0,0.0,0.0,0.0,-0.5338,-0.5529,-0.593,-0.6686,-0.7415,-0.8061,-0.8544,-0.8718,-0.8554,-0.7942,0.0,0.0,0.0,0.0,0.0,0.0,0.0,0.0,0.0,0.0,0.0,0.0,0.0,0.0,0.0,0.0,0.0,0.0,0.0,0.0,0.0,0.0,0.0,0.0,0.0,0.0,0.0,0.0,0.0,0.0,0.0,0.0,0.0,0.0,0.0,0.0,0.0,0.0,0.0,0.0,0.0,0.0,0.0,0.0,0.0,0.0,0.0,0.0,0.0,0.0,0.0,0.0,0.0,0.0,0.0,0.0,0.0,0.0,0.0,0.0,0.0,0.0,0.0,0.0,0.0,0.0,0.0,0.0,0.0,0.0,0.0,0.0,0.0,0.0,0.0,0.0,0.0,0.0,0.0,0.0,0.0,0.0,0.0,0.0,0.0,0.0,0.0,0.0,0.0,0.0,0.0,0.0,0.0,0.0,0.0,0.0,0.0,0.0,0.0,0.0,0.0,0.0,-0.624,-0.631,-0.6559,-0.7233,-0.799,-0.8474,-0.8603,-0.8718,-0.8554,-0.7942,0.0,0.0,0.0,0.0,0.0,0.0,0.0,0.0,0.0,0.0,0.0,0.0,0.0,0.0,0.0,0.0,0.0,0.0,0.0,0.0,0.0,0.0,0.0,0.0,0.0,0.0,0.0,0.0,0.0,0.0,0.0,0.0,0.0,0.0,0.0,0.0,0.0,0.0,0.0,0.0,0.0,0.0,0.0,0.0,0.0,0.0,0.0,0.0,0.0,0.0,0.0,0.0,0.0,0.0,0.0,0.0,0.0,0.0,0.0,0.0,-0.9604,-0.9851,0.0,0.0,0.0,0.0,0.0,0.0,0.0,0.0,0.0,0.0,0.0,0.0,0.0,0.0,0.0,0.0,0.0,0.0,0.0,0.0,0.0,0.0,0.0,0.0,0.0,0.0,0.0,0.0,0.0,0.0,0.0,0.0,0.0,0.0,0.0,0.0,0.0,0.0,0.0,0.0,-0.6291,-0.6749,-0.7179,-0.7441,-0.8114,-0.8606,-0.8748,-0.8778,-0.8554,-0.7942,-0.7639,0.0,0.0,0.0,0.0,0.0,0.0,0.0,0.0,0.0,0.0,0.0,0.0,0.0,0.0,0.0,0.0,0.0,0.0,0.0,0.0,0.0,0.0,0.0,0.0,0.0,0.0,0.0,0.0,0.0,0.0,0.0,0.0,0.0,0.0,0.0,0.0,0.0,0.0,0.0,0.0,0.0,0.0,0.0,0.0,0.0,0.0,0.0,0.0,0.0,0.0,0.0,0.0,0.0,0.0,0.0,0.0,0.0,0.0,0.0,-1.0416,-1.0248,0.0,0.0,0.0,0.0,0.0,0.0,0.0,0.0,0.0,0.0,0.0,0.0,0.0,0.0,0.0,0.0,0.0,0.0,0.0,0.0,0.0,0.0,0.0,0.0,0.0,0.0,0.0,0.0,0.0,0.0,0.0,0.0,0.0,0.0,0.0,0.0,0.0,0.0,0.0,0.0,-0.6869,-0.7137,-0.7474,-0.7877,-0.8332,-0.8603,-0.8611,-0.8597,-0.8343,-0.7746,-0.7422,0.0,0.0,0.0,0.0,0.0,0.0,0.0,0.0,0.0,0.0,0.0,0.0,0.0,0.0,0.0,0.0,0.0,0.0,0.0,0.0,0.0,0.0,0.0,0.0,0.0,0.0,0.0,0.0,0.0,0.0,0.0,0.0,0.0,0.0,0.0,0.0,0.0,0.0,0.0,0.0,0.0,0.0,0.0,0.0,0.0,0.0,0.0,0.0,0.0,0.0,0.0,0.0,0.0,-1.1233,-1.1242,-1.1494,-1.1494,-1.164,-1.1879,-1.1328,-1.0822,-1.0375,-1.0809,0.0,0.0,0.0,0.0,0.0,0.0,0.0,0.0,0.0,0.0,0.0,0.0,0.0,0.0,0.0,0.0,0.0,0.0,0.0,0.0,0.0,0.0,-0.8136,-0.7581,-0.7768,-0.7931,-0.7491,0.0,0.0,0.0,0.0,0.0,0.0,0.0,0.0,0.0,0.0,0.0,-0.7366,-0.7457,-0.7676,-0.8246,-0.8423,-0.8468,-0.832,-0.8322,-0.8084,-0.7524,-0.7238,-0.6971,0.0,0.0,0.0,0.0,0.0,0.0,0.0,0.0,0.0,0.0,0.0,0.0,0.0,0.0,0.0,0.0,0.0,0.0,0.0,0.0,0.0,0.0,0.0,0.0,0.0,0.0,0.0,0.0,0.0,0.0,0.0,0.0,-0.5613,-0.5712,0.0,0.0,0.0,0.0,0.0,0.0,0.0,0.0,0.0,0.0,0.0,0.0,0.0,-1.1357,-1.1639,-1.2059,-1.2244,-1.2271,-1.2571,-1.2526,-1.2244,-1.2244,-1.2269,-1.2329,-1.2577,0.0,-1.2085,-1.2144,0.0,0.0,0.0,0.0,0.0,0.0,0.0,0.0,0.0,0.0,0.0,0.0,0.0,0.0,0.0,0.0,0.0,0.0,0.0,0.0,0.0,0.0,-0.8599,-0.8509,-0.8554,-0.8524,-0.8226,-0.7822,-0.7464,-0.72,-0.7148,-0.7127,0.0,0.0,0.0,0.0,0.0,0.0,-0.6883,-0.755,-0.8046,-0.798,-0.8075,-0.8113,-0.7965,-0.7965,-0.7839,-0.7511,-0.745,-0.7296,-0.6956,-0.6687,0.0,0.0,0.0,0.0,0.0,0.0,0.0,0.0,0.0,0.0,0.0,0.0,0.0,0.0,0.0,0.0,0.0,0.0,0.0,0.0,0.0,0.0,0.0,0.0,0.0,0.0,0.0,0.0,0.0,-0.5804,-0.6068,-0.5782,-0.6288,-0.6753,0.0,0.0,0.0,0.0,0.0,0.0,0.0,0.0,0.0,-1.1077,-1.1842,-1.234,-1.2479,-1.2839,-1.3018,-1.3023,-1.3194,-1.3185,-1.3018,-1.3018,-1.3018,-1.3027,-1.3202,-1.3177,-1.3001,-1.2804,-1.2398,-1.1928,0.0,0.0,0.0,0.0,-1.1661,-1.1713,-1.2129,-1.2128,-1.1978,-1.1918,0.0,0.0,0.0,0.0,0.0,0.0,0.0,-1.0388,-0.9347,-0.9073,-0.8934,-0.8573,-0.8599,-0.8635,-0.8345,-0.8364,-0.8269,-0.7713,-0.7605,-0.7553,-0.7449,-0.7527,0.0,0.0,0.0,-0.7669,-0.741,-0.7853,-0.8115,-0.7863,-0.7996,-0.7964,-0.7596,-0.7626,-0.7538,-0.7235,-0.7218,-0.7158,-0.7003,-0.688,-0.6754,0.0,0.0,0.0,0.0,0.0,0.0,0.0,0.0,0.0,0.0,0.0,0.0,0.0,0.0,0.0,0.0,0.0,0.0,0.0,0.0,0.0,0.0,0.0,0.0,0.0,0.0,0.0,0.0,-0.5896,-0.6289,-0.5907,-0.6443,-0.706,0.0,0.0,0.0,0.0,0.0,0.0,-1.0474,-1.1129,-1.1529,-1.1594,-1.2501,-1.3029,-1.3142,-1.3378,-1.3506,-1.3506,-1.3506,-1.3506,-1.3506,-1.3506,-1.3506,-1.3506,-1.3506,-1.3506,-1.3489,-1.3224,-1.289,-1.2543,-1.2543,-1.2479,-1.2402,-1.2533,-1.2543,-1.2595,-1.298,-1.3086,-1.297,-1.274,-1.2616,-1.2464,-1.1902,0.0,0.0,0.0,0.0,-1.1426,-1.032,-0.9893,-0.9595,-0.8987,-0.8988,-0.9054,-0.8713,-0.8957,-0.9003,-0.8241,-0.8099,-0.8063,-0.7912,-0.8018,0.0,-0.7678,-0.7895,-0.8003,-0.7771,-0.8032,-0.8113,-0.7722,-0.7868,-0.7777,-0.7237,-0.7311,-0.7258,-0.7016,-0.7,-0.7,-0.7,-0.7,-0.69,-0.6703,0.0,0.0,0.0,0.0,0.0,0.0,0.0,0.0,0.0,0.0,0.0,0.0,0.0,0.0,0.0,0.0,0.0,0.0,0.0,0.0,0.0,0.0,0.0,0.0,0.0,0.0,0.0,0.0,0.0,-0.5982,-0.6239,0.0,0.0,0.0,0.0,-0.9978,-1.0312,-1.0624,-1.1027,-1.1637,-1.2119,-1.2426,-1.2814,-1.3165,-1.3481,-1.3498,-1.3506,-1.3506,-1.3506,-1.3506,-1.3506,-1.3506,-1.3506,-1.3506,-1.3506,-1.3506,-1.3506,-1.3489,-1.3271,-1.2979,-1.2979,-1.2747,-1.2464,-1.2842,-1.2979,-1.303,-1.3361,-1.3262,-1.306,-1.3348,-1.3224,-1.297,-1.2936,-1.2674,0.0,0.0,-1.1946,-1.1811,-1.1126,-1.0933,-1.0816,-1.0379,-1.0294,-1.0161,-0.9649,-0.9557,-0.9389,-0.8794,-0.8668,-0.8665,-0.865,0.0,-0.843,-0.779,-0.8193,-0.8254,-0.7427,-0.794,-0.8113,-0.7406,-0.7554,-0.7511,-0.6965,-0.6987,-0.7016,-0.7,-0.7,-0.7,-0.7,-0.7,-0.6993,-0.698,-0.6717,0.0,0.0,0.0,0.0,0.0,0.0,0.0,0.0,0.0,0.0,0.0,0.0,0.0,0.0,0.0,0.0,0.0,0.0,0.0,0.0,0.0,0.0,0.0,0.0,0.0,0.0,0.0,0.0,-0.6215,-0.6702,0.0,-0.8307,-0.8482,-0.9131,-1.0621,-1.0817,-1.1045,-1.1393,-1.1817,-1.2207,-1.2478,-1.2828,-1.3159,-1.3506,-1.3506,-1.3506,-1.3506,-1.3506,-1.3506,-1.3506,-1.3506,-1.3506,-1.3506,-1.3506,-1.3506,-1.3506,-1.3506,-1.3434,-1.3318,-1.3318,-1.3232,-1.3125,-1.3267,-1.3318,-1.3339,-1.3464,-1.3425,-1.3339,-1.3464,-1.3421,-1.3318,-1.3318,-1.3224,-1.3079,-1.3003,-1.2818,-1.2497,-1.1809,-1.133,-1.0856,-1.0283,-1.0143,-1.0088,-0.9904,-0.9729,-0.9528,-0.9321,-0.911,-0.8957,-0.8957,-0.9107,-0.9017,-0.8372,-0.8597,-0.8664,-0.8078,-0.8232,-0.8228,-0.78,-0.7876,-0.7734,-0.7194,-0.7267,-0.7224,-0.7013,-0.7,-0.7,-0.7,-0.7,-0.7,-0.7,-0.6737,-0.6466,0.0,0.0,0.0,0.0,0.0,0.0,0.0,0.0,0.0,0.0,0.0,0.0,0.0,0.0,0.0,0.0,0.0,0.0,0.0,0.0,0.0,0.0,0.0,0.0,0.0,-0.6217,-0.6805,-0.7069,-0.7524,-0.818,-0.9141,-0.9289,-0.9865,-1.1164,-1.1269,-1.1364,-1.158,-1.1813,-1.2058,-1.2363,-1.2674,-1.2977,-1.3333,-1.3446,-1.3506,-1.3506,-1.3506,-1.3506,-1.3506,-1.3506,-1.3442,-1.3331,-1.3331,-1.325,-1.3143,-1.3275,-1.325,-1.3155,-1.3412,-1.3434,-1.3331,-1.3331,-1.3331,-1.3344,-1.3464,-1.3506,-1.3489,-1.3369,-1.3412,-1.3485,-1.3365,-1.3412,-1.3506,-1.3506,-1.3254,-1.2859,-1.2278,-1.171,-1.1149,-1.0622,-1.0515,-1.0489,-1.0362,-1.0206,-1.0027,-0.9899,-0.945,-0.9068,-0.8981,-0.9194,-0.9196,-0.8733,-0.8776,-0.8758,-0.8432,-0.8448,-0.8316,-0.7964,-0.8106,-0.7967,-0.7344,-0.7424,-0.7363,-0.702,-0.7,-0.7,-0.7,-0.7,-0.7,-0.7,-0.6737,-0.6563,-0.6469,0.0,0.0,0.0,0.0,0.0,0.0,0.0,0.0,0.0,0.0,0.0,0.0,0.0,0.0,0.0,0.0,0.0,0.0,0.0,0.0,0.0,0.0,0.0,-0.6883,-0.6785,-0.7261,-0.854,-0.868,-0.9047,-1.0045,-1.0297,-1.0746,-1.1534,-1.1591,-1.1591,-1.1591,-1.1591,-1.1747,-1.2092,-1.2363,-1.2674,-1.2985,-1.3333,-1.3506,-1.3506,-1.3498,-1.3498,-1.3506,-1.3485,-1.3292,-1.3009,-1.2996,-1.2773,-1.2419,-1.2833,-1.276,-1.2462,-1.3202,-1.3271,-1.2987,-1.2987,-1.2987,-1.3039,-1.3352,-1.3476,-1.3417,-1.3099,-1.3194,-1.3408,-1.3095,-1.3198,-1.3476,-1.3476,-1.322,-1.2884,-1.2475,-1.2098,-1.1756,-1.1539,-1.1498,-1.1417,-1.1084,-1.1001,-1.0876,-1.047,-0.9712,-0.9056,-0.8779,-0.8948,-0.9029,-0.8836,-0.8676,0.0,-0.8433,-0.8524,-0.8394,-0.7882,-0.8182,-0.8125,-0.7393,-0.7443,-0.7377,-0.7033,-0.7003,-0.7,-0.7,-0.701,-0.7013,-0.6992,-0.674,-0.671,-0.6954,0.0,0.0,0.0,0.0,0.0,0.0,0.0,0.0,0.0,0.0,0.0,0.0,0.0,0.0,0.0,0.0,0.0,0.0,0.0,0.0,0.0,-0.7427,-0.7635,-0.7154,-0.7841,-0.8504,-0.8881,-0.9345,-0.987,-1.0547,-1.0657,-1.093,-1.1553,-1.1591,-1.1591,-1.1591,-1.1591,-1.1747,-1.2092,-1.2363,-1.2674,-1.2985,-1.3333,-1.3506,-1.3502,-1.3245,-1.3258,-1.3489,-1.2946,-1.28,-1.2992,-1.2704,-1.2488,-1.2402,-1.2509,-1.2488,-1.244,-1.2933,-1.289,-1.2552,-1.2552,-1.2552,-1.2569,-1.2663,-1.2697,-1.2684,-1.2586,-1.262,-1.268,-1.2582,-1.262,-1.2697,-1.2697,-1.2492,-1.2236,-1.2021,-1.1844,-1.1684,-1.1554,-1.1573,-1.1629,-1.1523,-1.108,-1.0669,-1.0577,-1.013,-0.9666,-0.9385,-0.918,-0.8935,-0.8702,-0.8704,-0.871,-0.8559,-0.8497,-0.8475,-0.8511,-0.8547,-0.8421,-0.8135,-0.7905,-0.7672,-0.7383,-0.7141,-0.7,-0.7,-0.7228,-0.7209,-0.6868,-0.6693,-0.6331,0.0,0.0,0.0,0.0,0.0,0.0,0.0,0.0,0.0,0.0,0.0,0.0,0.0,0.0,0.0,0.0,0.0,0.0,0.0,0.0,0.0,0.0,-0.8096,-0.8344,-0.8066,-0.8438,-0.8919,-0.9391,-0.9822,-1.0312,-1.088,-1.1044,-1.1225,-1.1366,-1.1514,-1.1533,-1.1397,-1.1518,-1.1685,-1.1875,-1.2182,-1.249,-1.2801,-1.2971,-1.3161,-1.3284,-1.2907,-1.2839,-1.3027,-1.259,-1.2432,-1.2488,-1.2261,-1.2072,-1.1962,-1.2094,-1.2068,-1.1978,0.0,0.0,0.0,0.0,-1.2162,-1.2179,-1.2338,-1.2389,-1.2363,-1.2209,-1.2265,-1.2391,-1.2264,-1.2347,-1.25,-1.2555,-1.234,-1.2079,-1.2,-1.1842,-1.1698,-1.1673,-1.1728,-1.1773,-1.1773,-1.1444,-1.1137,-1.1061,-1.0679,0.0,-0.9839,-0.9399,-0.8966,-0.8575,-0.8449,-0.842,-0.8443,-0.8374,-0.8378,-0.854,-0.853,-0.844,-0.8211,-0.7899,0.0,0.0,0.0,-0.6807,-0.6675,-0.6964,0.0,0.0,0.0,0.0,0.0,-0.5304,0.0,0.0,-0.5545,-0.4934,0.0,0.0,0.0,0.0,0.0,0.0,0.0,0.0,0.0,0.0,0.0,0.0,0.0,0.0,0.0,0.0,-0.8881,-0.9211,-0.9211,-0.8781,-0.8877,-0.9946,-1.0167,-1.0422,-1.0963,-1.1309,-1.136,-1.1074,-1.132,-1.1371,-1.1114,-1.1346,0.0,0.0,0.0,-1.2154,-1.2427,-1.2539,-1.268,-1.2936,-1.2569,-1.2401,-1.2385,-1.2303,-1.2107,-1.181,-1.1768,-1.1558,-1.1327,-1.1614,-1.1576,-1.1366,-1.2035,-1.2064,-1.1751,-1.1751,-1.1751,-1.1798,-1.2149,0.0,0.0,-1.1857,-1.2,-1.2232,-1.2008,-1.2165,-1.2484,-1.2616,-1.2431,-1.214,-1.214,-1.1961,-1.1773,-1.1877,-1.1898,-1.1927,-1.1927,-1.1898,-1.1852,-1.1753,-1.1288,-1.0723,-1.0119,-0.9589,-0.9044,-0.8486,-0.8162,-0.8032,-0.8221,-0.8245,-0.8221,-0.8275,-0.8371,0.0,-0.8018,-0.7713,-0.743,-0.7185,-0.6815,-0.6513,-0.6267,-0.644,-0.6285,-0.5746,-0.5768,-0.5838,-0.5975,-0.5468,-0.5553,-0.6183,-0.5541,-0.4923,0.0,0.0,0.0,0.0,0.0,0.0,0.0,0.0,0.0,0.0,0.0,0.0,0.0,0.0,0.0,-0.8677,-0.8984,-0.9211,-0.9211,-0.9097,-0.9261,-0.987,-1.0196,-1.0419,-1.0509,-1.0683,-1.0781,-1.0715,-1.077,-1.0891,-1.1092,-1.0913,-1.1048,-1.1577,-1.1673,-1.1829,-1.2089,-1.2701,-1.2837,-1.2528,-1.2426,0.0,-1.2372,-1.179,-1.1619,-1.1771,-1.1516,-1.1366,-1.1306,-1.1378,-1.1366,-1.1314,-1.146,-1.1473,-1.1409,-1.1409,-1.1409,-1.1417,-1.1494,-1.1511,-1.1503,-1.143,-1.1456,-1.1529,-1.1583,-1.1588,0.0,-1.1849,-1.1872,-1.1789,-1.1789,-1.1911,-1.2002,-1.1927,-1.1977,-1.2051,-1.2051,-1.1977,-1.1898,-1.1877,-1.1669,-1.1234,-1.032,-0.9714,-0.9146,-0.8484,-0.8448,-0.8471,-0.8524,-0.8424,-0.8454,-0.8672,-0.861,-0.8583,-0.8616,-0.8131,-0.7757,-0.7597,-0.6675,-0.6271,-0.6587,-0.6291,-0.5878,-0.5418,-0.5494,-0.5238,-0.459,-0.4621,-0.474,-0.4868,-0.5315,-0.5358,0.0,0.0,0.0,0.0,0.0,0.0,0.0,0.0,0.0,0.0,0.0,-0.7943,-0.7943,0.0,-0.8637,-0.8781,-0.8901,-0.8998,-0.8998,-0.8998,-0.9102,-0.9412,-0.9813,-1.0076,-1.0153,-1.0407,-1.0517,-1.0357,-1.0524,-1.0587,-1.0587,-1.0865,-1.1159,-1.1498,-1.1746,-1.1918,-1.195,-1.2255,-1.2217,-1.1898,-1.1878,-1.1848,-1.1846,-1.1469,-1.1404,-1.1546,-1.1378,-1.1297,-1.1297,-1.1297,-1.1297,-1.1297,-1.1297,-1.1297,-1.1297,-1.1297,-1.1297,-1.1297,-1.1297,-1.1297,-1.1297,-1.1297,-1.1297,-1.1326,-1.1448,-1.1448,-1.1448,-1.1723,-1.1798,-1.1823,-1.1877,-1.2002,-1.2076,-1.2026,-1.2047,-1.2101,-1.2101,-1.2051,-1.2002,-1.2002,-1.1728,-1.1238,-1.0448,-0.9862,-0.9279,-0.8603,-0.8497,-0.8497,-0.8497,-0.8448,-0.8427,-0.8487,-0.8427,-0.8398,-0.8354,-0.7863,-0.738,-0.697,-0.6414,-0.598,-0.5704,-0.5625,-0.532,-0.4763,-0.4818,-0.4669,-0.4294,-0.4273,-0.431,-0.4457,-0.507,-0.5197,0.0,0.0,0.0,0.0,0.0,0.0,0.0,-0.7107,-0.7194,-0.7514,-0.8017,-0.8399,-0.8399,-0.8614,-0.8808,-0.8808,-0.8808,-0.8808,-0.8808,-0.8808,-0.8831,-0.8959,-0.9331,-0.9613,-0.9742,-1.0136,-1.0263,-1.0027,-1.025,-1.0365,-1.0268,-1.086,-1.1308,-1.1547,-1.19,-1.2037,-1.1939,-1.1912,-1.179,-1.1568,-1.1596,-1.1523,-1.1423,-1.1423,-1.1372,-1.1297,-1.1297,-1.1297,-1.1297,-1.1297,-1.1297,-1.1297,-1.1297,-1.1297,-1.1297,-1.1297,-1.1297,-1.1297,-1.1297,-1.1297,-1.1297,-1.1297,-1.1297,-1.1326,-1.1448,-1.1473,-1.1523,-1.1803,-1.1852,-1.1902,-1.1997,-1.2051,-1.2101,-1.2076,-1.2076,-1.2101,-1.2076,-1.2051,-1.2026,-1.1873,-1.1494,-1.0981,-1.0295,-0.9814,-0.9302,-0.8702,-0.8527,-0.8454,-0.8398,-0.8424,-0.8398,-0.8245,-0.8245,-0.8143,-0.7906,-0.7428,-0.6871,-0.6233,-0.5985,-0.5504,-0.4699,-0.4853,-0.4707,-0.4173,-0.418,-0.4242,-0.4361,-0.4109,-0.4134,-0.4439,-0.4771,-0.4767,-0.9442,-0.944,-0.9281,-0.872,-0.8351,-0.8072,0.0,-0.7657,-0.7528,-0.7792,-0.8143,-0.8399,-0.8399,-0.8614,-0.8808,-0.8808,-0.8808,-0.8808,-0.8808,-0.8808,-0.8808,-0.8834,-0.8963,-0.9139,-0.9264,-0.9446,-0.9555,-0.9646,-0.9702,-1.0038,-1.077,-1.0626,-1.1003,-1.2085,-1.1885,-1.1853,-1.207,-1.2424,-1.2466,-1.2195,-1.249,-1.2343,-1.1823,-1.1823,-1.1648,-1.1297,-1.1297,-1.1297,-1.1297,-1.1297,-1.1297,-1.1297,-1.1297,-1.1297,-1.1297,-1.1297,-1.1297,-1.1297,-1.1297,-1.1297,-1.1297,-1.1297,-1.1297,-1.1326,-1.1448,-1.1423,-1.1372,-1.1653,-1.1723,-1.1728,-1.1748,-1.1927,-1.2076,-1.1947,-1.1997,-1.2076,-1.1952,-1.1927,-1.1723,-1.1057,-1.0905,-1.0519,-0.9517,-0.9286,-0.9103,-0.8653,-0.8692,-0.8669,-0.8424,-0.8497,-0.8524,-0.8398,-0.8371,-0.8243,-0.7917,-0.7304,-0.6715,-0.6221,-0.5255,-0.4637,-0.4523,-0.428,-0.4094,-0.4021,-0.4127,-0.4196,-0.4221,-0.4085,-0.4163,-0.4489,-0.4359,-0.4376,-0.9315,-0.9377,-0.9192,-0.837,-0.8124,-0.7959,-0.7531,-0.7337,-0.7354,-0.7714,-0.8055,-0.826,-0.8231,-0.8468,-0.8689,-0.8689,-0.8689,-0.8718,-0.8778,-0.8808,-0.8808,-0.8808,-0.886,-0.8959,-0.9185,-0.9312,-0.9462,-0.9588,-0.9902,-1.0222,-1.0601,-1.1116,-1.1608,-1.213,-1.2304,-1.2294,-1.2091,-1.2415,-1.2382,-1.1947,-1.1918,-1.1794,-1.1553,-1.1402,-1.1322,-1.1297,-1.1297,-1.1297,-1.1297,-1.1297,-1.1297,-1.1297,-1.1297,-1.1297,-1.1297,-1.1297,-1.1297,-1.1297,-1.1297,-1.1297,-1.1297,-1.1297,-1.1297,-1.1322,-1.1377,-1.1347,-1.1347,-1.1523,-1.1648,-1.1723,-1.1798,-1.1952,-1.2076,-1.1923,-1.1952,-1.1952,-1.1798,-1.1773,-1.1598,-1.093,-1.0541,-1.0101,-0.9338,-0.8949,-0.8662,-0.8398,-0.848,-0.8533,-0.8424,-0.8451,-0.8421,-0.8295,-0.8189,-0.7927,-0.7469,-0.7043,-0.6464,-0.5718,-0.541,-0.5057,-0.4637,-0.4662,-0.4611,-0.4415,-0.4262,-0.4243,-0.4314,-0.41,-0.4153,-0.4438,-0.4275,-0.4297,-0.9134,-0.9208,-0.8987,-0.8172,-0.8045,-0.7936,-0.7229,-0.7112,-0.7218,-0.74,-0.773,-0.7983,-0.7955,-0.8278,-0.855,-0.855,-0.8573,-0.8629,-0.8718,-0.8778,-0.8808,-0.8808,-0.8808,-0.888,-0.911,-0.9263,-0.9413,-0.9536,-1.0087,-1.045,-1.06,-1.1565,-1.218,-1.2328,-1.2705,-1.27,-1.2328,-1.25,-1.2426,-1.2076,-1.1719,-1.1519,-1.1448,-1.0998,-1.0896,-1.1074,-1.1074,-1.1124,-1.12,-1.12,-1.1221,-1.1297,-1.1297,-1.1297,-1.1297,-1.1297,-1.1297,-1.1297,-1.1297,-1.1297,-1.1297,-1.1297,-1.1297,-1.1297,-1.1297,-1.1326,-1.1372,-1.1473,-1.1623,-1.1778,-1.1828,-1.1972,-1.2076,-1.1923,-1.1927,-1.1927,-1.1773,-1.1648,-1.1343,-1.0694,-1.0153,-0.9588,-0.9024,-0.861,-0.8295,-0.8141,-0.8192,-0.8268,-0.8268,-0.8268,-0.8215,-0.8138,-0.7981,-0.7738,-0.7357,-0.7008,-0.6512,-0.5798,-0.5657,-0.5363,-0.4783,-0.4855,-0.4818,-0.4568,-0.4368,-0.4324,-0.4421,-0.4176,-0.4182,-0.443,-0.4263,-0.4297,-0.8911,-0.8968,-0.8834,-0.848,-0.8427,-0.8251,-0.7402,-0.7293,-0.7269,-0.6816,-0.7147,-0.7524,-0.7524,-0.7999,-0.8398,-0.8398,-0.8524,-0.86,-0.86,-0.8718,-0.8808,-0.8808,-0.8808,-0.8857,-0.8982,-0.9136,-0.926,-0.9387,-1.001,-1.0629,-1.1154,-1.1769,-1.2352,-1.2856,-1.2881,-1.2881,-1.2881,-1.2881,-1.2929,-1.3056,-1.2466,-1.2062,-1.1848,-1.0922,-1.0522,-1.0522,-1.0522,-1.0667,-1.0922,-1.0922,-1.1074,-1.1297,-1.1297,-1.1297,-1.1297,-1.1297,-1.1297,-1.1297,-1.1297,-1.1297,-1.1297,-1.1297,-1.1297,-1.1297,-1.1297,-1.1398,-1.1498,-1.1498,-1.1698,-1.1852,-1.1748,-1.1902,-1.2076,-1.1923,-1.2002,-1.2051,-1.1927,-1.1502,-1.0909,-1.0174,-0.9592,-0.9001,-0.8351,-0.8218,-0.8141,-0.7928,-0.7901,-0.7925,-0.7925,-0.7925,-0.7925,-0.7901,-0.7901,-0.7901,-0.7875,-0.7402,-0.7027,-0.6868,-0.5756,-0.5053,-0.4905,-0.4466,-0.4238,-0.4208,-0.4402,-0.4503,-0.4503,-0.4282,-0.4287,-0.4479,-0.4286,-0.4297,-0.8574,-0.8582,-0.8459,-0.8044,-0.7957,-0.785,-0.7426,-0.737,-0.7416,-0.7478,-0.7681,-0.7841,-0.7841,-0.8069,-0.8271,-0.8271,-0.8295,-0.8374,-0.8448,-0.858,-0.8659,-0.8659,-0.8748,-0.8808,-0.8857,-0.8985,-0.9159,-0.9387,-1.0273,-1.0914,-1.12,-1.2121,-1.27,-1.2881,-1.2905,-1.2905,-1.2905,-1.2905,-1.2929,-1.2954,-1.1988,-1.1234,-1.0633,-1.0543,-1.0594,-1.0769,-1.0943,-1.1074,-1.1175,-1.1175,-1.1221,-1.1297,-1.1297,-1.1297,-1.1297,-1.1297,-1.1297,-1.1297,-1.1297,-1.1297,-1.1297,-1.1297,-1.1297,-1.1297,-1.1297,-1.1322,-1.1377,-1.1377,-1.1548,-1.1748,-1.1698,-1.1902,-1.2076,-1.1923,-1.1923,-1.1823,-1.1347,-1.1095,-1.0663,-0.9669,-0.9312,-0.9028,-0.8427,-0.8271,-0.8141,-0.7928,-0.7901,-0.7901,-0.7901,-0.7901,-0.7901,-0.7901,-0.7901,-0.7765,-0.741,-0.6837,-0.6315,-0.5864,-0.5455,-0.5137,-0.4914,-0.4917,-0.4847,-0.4662,-0.4548,-0.4489,-0.4489,-0.4441,-0.4443,-0.4487,-0.444,-0.4443,-0.8332,-0.8332,-0.8201,-0.8002,-0.794,-0.7878,-0.7566,-0.7458,-0.7416,-0.7471,-0.7529,-0.7573,-0.7573,-0.7715,-0.7879,-0.7975,-0.8019,-0.8109,-0.8309,-0.8448,-0.855,-0.86,-0.8689,-0.8748,-0.8808,-0.8883,-0.9008,-0.9237,-1.0167,-1.0745,-1.0838,-1.1963,-1.2603,-1.2603,-1.2803,-1.2905,-1.2905,-1.2905,-1.2705,-1.2269,-1.136,-1.0549,-0.9862,-1.018,-1.0411,-1.059,-1.0896,-1.1074,-1.1146,-1.1146,-1.1221,-1.1297,-1.1297,-1.1297,-1.1297,-1.1297,-1.1297,-1.1297,-1.1297,-1.1297,-1.1297,-1.1297,-1.1297,-1.1297,-1.1297,-1.1322,-1.1372,-1.1372,-1.1523,-1.1698,-1.1698,-1.1828,-1.1952,-1.1852,-1.1669,-1.1393,-1.0964,-1.0557,-1.0069,-0.9338,-0.9054,-0.8794,-0.8401,-0.8192,-0.8062,-0.7928,-0.7901,-0.7901,-0.7901,-0.7901,-0.7901,-0.7901,-0.7901,-0.7681,-0.7139,-0.6756,-0.6263,-0.5662,-0.5414,-0.5229,-0.5037,-0.5031,-0.493,-0.4773,-0.4576,-0.4489,-0.4489,-0.4489,-0.4489,-0.4489,-0.4489,-0.4489,-0.818,-0.8176,-0.8041,-0.8308,-0.8356,-0.825,-0.7816,-0.7562,-0.7286,-0.6852,-0.6784,-0.6805,-0.6805,-0.7033,-0.7306,-0.7555,-0.7718,-0.7899,-0.8161,-0.8295,-0.8448,-0.8573,-0.86,-0.8659,-0.8778,-0.8808,-0.8857,-0.8985,-0.9736,-1.0188,-1.0188,-1.1401,-1.2101,-1.2101,-1.2627,-1.2905,-1.2905,-1.2876,-1.2294,-1.115,-1.0651,-1.0113,-0.9614,-0.9888,-0.9999,-1.0025,-1.0338,-1.0645,-1.0896,-1.0896,-1.1074,-1.1297,-1.1297,-1.1297,-1.1297,-1.1297,-1.1297,-1.1297,-1.1297,-1.1297,-1.1297,-1.1297,-1.1297,-1.1297,-1.1297,-1.1402,-1.1502,-1.1502,-1.1603,-1.1703,-1.1703,-1.1698,-1.1698,-1.1648,-1.1213,-1.0778,-1.0727,-0.9906,-0.9185,-0.9159,-0.8738,-0.8345,-0.8221,-0.8035,-0.7901,-0.7901,-0.7901,-0.7901,-0.7901,-0.7901,-0.7901,-0.7901,-0.7875,-0.7655,-0.7139,-0.7055,-0.6753,-0.6179,-0.558,-0.5252,-0.5252,-0.4761,-0.4489,-0.4489,-0.4489,-0.4489,-0.4489,-0.4489,-0.4489,-0.4489,-0.4489,-0.4489,-0.7586,-0.7669,-0.7669,-0.7833,-0.7878,-0.7874,-0.7925,-0.7693,-0.7506,-0.7576,-0.728,-0.7035,-0.7035,-0.7203,-0.7374,-0.744,-0.7696,-0.7906,-0.7972,-0.8141,-0.8295,-0.8448,-0.855,-0.8659,-0.8778,-0.8808,-0.8804,-0.886,-0.9588,-1.009,-1.0188,-1.1401,-1.2101,-1.2101,-1.2627,-1.2905,-1.2905,-1.2505,-1.1719,-1.0604,-1.048,-1.0113,-0.9614,-0.9888,-0.9999,-1.0025,-1.0338,-1.0645,-1.0896,-1.0896,-1.1074,-1.1297,-1.1297,-1.1297,-1.1297,-1.1297,-1.1297,-1.1297,-1.1297,-1.1297,-1.1297,-1.1297,-1.1297,-1.1297,-1.1297,-1.1322,-1.1347,-1.1347,-1.1452,-1.1548,-1.1548,-1.1628,-1.1598,-1.1137,-1.0905,-1.0574,-0.9777,-0.9391,-0.908,-0.8685,-0.8501,-0.8345,-0.8221,-0.8165,-0.8062,-0.7928,-0.7901,-0.7901,-0.7901,-0.7901,-0.7901,-0.7901,-0.7547,-0.7246,-0.7112,-0.629,-0.5689,-0.5525,-0.5007,-0.4708,-0.4708,-0.4572,-0.4489,-0.4489,-0.4489,-0.4489,-0.4489,-0.4489,-0.4489,-0.4489,-0.4489,-0.4489,-0.7077,-0.7245,-0.7311,-0.7625,-0.7694,-0.7691,-0.7659,-0.743,-0.7241,-0.7248,-0.6906,-0.6617,-0.6617,-0.6844,-0.7094,-0.7215,-0.7525,-0.779,-0.7886,-0.8008,-0.8141,-0.8295,-0.8371,-0.8501,-0.8692,-0.8718,-0.8748,-0.8808,-0.9338,-0.9688,-0.9762,-1.0707,-1.1301,-1.1339,-1.183,-1.2078,-1.2141,-1.1615,-1.1036,-1.0403,-1.0164,-0.9902,-0.9614,-0.9888,-0.9999,-1.0025,-1.0338,-1.0598,-1.0718,-1.0845,-1.0998,-1.115,-1.1247,-1.1297,-1.1297,-1.1297,-1.1297,-1.1297,-1.1297,-1.1297,-1.1297,-1.1297,-1.1297,-1.1297,-1.1297,-1.1297,-1.1297,-1.1297,-1.1347,-1.1347,-1.1091,-1.1061,-1.0981,-1.0413,-1.0101,-0.9762,-0.9148,-0.8817,-0.853,-0.8242,-0.8189,-0.8162,-0.8088,-0.8058,-0.8035,-0.7928,-0.7901,-0.7901,-0.7901,-0.7901,-0.7818,-0.7574,-0.7276,-0.6893,-0.6347,-0.5687,-0.5199,-0.4952,-0.4653,-0.4489,-0.4489,-0.4489,-0.4489,-0.4489,-0.4489,-0.4489,-0.4489,-0.4489,-0.4489,-0.4489,-0.4489,-0.4489,-0.661,-0.6803,-0.6933,-0.7433,-0.7566,-0.7503,-0.7188,-0.6956,-0.6723,-0.6432,-0.615,-0.5957,-0.5957,-0.6285,-0.6631,-0.69,-0.7304,-0.7638,-0.7836,-0.7901,-0.7981,-0.8168,-0.8195,-0.8295,-0.855,-0.8603,-0.8659,-0.8778,-0.9031,-0.9185,-0.9185,-0.9817,-1.0273,-1.0472,-1.0825,-1.1028,-1.1103,-1.0625,-1.0374,-1.0297,-0.9825,-0.9588,-0.9614,-0.9836,-0.9943,-0.9973,-1.0257,-1.0411,-1.0441,-1.0693,-1.082,-1.0922,-1.1146,-1.1276,-1.1297,-1.1297,-1.1297,-1.1297,-1.1297,-1.1297,-1.1297,-1.1297,-1.1297,-1.1297,-1.1297,-1.1297,-1.1297,-1.1297,-1.1297,-1.1171,-1.0557,-1.0403,-1.0245,-0.964,-0.9141,-0.8774,-0.8699,-0.8262,-0.7901,-0.7901,-0.7901,-0.7901,-0.7901,-0.7901,-0.7901,-0.7901,-0.7848,-0.7794,-0.7794,-0.7794,-0.7628,-0.7139,-0.6947,-0.6428,-0.5389,-0.5226,-0.5009,-0.4517,-0.4489,-0.4489,-0.4489,-0.4434,-0.4377,-0.4377,-0.4377,-0.4377,-0.4377,-0.4377,-0.4377,-0.4377,-0.4294,-0.4267,-0.6111,-0.6328,-0.6413,-0.6789,-0.6877,-0.6852,-0.6792,-0.6541,-0.631,-0.6252,-0.5976,-0.5742,-0.5742,-0.6027,-0.6363,-0.6636,-0.7105,-0.7516,-0.7717,-0.7842,-0.7981,-0.8168,-0.8195,-0.8271,-0.8421,-0.8524,-0.86,-0.8629,-0.8873,-0.9035,-0.9035,-0.9662,-1.0295,-1.0872,-1.0965,-1.0855,-1.0553,-1.0454,-1.019,-0.9744,-0.964,-0.9588,-0.9614,-0.9644,-0.9669,-0.9669,-0.9721,-0.9884,-1.0102,-1.0128,-1.0462,-1.0896,-1.0943,-1.1099,-1.1297,-1.1297,-1.1297,-1.1297,-1.1297,-1.1297,-1.1297,-1.1297,-1.1297,-1.1297,-1.1297,-1.1297,-1.1297,-1.1297,-1.1297,-1.1171,-1.0557,-1.0403,-1.0138,-0.9168,-0.8879,-0.8672,-0.8159,-0.7978,-0.7901,-0.7901,-0.7901,-0.7901,-0.7901,-0.7901,-0.7901,-0.7901,-0.7518,-0.7249,-0.7249,-0.7249,-0.7192,-0.7112,-0.6209,-0.5525,-0.5306,-0.4899,-0.46,-0.4517,-0.4489,-0.4489,-0.4489,-0.4015,-0.3764,-0.3764,-0.3764,-0.3764,-0.3764,-0.3764,-0.3764,-0.3737,-0.3236,-0.3014,-0.5445,-0.562,-0.5747,-0.6212,-0.6422,-0.6444,-0.6276,-0.6221,-0.6163,-0.5973,-0.5806,-0.5701,-0.5701,-0.5965,-0.6162,-0.6055,-0.6542,-0.6867,-0.6744,-0.7164,-0.7518,-0.7625,-0.7869,-0.8115,-0.8271,-0.8345,-0.8451,-0.8603,-0.8709,-0.8847,-0.8982,-0.9361,-0.9736,-1.0038,-1.0137,-1.0119,-0.9984,-0.9984,-0.9847,-0.9588,-0.9588,-0.9588,-0.9588,-0.9588,-0.9588,-0.9588,-0.9588,-0.9669,-0.9807,-0.9943,-1.0176,-1.0462,-1.0616,-1.0871,-1.1095,-1.1095,-1.1171,-1.1297,-1.1297,-1.1297,-1.1297,-1.1297,-1.1297,-1.1297,-1.1297,-1.1297,-1.1221,-1.0913,-1.0837,-1.0629,-0.9795,-0.9562,-0.9354,-0.8521,-0.8338,-0.8262,-0.7952,-0.7901,-0.7901,-0.7901,-0.7901,-0.7901,-0.7901,-0.7901,-0.7818,-0.7518,-0.7273,-0.6974,-0.6674,-0.6372,-0.6154,-0.6154,-0.5632,-0.5199,-0.4899,-0.4653,-0.4489,-0.4489,-0.4489,-0.4489,-0.4489,-0.3932,-0.3598,-0.3598,-0.3292,-0.3125,-0.3125,-0.3125,-0.3125,-0.3125,-0.2847,-0.2708,-0.4838,-0.499,-0.5118,-0.5658,-0.5913,-0.5956,-0.5747,-0.586,-0.5949,-0.5742,-0.5701,-0.5701,-0.5701,-0.583,-0.5844,-0.5537,-0.5883,-0.6092,-0.5823,-0.6401,-0.6918,-0.7082,-0.7467,-0.7845,-0.8115,-0.8168,-0.8295,-0.855,-0.8603,-0.8742,-0.8956,-0.9057,-0.9136,-0.9159,-0.926,-0.9387,-0.9562,-0.9562,-0.9562,-0.9588,-0.9588,-0.9588,-0.9588,-0.9588,-0.9588,-0.9588,-0.9588,-0.9588,-0.9618,-0.9832,-0.9943,-1.0025,-1.0283,-1.0569,-1.082,-1.0871,-1.1019,-1.1196,-1.112,-1.112,-1.1091,-1.0964,-1.1011,-1.112,-1.112,-1.104,-1.0833,-1.037,-1.0241,-1.001,-0.9037,-0.8801,-0.8649,-0.8032,-0.7901,-0.7901,-0.7901,-0.7901,-0.7901,-0.7901,-0.7901,-0.7901,-0.7901,-0.7818,-0.7574,-0.7166,-0.6891,-0.6534,-0.607,-0.5498,-0.5115,-0.5115,-0.5115,-0.4954,-0.4544,-0.4489,-0.4489,-0.4489,-0.4377,-0.4294,-0.4294,-0.3598,-0.3209,-0.3209,-0.2735,-0.2514,-0.2514,-0.2514,-0.2514,-0.2514,-0.2375,-0.2319,-0.4487,-0.4639,-0.4707,-0.5024,-0.5116,-0.5157,-0.5306,-0.5374,-0.5439,-0.5658,-0.5701,-0.5701,-0.5701,-0.5382,-0.5207,-0.5466,-0.5289,-0.5288,-0.575,-0.5973,-0.6337,-0.7025,-0.7139,-0.7383,-0.7872,-0.8088,-0.8271,-0.8398,-0.8639,-0.8781,-0.8804,-0.8831,-0.888,-0.9008,-0.9031,-0.9159,-0.9409,-0.9413,-0.9488,-0.9588,-0.9588,-0.9588,-0.9588,-0.9588,-0.9588,-0.9588,-0.9588,-0.9588,-0.9614,-0.964,-0.9777,-0.9999,-1.0025,-1.0261,-1.0573,-1.082,-1.0922,-1.0896,-1.0582,-1.0476,-1.0399,-0.9928,-1.0083,-1.0476,-1.0476,-1.0135,-0.9744,-0.9692,-0.9666,-0.9532,-0.8958,-0.8801,-0.8649,-0.8032,-0.7901,-0.7901,-0.7901,-0.7901,-0.7901,-0.7901,-0.7901,-0.7901,-0.7901,-0.7491,-0.7166,-0.7112,-0.6154,-0.5443,-0.5389,-0.4899,-0.4572,-0.4572,-0.4572,-0.4544,-0.4517,-0.4489,-0.4489,-0.4489,-0.3989,-0.3681,-0.3681,-0.2569,-0.1957,-0.1957,-0.1902,-0.1874,-0.1874,-0.1874,-0.1874,-0.1873,-0.1316,-0.1065,-0.3939,-0.4049,-0.4136,-0.4495,-0.4786,-0.4941,-0.4738,-0.4908,-0.506,-0.4886,-0.4867,-0.4867,-0.4867,-0.4709,-0.455,-0.4432,-0.4433,-0.4456,-0.4483,-0.5032,-0.5566,-0.5859,-0.6287,-0.6789,-0.7368,-0.7491,-0.7783,-0.8368,-0.8583,-0.8718,-0.8808,-0.8808,-0.8857,-0.9008,-0.9008,-0.9084,-0.9286,-0.9286,-0.9338,-0.9488,-0.9488,-0.9514,-0.9588,-0.9588,-0.9588,-0.9588,-0.9588,-0.9588,-0.9588,-0.9588,-0.9666,-0.9725,-0.9498,-0.958,-0.9832,-0.9692,-0.9799,-0.9984,-0.9855,-0.9851,-0.9873,-0.9666,-0.9536,-0.951,-0.9825,-0.9773,-0.9536,-0.9223,-0.9115,-0.8988,-0.8418,-0.8262,-0.8185,-0.7952,-0.7901,-0.7901,-0.7901,-0.7901,-0.7901,-0.7901,-0.7901,-0.7794,-0.7467,-0.7246,-0.6864,-0.6127,-0.5607,-0.5169,-0.4871,-0.4627,-0.4489,-0.4489,-0.4489,-0.4489,-0.4489,-0.4489,-0.4489,-0.4489,-0.3932,-0.3598,-0.3598,-0.243,-0.179,-0.179,-0.1456,-0.1233,-0.1148,-0.1148,-0.1064,-0.0952,-0.0701,-0.0589,-0.3486,-0.3557,-0.3622,-0.3935,-0.427,-0.4456,-0.4184,-0.4401,-0.4598,-0.436,-0.4296,-0.4296,-0.4296,-0.4184,-0.4017,-0.3741,-0.3767,-0.3788,-0.3623,-0.4278,-0.4873,-0.5117,-0.5632,-0.6257,-0.7086,-0.7315,-0.7702,-0.8345,-0.8524,-0.8659,-0.8781,-0.8808,-0.8831,-0.8933,-0.8933,-0.9008,-0.9136,-0.9136,-0.9211,-0.9338,-0.9387,-0.9439,-0.954,-0.9588,-0.9588,-0.9588,-0.9588,-0.9588,-0.9588,-0.9462,-0.9413,-0.9387,-0.8979,-0.8949,-0.9073,-0.8883,-0.8988,-0.9227,-0.9175,-0.9227,-0.9276,-0.9148,-0.8834,-0.8596,-0.8991,-0.9096,-0.9017,-0.8649,-0.8547,-0.8441,-0.8005,-0.7901,-0.7901,-0.7901,-0.7901,-0.7901,-0.7901,-0.7901,-0.7901,-0.7901,-0.7765,-0.7547,-0.7166,-0.681,-0.629,-0.5416,-0.5169,-0.4924,-0.4544,-0.4489,-0.4434,-0.4267,-0.4239,-0.4294,-0.4489,-0.4324,-0.4239,-0.4239,-0.3487,-0.307,-0.307,-0.2041,-0.1483,-0.1483,-0.1009,-0.0701,-0.0617,-0.0617,-0.0533,-0.0393,-0.0393,-0.0393,-0.3194,-0.325,-0.3225,-0.3289,-0.3364,-0.3462,-0.3654,-0.3812,-0.399,-0.4252,-0.4296,-0.4296,-0.4296,-0.3917,-0.3634,-0.3695,-0.343,-0.3312,-0.3572,-0.3832,-0.4336,-0.5193,-0.5308,-0.5823,-0.7159,-0.7849,-0.8245,-0.8398,-0.8524,-0.8659,-0.8781,-0.8808,-0.8808,-0.8808,-0.8808,-0.8857,-0.9008,-0.9008,-0.9061,-0.9211,-0.9335,-0.9413,-0.9413,-0.9536,-0.9588,-0.9588,-0.9588,-0.9588,-0.9566,-0.9159,-0.9012,-0.8956,-0.8557,-0.8398,-0.8448,-0.8702,-0.8801,-0.8778,-0.8649,-0.86,-0.8524,-0.8058,-0.7925,-0.7901,-0.7928,-0.7928,-0.7928,-0.7901,-0.7901,-0.7901,-0.7901,-0.7901,-0.7901,-0.7901,-0.7901,-0.7901,-0.7901,-0.7901,-0.7901,-0.7901,-0.7467,-0.7112,-0.7112,-0.6098,-0.5306,-0.5306,-0.4844,-0.4517,-0.4489,-0.4489,-0.4267,-0.3681,-0.3598,-0.3849,-0.4462,-0.3959,-0.3598,-0.3598,-0.2486,-0.1818,-0.1818,-0.1092,-0.0701,-0.0701,-0.0505,-0.0393,-0.0393,-0.0393,-0.0393,-0.0393,-0.0393,-0.0393,-0.2971,-0.3046,-0.3075,-0.3409,-0.3633,-0.3682,-0.3413,-0.3544,-0.3634,-0.3396,-0.3353,-0.3353,-0.3353,-0.3219,-0.3208,-0.3466,-0.3395,-0.3441,-0.3756,-0.3981,-0.4238,-0.4524,-0.4988,-0.5637,-0.6469,-0.7095,-0.7678,-0.8218,-0.8398,-0.8527,-0.8659,-0.8748,-0.8808,-0.8808,-0.8808,-0.8834,-0.8857,-0.8857,-0.8933,-0.9061,-0.911,-0.9211,-0.9413,-0.9439,-0.951,-0.9588,-0.9588,-0.9439,-0.9185,-0.9057,-0.8847,-0.8557,-0.8099,-0.7913,-0.791,-0.772,-0.7699,-0.7785,-0.7836,-0.791,-0.7966,-0.7925,-0.7901,-0.7901,-0.7901,-0.7901,-0.7901,-0.7901,-0.7901,-0.7901,-0.7901,-0.7901,-0.7901,-0.7901,-0.7901,-0.7901,-0.7901,-0.7901,-0.7794,-0.741,-0.7219,-0.6837,-0.6016,-0.555,-0.5169,-0.4816,-0.4598,-0.4489,-0.4489,-0.4489,-0.4267,-0.3653,-0.3598,-0.3515,-0.3292,-0.3013,-0.2845,-0.2845,-0.1983,-0.1454,-0.1454,-0.084,-0.0505,-0.0505,-0.0421,-0.0364,-0.0252,-0.0252,-0.0224,-0.014,-0.014,-0.014,-0.2461,-0.24,-0.2381,-0.3057,-0.3209,-0.3146,-0.3038,-0.3171,-0.326,-0.2955,-0.289,-0.289,-0.289,-0.2928,-0.3009,-0.3207,-0.3381,-0.3547,-0.377,-0.4032,-0.4227,-0.427,-0.4942,-0.5522,-0.5834,-0.6618,-0.73,-0.7812,-0.8185,-0.8448,-0.86,-0.8718,-0.8808,-0.8808,-0.8808,-0.8808,-0.8808,-0.8808,-0.8831,-0.8933,-0.8982,-0.9087,-0.9237,-0.9204,-0.9223,-0.9302,-0.9201,-0.8998,0.0,-0.858,-0.8368,-0.8099,-0.7643,-0.7485,-0.7432,-0.719,-0.7141,-0.7255,-0.7389,-0.7467,-0.7571,-0.7762,-0.7872,-0.7901,-0.7901,-0.7901,-0.7901,-0.7901,-0.7901,-0.7901,-0.7901,-0.7901,-0.7901,-0.7901,-0.7901,-0.7901,-0.7901,-0.7901,-0.7738,-0.7192,-0.692,-0.6453,-0.5471,-0.5142,-0.4899,-0.4544,-0.4489,-0.4406,-0.4182,-0.4156,-0.382,-0.293,-0.2846,-0.2567,-0.19,-0.2039,-0.2122,-0.2038,-0.137,-0.0951,-0.0951,-0.056,-0.0336,-0.0336,-0.028,-0.0196,-0.0112,-0.0112,0.0028,0.0336,0.0112,0.0252,0.0,-0.1477,-0.1333,-0.2276,-0.2232,-0.2078,-0.255,-0.2754,0.0,-0.289,-0.289,-0.2893,-0.2901,-0.2949,-0.3009,-0.3035,-0.3367,-0.3617,-0.3607,-0.3968,-0.4241,-0.4366,-0.5072,-0.5466,-0.5295,-0.6315,-0.7052,-0.7262,-0.7937,-0.8395,-0.8573,-0.8718,-0.8778,-0.8808,-0.8808,-0.8808,-0.8808,-0.8808,-0.8808,-0.8808,-0.8936,-0.8956,-0.8926,-0.8804,-0.8748,-0.8722,-0.8468,-0.8368,-0.8315,-0.7883,-0.767,-0.7616,-0.7244,-0.7112,-0.7112,-0.7112,-0.7112,-0.7112,-0.7257,-0.7287,-0.7341,-0.7595,-0.7759,-0.7875,-0.7872,-0.7901,-0.7901,-0.7901,-0.7901,-0.7901,-0.7901,-0.7901,-0.7901,-0.7901,-0.7901,-0.7901,-0.7901,-0.7875,-0.7681,-0.7139,-0.6537,-0.5934,-0.5334,-0.4816,-0.4489,-0.4489,-0.4489,-0.4265,-0.3653,-0.357,-0.3069,-0.1733,-0.1566,-0.1259,-0.0448,-0.1064,-0.1426,-0.123,-0.07,-0.0364,-0.0364,-0.0252,-0.0196,-0.0196,-0.0056,0.0,0.0,0.0056,0.0364,0.0897,0.0364,0.0728,-0.0861,0.0,-0.1325,-0.1609,-0.1601,-0.1655,0.0,-0.2257,-0.2414,-0.2822,-0.289,-0.2917,-0.2965,-0.2982,-0.3091,-0.3414,-0.353,-0.3646,-0.3796,-0.4032,-0.4226,-0.4229,-0.4545,-0.4858,-0.5113,-0.5494,-0.6125,-0.7079,-0.7402,-0.783,-0.8421,-0.858,-0.8689,-0.8808,-0.8808,-0.8808,-0.8808,-0.8808,-0.8808,-0.8808,-0.8831,-0.8659,-0.8319,-0.829,-0.8214,-0.8111,-0.8034,-0.796,-0.786,-0.775,-0.7509,-0.7246,-0.7139,-0.7112,-0.7112,-0.7112,-0.7112,-0.7112,-0.7257,-0.7287,-0.7314,-0.7491,-0.7574,-0.7601,-0.7702,-0.7812,-0.7901,-0.7901,-0.7901,-0.7901,-0.7901,-0.7901,-0.7901,-0.7901,-0.7901,-0.7901,-0.7901,-0.7574,-0.7109,-0.6537,-0.5934,-0.5336,-0.4791,-0.4572,-0.4489,-0.4489,-0.4489,-0.4237,-0.3456,-0.3372,-0.2843,-0.1509,-0.137,-0.1063,-0.0308,-0.042,-0.0504,-0.0448,-0.0224,-0.0084,-0.0084,-0.0056,-0.0056,-0.0056,-0.0028,0.0,0.0,0.0477,0.0757,0.0897,0.1232,0.1539,-0.0314,-0.0546,-0.0807,-0.1291,-0.1244,-0.1198,-0.1679,-0.1769,-0.1923,-0.2438,-0.2372,-0.2382,-0.2908,-0.2656,-0.2606,-0.3378,-0.3366,-0.3446,-0.3895,-0.4036,-0.4119,-0.4096,-0.4245,-0.4436,-0.4677,-0.506,-0.5687,-0.6618,-0.7074,-0.7589,-0.8265,-0.8497,-0.8629,-0.8718,-0.8778,-0.8808,-0.8808,-0.8808,-0.8669,-0.8391,-0.8391,-0.8123,-0.7631,-0.7495,-0.7361,-0.731,-0.734,-0.7316,-0.7241,-0.7375,-0.7295,-0.7112,-0.7112,-0.7112,-0.7112,-0.7112,-0.7112,-0.7112,-0.7171,-0.7257,-0.7314,-0.7392,-0.7443,-0.7518,-0.7595,-0.7652,-0.7738,-0.7875,-0.7901,-0.7901,-0.7901,-0.7901,-0.7901,-0.7901,-0.7901,-0.7821,-0.7574,-0.7303,-0.6837,-0.5962,-0.5525,-0.5089,-0.4465,-0.4356,-0.4328,-0.4272,-0.4047,-0.3601,-0.2875,-0.2566,-0.1981,-0.0895,-0.0784,-0.0616,-0.014,-0.0112,-0.0112,-0.0112,-0.0028,0.0,0.0,0.0,0.0,0.0,0.0,0.014,0.0421,0.0729,0.1177,0.1734,0.179,0.2097,0.0,0.0,-0.0192,-0.0994,-0.0877,-0.0713,-0.1181,0.0,0.0,0.0,0.0,-0.1694,-0.2622,-0.2128,-0.1951,-0.2981,-0.3006,-0.3117,-0.3873,-0.3961,-0.3979,-0.3981,-0.4079,-0.4166,-0.4166,-0.4765,-0.5418,-0.6152,-0.6775,-0.7453,-0.8168,-0.8338,-0.8412,-0.8438,-0.8451,-0.848,-0.851,-0.8616,-0.8395,-0.7898,-0.7821,-0.7503,-0.6947,-0.6672,-0.651,-0.6485,-0.6542,-0.6623,-0.6731,-0.6947,-0.7058,-0.7112,-0.7112,-0.7112,-0.7112,-0.7112,-0.7112,-0.7112,-0.7112,-0.7171,-0.726,-0.726,-0.7335,-0.744,-0.7467,-0.747,-0.7521,-0.7765,-0.7848,-0.7872,-0.7901,-0.7901,-0.7875,-0.7794,-0.7765,-0.7628,-0.7082,-0.6893,-0.651,-0.5471,-0.5197,-0.4926,-0.4275,-0.4166,-0.4109,-0.3882,-0.3437,-0.2851,-0.2126,-0.1593,-0.0979,-0.0252,-0.0168,-0.0112,0.0,0.0,0.0,0.0,0.0,0.0,0.0,0.0,0.0056,0.014,0.014,0.042,0.1037,0.1121,0.1706,0.2681,0.2265,0.2629,0.0,0.0,-0.0025,-0.0185,-0.0163,-0.0236,-0.0706,-0.0809,0.0,0.0,-0.1451,-0.148,-0.1757,-0.1696,-0.1705,-0.1988,-0.2433,-0.2982,-0.3713,-0.3827,-0.3819,-0.3827,-0.3938,-0.4024,-0.4024,-0.4245,-0.4875,-0.6098,-0.6315,-0.6912,-0.8141,-0.7753,-0.7551,-0.7655,-0.7203,-0.7017,-0.7176,-0.7768,-0.7981,-0.7898,-0.7453,-0.6915,-0.6344,-0.629,-0.6134,-0.5927,-0.5927,-0.6223,-0.6704,-0.6758,-0.6893,-0.7112,-0.7112,-0.7112,-0.7112,-0.7112,-0.7112,-0.7112,-0.7112,-0.7112,-0.7141,-0.7141,-0.7139,-0.7192,-0.7308,-0.7338,-0.7365,-0.7521,-0.7649,-0.7756,-0.7872,-0.7901,-0.7791,-0.7327,-0.7219,-0.7058,-0.6453,-0.5934,-0.5496,-0.5191,-0.4706,-0.4301,-0.4078,-0.4024,-0.3856,-0.3326,-0.3158,-0.2654,-0.1425,-0.1202,-0.0839,-0.0112,-0.0028,-0.0028,0.0,0.0,0.0,0.0,0.0,0.0,0.0,0.0,0.0252,0.0757,0.0757,0.1065,0.1651,0.218,0.2514,0.2708,0.3132,0.3416,0.0069,0.019,0.0315,0.007,0.0,-0.005,-0.0273,-0.0315,-0.0454,-0.0932,-0.0826,-0.0846,-0.1492,-0.1129,-0.0968,-0.1697,-0.2319,-0.2932,-0.3606,-0.369,-0.369,-0.369,-0.3799,-0.391,-0.3995,-0.4109,-0.4631,-0.5635,-0.6016,-0.6615,-0.7542,-0.7402,-0.734,-0.7391,-0.688,-0.6642,-0.6748,-0.6829,-0.691,-0.6985,-0.6721,-0.6295,-0.5727,-0.5727,-0.565,-0.5546,-0.5713,-0.5957,-0.625,-0.6569,-0.6785,-0.6893,-0.7055,-0.7112,-0.7112,-0.7112,-0.7112,-0.7112,-0.7112,-0.7112,-0.7112,-0.7112,-0.7112,-0.7112,-0.7171,-0.7198,-0.7225,-0.7362,-0.7494,-0.7542,-0.727,-0.719,-0.7055,-0.6537,-0.645,-0.6312,-0.5635,-0.5332,-0.5056,-0.4593,-0.427,-0.4052,-0.391,-0.363,-0.3296,-0.2933,-0.232,-0.1679,-0.1064,-0.07,-0.0364,-0.0028,0.0,0.0,0.0,0.0,0.0,0.0,0.0,0.0,0.0,0.0308,0.0617,0.0897,0.1233,0.1679,0.2292,0.2569,0.2877,0.3188,0.347,0.3612,0.0431,0.0582,0.0787,0.041,0.015,0.0,0.0,0.0,-0.01,-0.0453,-0.0254,-0.0258,-0.1084,-0.0669,-0.057,-0.1616,-0.2319,-0.2905,-0.3527,-0.3612,-0.3612,-0.3612,-0.369,-0.3799,-0.3938,-0.4079,-0.4465,-0.5197,-0.5714,-0.6263,-0.6864,-0.6858,-0.6826,-0.6826,-0.6369,-0.6127,-0.6154,-0.5862,-0.5862,-0.6154,-0.605,-0.5755,-0.5299,-0.5299,-0.5299,-0.5327,-0.5576,-0.5738,-0.585,-0.6302,-0.6569,-0.6729,-0.692,-0.7055,-0.7112,-0.7112,-0.7112,-0.7112,-0.7112,-0.7112,-0.7112,-0.7112,-0.7112,-0.7085,-0.692,-0.6893,-0.6893,-0.6842,-0.6896,-0.6918,-0.6672,-0.6505,-0.6261,-0.5716,-0.566,-0.5546,-0.4844,-0.4758,-0.4673,-0.4075,-0.3965,-0.391,-0.3771,-0.324,-0.2766,-0.2514,-0.1595,-0.0841,-0.0701,-0.028,0.0,0.0,0.0,0.0,0.0,0.0,0.0,0.0,0.0,0.0056,0.0196,0.0645,0.1038,0.1316,0.1762,0.2319,0.296,0.296,0.3213,0.3694,0.3666,0.3666,0.1315,0.1331,0.1344,0.1315,0.0638,0.0,0.0,0.0,0.0,-0.005,-0.0026,-0.0027,-0.0106,-0.052,-0.1034,-0.1706,-0.2319,-0.2905,-0.3527,-0.3612,-0.3612,-0.3612,-0.3612,-0.3665,-0.3798,-0.3938,-0.4322,-0.5054,-0.5275,-0.5635,-0.6233,-0.5744,-0.5441,-0.5441,-0.4924,-0.471,-0.4825,-0.4798,-0.5209,-0.6,-0.557,-0.5354,-0.5299,-0.5299,-0.5299,-0.5299,-0.5325,-0.5521,-0.5795,-0.5848,-0.6196,-0.6704,-0.6729,-0.6893,-0.7112,-0.7112,-0.7112,-0.7112,-0.7112,-0.7112,-0.7112,-0.7112,-0.7112,-0.7001,-0.6428,-0.6263,-0.6152,-0.5607,-0.5443,-0.5632,-0.6399,-0.6233,-0.5719,-0.5117,-0.4979,-0.4816,-0.4187,-0.4076,-0.4019,-0.3853,-0.3824,-0.3771,-0.3638,-0.3103,-0.2514,-0.1957,-0.1316,-0.0701,-0.014,-0.0028,0.0,0.0,0.0,0.0,0.0,0.0,0.0,0.0,0.0,0.0252,0.0813,0.0869,0.1428,0.2541,0.2625,0.2986,0.3713,0.3713,0.3798,0.3968,0.3855,0.3855,0.1483,0.1681,0.1861,0.1501,0.1203,0.0896,0.0515,0.0207,0.0,0.0,0.0,0.0,0.0,-0.05,-0.1093,-0.1706,-0.2319,-0.2905,-0.3527,-0.3612,-0.3612,-0.3612,-0.3612,-0.3665,-0.3798,-0.3853,-0.4047,-0.4515,-0.4921,-0.5302,-0.5635,-0.5416,-0.5306,-0.5306,-0.4791,-0.4519,-0.4575,-0.466,-0.4853,-0.5183,-0.5183,-0.5213,-0.5299,-0.5299,-0.5299,-0.5299,-0.5299,-0.5382,-0.5491,-0.5713,-0.593,-0.6168,-0.6544,-0.6401,-0.6016,-0.6401,-0.6534,-0.6534,-0.6534,-0.6783,-0.7028,-0.6674,-0.6534,-0.6426,-0.5825,-0.5632,-0.5605,-0.5361,-0.5062,-0.4871,-0.5199,-0.5146,-0.4846,-0.4242,-0.4156,-0.4128,-0.383,-0.3828,-0.3825,-0.3691,-0.338,-0.3099,-0.3047,-0.2237,-0.1511,-0.1289,-0.0729,-0.0252,-0.0028,0.0,0.0,0.0,0.0,0.0,0.0,0.0,0.0196,0.0643,0.0616,0.0701,0.1008,0.1734,0.2404,0.2933,0.3323,0.3659,0.3938,0.3938,0.3938,0.3995,0.3938,0.3965,0.1964,0.2213,0.2432,0.2052,0.1897,0.1724,0.1361,0.0712,0.0185,0.0027,0.0,0.0,0.0,-0.0505,-0.1093,-0.1706,-0.2319,-0.2905,-0.3527,-0.3612,-0.3612,-0.3612,-0.3612,-0.3638,-0.3717,-0.377,-0.3881,-0.4052,-0.4541,-0.4868,-0.4954,-0.5007,-0.5034,-0.5034,-0.468,-0.4489,-0.4489,-0.4603,-0.466,-0.4689,-0.4881,-0.5073,-0.5242,-0.5272,-0.5299,-0.5299,-0.5299,-0.5299,-0.5299,-0.5407,-0.5434,-0.5432,-0.5993,-0.5796,-0.5304,-0.5744,-0.5907,-0.5907,-0.5907,-0.6179,-0.6453,-0.6043,-0.5907,-0.5798,-0.5224,-0.5034,-0.5007,-0.4814,-0.4487,-0.4216,-0.4216,-0.4216,-0.4107,-0.3694,-0.3663,-0.3717,-0.361,-0.3663,-0.3662,-0.3384,-0.299,-0.2625,-0.2458,-0.1567,-0.0897,-0.0897,-0.0393,0.0,0.0,0.0,0.0,0.0,0.0,0.0084,0.0336,0.0336,0.0671,0.1396,0.1538,0.1623,0.1732,0.2514,0.3101,0.3381,0.3799,0.4022,0.4052,0.4052,0.4189,0.4406,0.4161,0.4298,0.2951,0.3,0.3028,0.3162,0.2737,0.2354,0.2457,0.1577,0.0586,0.0106,0.0,0.0,0.0,-0.0505,-0.1093,-0.1706,-0.2291,-0.2905,-0.3499,-0.3584,-0.3612,-0.3612,-0.3612,-0.3612,-0.3612,-0.3717,-0.3796,-0.3796,-0.4052,-0.4193,-0.4193,-0.4382,-0.4489,-0.4489,-0.4489,-0.4489,-0.4489,-0.4489,-0.4575,-0.4689,-0.4689,-0.4853,-0.5099,-0.5242,-0.5299,-0.5299,-0.5299,-0.5299,-0.5272,-0.4855,-0.4632,-0.4544,-0.4944,-0.5079,-0.5107,-0.525,-0.5279,-0.5279,-0.5279,-0.5306,-0.5306,-0.5306,-0.5279,-0.5199,-0.4653,-0.4489,-0.438,-0.3777,-0.3612,-0.3612,-0.3612,-0.3612,-0.3612,-0.3612,-0.3612,-0.3612,-0.3612,-0.3584,-0.3414,-0.2821,-0.2681,-0.2486,-0.1902,-0.1289,-0.0897,-0.0897,-0.0393,0.0,0.0,0.0,0.0,0.0,0.0,0.0308,0.1062,0.1118,0.1424,0.2175,0.2765,0.3102,0.3102,0.3103,0.3381,0.3995,0.3995,0.4079,0.4193,0.4221,0.4574,0.5279,0.4546,0.493,0.2874,0.296,0.2989,0.2985,0.295,0.2841,0.2438,0.1906,0.1321,0.074,0.0306,0.0,0.0,-0.0505,-0.0953,-0.1149,-0.2041,-0.2764,-0.2934,-0.3328,-0.3612,-0.3612,-0.3612,-0.3612,-0.3612,-0.3638,-0.369,-0.3796,-0.3881,-0.3965,-0.4052,-0.4218,-0.4302,-0.4302,-0.4436,-0.4489,-0.4489,-0.4489,-0.4519,-0.4546,-0.466,-0.4796,-0.4956,-0.5099,-0.5156,-0.5156,-0.527,-0.5299,-0.5272,-0.4855,-0.438,-0.3932,-0.4457,-0.4348,-0.3961,-0.4372,-0.462,-0.4736,-0.4736,-0.4979,-0.5226,-0.4871,-0.4736,-0.4627,-0.4052,-0.3859,-0.3831,-0.364,-0.3612,-0.3612,-0.3612,-0.3612,-0.3612,-0.3612,-0.3612,-0.3612,-0.3612,-0.3273,-0.2905,-0.2736,-0.2014,-0.1372,-0.1205,-0.0673,-0.028,-0.028,-0.0112,0.0,0.0,0.0,0.0196,0.0727,0.0783,0.1062,0.1814,0.1869,0.2203,0.2982,0.3207,0.3292,0.3235,0.3659,0.4022,0.4353,0.4353,0.438,0.441,0.4791,0.5089,0.5306,0.5498,0.5828,0.2991,0.3097,0.3086,0.3085,0.3115,0.3058,0.2806,0.2061,0.1343,0.0974,0.0421,0.0,0.0,-0.0308,-0.0617,-0.0869,-0.1511,-0.2152,-0.2625,-0.3018,-0.3312,-0.3489,-0.3511,-0.3511,-0.3511,-0.3511,-0.3584,-0.3715,-0.377,-0.3824,-0.391,-0.4109,-0.4166,-0.4109,-0.438,-0.4463,-0.4382,-0.4463,-0.4489,-0.4489,-0.4575,-0.4544,-0.4401,-0.4816,-0.4958,-0.4849,-0.4798,-0.4688,-0.4522,-0.4273,-0.3799,-0.3298,-0.3715,-0.358,-0.3247,-0.3715,-0.3962,-0.4076,-0.4133,-0.4353,-0.457,-0.4242,-0.4133,-0.4078,-0.3723,-0.3612,-0.3612,-0.3612,-0.3612,-0.3612,-0.3612,-0.3612,-0.3612,-0.3612,-0.3612,-0.3612,-0.3612,-0.3131,-0.2625,-0.2402,-0.1567,-0.0813,-0.0589,-0.0252,0.0,0.0,0.0056,0.0084,0.0084,0.0336,0.0699,0.1146,0.1396,0.1841,0.2564,0.2648,0.2982,0.379,0.3846,0.3818,0.379,0.413,0.4382,0.4489,0.4708,0.4708,0.4489,0.5279,0.5662,0.5662,0.6043,0.6453,0.3186,0.3261,0.3204,0.3341,0.3183,0.306,0.3334,0.2169,0.1017,0.0998,0.0447,0.0,0.0,0.0,-0.0167,-0.0726,-0.0865,-0.1281,-0.2354,-0.2601,-0.2818,-0.3237,-0.3332,-0.3358,-0.3384,-0.3384,-0.343,-0.3542,-0.3683,-0.374,-0.3751,-0.4006,-0.4095,-0.3995,-0.4298,-0.4382,-0.4193,-0.4382,-0.4491,-0.4489,-0.4434,-0.4127,-0.3626,-0.4427,-0.4651,-0.4406,-0.4104,-0.3745,-0.3413,-0.3413,-0.3136,-0.2719,-0.2831,-0.2888,-0.2944,-0.3247,-0.3387,-0.3414,-0.3527,-0.3584,-0.3612,-0.3612,-0.3612,-0.3612,-0.3612,-0.3612,-0.3612,-0.3612,-0.3612,-0.3612,-0.3612,-0.3612,-0.3584,-0.3527,-0.3527,-0.3527,-0.3527,-0.2991,-0.2375,-0.1818,-0.1233,-0.0645,-0.0084,0.0,0.0028,0.0028,0.014,0.0224,0.028,0.0895,0.1342,0.1481,0.1981,0.2592,0.3343,0.3399,0.3734,0.4462,0.4489,0.4517,0.4572,0.4517,0.4517,0.4572,0.5062,0.5089,0.4653,0.5746,0.629,0.629,0.6344,0.6918,0.2772,0.2934,0.3043,0.3069,0.3039,0.3037,0.32,0.2597,0.1931,0.1654,0.0753,0.0,0.0,0.0,-0.0054,-0.0162,-0.0592,-0.096,-0.1114,-0.1855,-0.2415,-0.2524,-0.285,-0.3129,-0.3232,-0.3232,-0.3243,-0.3296,-0.3321,-0.3363,-0.3486,-0.3628,-0.3755,-0.385,-0.4021,-0.4135,-0.4193,-0.4249,-0.4356,-0.4489,-0.4015,-0.3738,-0.3598,-0.3904,-0.3959,-0.3793,-0.371,-0.3576,-0.3413,-0.3413,-0.3136,-0.2691,-0.2719,-0.2804,-0.2916,-0.2971,-0.3165,-0.3413,-0.3442,-0.3499,-0.3612,-0.3612,-0.3612,-0.3612,-0.3612,-0.3612,-0.3612,-0.3612,-0.3612,-0.3612,-0.3612,-0.3612,-0.347,-0.3018,-0.2905,-0.2905,-0.2905,-0.2041,-0.1261,-0.1121,-0.0617,-0.014,-0.0028,0.0084,0.0196,0.0308,0.0336,0.0532,0.1007,0.1202,0.1703,0.2759,0.2982,0.3371,0.4182,0.4237,0.4322,0.4489,0.4489,0.468,0.5117,0.4734,0.4708,0.5117,0.5252,0.5471,0.5828,0.6564,0.6918,0.692,0.733,0.7762,0.2725,0.2838,0.2867,0.293,0.2982,0.3017,0.3099,0.2685,0.2241,0.2067,0.1126,0.0363,0.0415,0.0208,0.0052,0.0182,-0.013,-0.0438,-0.0581,-0.1083,-0.1625,-0.211,-0.2399,-0.2692,-0.3014,-0.3088,-0.3135,-0.3189,-0.3193,-0.322,-0.3309,-0.3501,-0.3563,-0.3509,-0.3755,-0.3899,-0.3905,-0.3684,-0.3711,-0.3965,-0.3349,-0.2957,-0.2736,-0.2934,-0.299,-0.2933,-0.2933,-0.288,-0.2826,-0.2996,-0.2913,-0.2691,-0.2691,-0.2747,-0.2804,-0.2888,-0.2999,-0.3193,-0.3331,-0.3442,-0.3527,-0.3584,-0.3612,-0.3612,-0.3612,-0.3612,-0.3612,-0.3612,-0.3612,-0.3527,-0.3244,-0.3159,-0.3019,-0.2403,-0.2486,-0.2625,-0.2319,-0.1539,-0.0869,-0.0813,-0.0308,0.0112,0.0168,0.0252,0.0308,0.0393,0.0477,0.0757,0.137,0.176,0.2344,0.3345,0.3706,0.4042,0.4462,0.4489,0.4598,0.4871,0.4869,0.5169,0.5792,0.5548,0.5548,0.5819,0.6041,0.6206,0.631,0.7184,0.7488,0.7214,0.7836,0.8192,0.2669,0.277,0.2738,0.2877,0.2959,0.2995,0.2995,0.2681,0.2398,0.2415,0.1577,0.0873,0.0899,0.0499,0.0225,0.0375,0.03,0.01,-0.0272,-0.0396,-0.0781,-0.1699,-0.195,-0.2258,-0.2804,-0.2947,-0.3033,-0.315,-0.3157,-0.3142,-0.3162,-0.3364,-0.3408,-0.3196,-0.3442,-0.3523,-0.345,-0.2972,-0.2909,-0.3217,-0.2635,-0.2113,-0.1622,-0.187,-0.1994,-0.2045,-0.21,-0.2156,-0.2239,-0.255,-0.2691,-0.2691,-0.2691,-0.2691,-0.2719,-0.2831,-0.2888,-0.2944,-0.3221,-0.3359,-0.3414,-0.3527,-0.3569,-0.3553,-0.3553,-0.3538,-0.352,-0.3439,-0.3399,-0.3273,-0.2686,-0.2558,-0.2402,-0.179,-0.2012,-0.2235,-0.1735,-0.1148,-0.0673,-0.0561,-0.0112,0.028,0.0421,0.0449,0.0449,0.0477,0.0729,0.112,0.1705,0.2401,0.3098,0.3681,0.421,0.4489,0.4489,0.4598,0.4869,0.5304,0.5441,0.5848,0.6549,0.6603,0.6654,0.6765,0.7047,0.702,0.6738,0.775,0.7972,0.7503,0.8126,0.8451,0.2027,0.24,0.2757,0.2934,0.2959,0.2913,0.2913,0.2858,0.2839,0.2884,0.2138,0.1363,0.0983,0.0935,0.084,0.0457,0.0385,0.0381,0.0367,0.0023,-0.0431,-0.0993,-0.1509,-0.2071,-0.2663,-0.2845,-0.2921,-0.2937,-0.2937,-0.296,-0.3019,-0.3063,-0.311,-0.3191,-0.2856,-0.2711,-0.2807,-0.2355,-0.2261,-0.2529,-0.2041,-0.1506,-0.0946,-0.0972,-0.1139,-0.143,-0.1736,-0.1986,-0.2239,-0.255,-0.2691,-0.2691,-0.2691,-0.2691,-0.2691,-0.2719,-0.2804,-0.2916,-0.2944,-0.3165,-0.3413,-0.3414,-0.3429,-0.3425,-0.3425,-0.3352,-0.3166,-0.2761,-0.2641,-0.2544,-0.2059,-0.1915,-0.1762,-0.1177,-0.0981,-0.0981,-0.1009,-0.0448,0.0056,0.0084,0.0252,0.0421,0.0617,0.0673,0.0701,0.0813,0.1288,0.1873,0.2486,0.3096,0.371,0.4322,0.4463,0.4489,0.4489,0.5029,0.5406,0.546,0.6066,0.6718,0.7329,0.7355,0.7652,0.8299,0.7735,0.7685,0.8126,0.8289,0.8342,0.8262,0.8342,0.8712,0.1939,0.2491,0.2838,0.297,0.2984,0.2951,0.2905,0.293,0.2972,0.299,0.2785,0.2386,0.1653,0.1288,0.099,0.0623,0.0508,0.0482,0.0608,0.0426,0.0134,-0.0335,-0.0692,-0.1117,-0.1633,-0.2123,-0.2392,-0.2392,-0.2708,-0.2913,-0.2944,-0.2726,-0.2609,-0.2592,-0.2195,-0.2026,-0.2071,-0.1536,-0.1232,-0.1158,-0.1108,-0.0957,-0.068,-0.0756,-0.0908,-0.109,-0.1389,-0.1514,-0.1485,-0.1792,-0.1818,-0.1734,-0.2071,-0.2183,-0.2239,-0.2578,-0.2747,-0.2804,-0.286,-0.3054,-0.3234,-0.3282,-0.3118,-0.2934,-0.3215,-0.2826,-0.2312,-0.2366,-0.2197,-0.186,-0.1223,-0.1037,-0.0868,-0.0308,-0.014,-0.0112,-0.0168,0.0084,0.0336,0.0449,0.0589,0.0701,0.0785,0.1093,0.1344,0.14,0.193,0.2514,0.3125,0.3432,0.3849,0.4548,0.4603,0.4767,0.5201,0.5496,0.5953,0.6568,0.6926,0.7415,0.8084,0.8111,0.8306,0.8715,0.8256,0.8173,0.8524,0.8524,0.8524,0.8524,0.889,0.9227,0.1923,0.2479,0.2796,0.2939,0.2975,0.3002,0.2978,0.2993,0.3012,0.308,0.326,0.3151,0.2366,0.1854,0.141,0.0943,0.0786,0.0719,0.0697,0.0697,0.0516,0.0045,-0.0112,-0.038,-0.085,-0.143,-0.1787,-0.181,-0.2238,-0.2509,-0.2509,-0.2235,-0.2032,-0.1924,-0.1568,-0.136,-0.136,-0.0844,-0.0452,-0.0196,-0.0465,-0.0539,-0.0441,-0.0588,-0.0625,-0.0622,-0.0994,-0.0987,-0.0738,-0.1036,-0.1062,-0.0927,-0.1376,-0.1594,-0.1638,-0.2094,-0.2337,-0.2456,-0.2566,-0.2755,-0.2959,-0.2881,-0.2653,-0.2412,-0.2647,-0.214,-0.1518,-0.1731,-0.1528,-0.1103,-0.0451,-0.0246,-0.0084,0.0308,0.0449,0.0477,0.0477,0.0477,0.0533,0.0729,0.0841,0.0897,0.0897,0.14,0.179,0.179,0.243,0.3098,0.3599,0.3795,0.4156,0.4904,0.4987,0.526,0.5934,0.6179,0.6637,0.7498,0.7738,0.809,0.8633,0.8659,0.8689,0.8808,0.8616,0.8557,0.8659,0.8659,0.8732,0.886,0.938,0.9744,0.1773,0.2169,0.2429,0.2817,0.2961,0.3022,0.315,0.3099,0.3078,0.3328,0.3398,0.3284,0.2921,0.2832,0.2498,0.1522,0.1367,0.1211,0.0764,0.0697,0.0516,0.0045,-0.0112,-0.038,-0.085,-0.1052,-0.1208,-0.1321,-0.1366,-0.141,-0.1478,-0.1459,-0.1436,-0.1433,-0.0987,-0.0741,-0.0741,-0.0405,-0.0226,-0.0204,-0.0407,-0.0339,-0.0045,-0.0181,-0.0069,0.0192,-0.0448,-0.0531,-0.0279,-0.0659,-0.0811,-0.0814,-0.0922,-0.0994,-0.1044,-0.1002,-0.1305,-0.1745,-0.177,-0.2151,-0.2558,-0.212,-0.1993,-0.1957,-0.1523,-0.1275,-0.1022,-0.0543,-0.0393,-0.0255,0.0237,0.0355,0.0364,0.0393,0.0533,0.0673,0.0673,0.0673,0.0729,0.0869,0.0897,0.0897,0.0897,0.14,0.179,0.179,0.2792,0.3598,0.3767,0.4298,0.4932,0.5666,0.5748,0.5964,0.6507,0.7211,0.7613,0.7694,0.8345,0.8752,0.8778,0.8778,0.8781,0.8808,0.8778,0.8778,0.8778,0.8778,0.9057,0.9562,0.9588,1.0182,0.1375,0.1857,0.2235,0.2773,0.2922,0.297,0.3153,0.324,0.3277,0.3371,0.3466,0.3488,0.3374,0.3102,0.2677,0.1967,0.1588,0.1344,0.1166,0.0898,0.0629,0.0471,0.0404,0.0314,0.0135,-0.0269,-0.0537,-0.0582,-0.0962,-0.1209,-0.1321,-0.1007,-0.0873,-0.094,-0.0493,-0.0247,-0.0247,-0.0135,0.009,0.0381,0.0224,0.0291,0.0583,0.0448,0.0497,0.0664,0.0442,0.0337,0.0353,0.0126,0.0151,0.0303,-0.0205,-0.0408,-0.0454,-0.0819,-0.1096,-0.1259,-0.1259,-0.146,-0.1652,-0.1394,-0.1154,-0.0993,-0.1129,-0.0657,-0.009,-0.0205,0.0024,0.0327,0.0598,0.0688,0.0729,0.0729,0.0785,0.0841,0.0841,0.0841,0.0841,0.0897,0.1205,0.1484,0.1484,0.2291,0.2986,0.3071,0.3795,0.4351,0.4486,0.5036,0.5532,0.5889,0.6261,0.6745,0.7391,0.7688,0.7987,0.8371,0.8646,0.8808,0.8808,0.8808,0.8808,0.8808,0.9136,0.9309,0.9309,0.9309,0.9588,1.0115,1.0515,1.0909,0.0912,0.1532,0.2088,0.2509,0.2723,0.2884,0.3084,0.3236,0.3348,0.3444,0.354,0.3594,0.361,0.3352,0.2901,0.221,0.17,0.1344,0.1188,0.0898,0.0697,0.0697,0.0697,0.0697,0.0697,0.0337,0.009,0.0045,-0.0336,-0.0627,-0.0784,-0.0448,-0.0336,-0.047,0.0,0.0224,0.0224,0.0382,0.0627,0.094,0.0828,0.0873,0.1074,0.0962,0.0962,0.1074,0.1074,0.1016,0.0922,0.0825,0.0873,0.0972,0.0443,0.0196,0.0122,-0.0246,-0.0516,-0.0655,-0.0655,-0.0824,-0.0988,-0.0752,-0.0489,-0.0301,-0.0452,0.0,0.0496,0.0228,0.0384,0.0677,0.0784,0.0857,0.0912,0.0895,0.0897,0.0897,0.0897,0.0897,0.0897,0.0897,0.1429,0.1874,0.1874,0.2902,0.3763,0.3849,0.4377,0.4877,0.5228,0.5614,0.6075,0.6588,0.6991,0.7501,0.8146,0.82,0.8365,0.8781,0.8808,0.8808,0.8808,0.8808,0.8883,0.9061,0.9413,0.9795,1.016,0.9969,1.0171,1.0711,1.1108,1.1398,0.0,0.0,0.0,0.2002,0.2334,0.2739,0.2937,0.3096,0.3276,0.3537,0.3584,0.3589,0.3585,0.358,0.3263,0.2278,0.1722,0.1255,0.0809,0.0719,0.0697,0.0697,0.0697,0.0697,0.0697,0.0697,0.0652,0.0517,0.0517,0.0427,0.0247,0.0247,0.018,0.0045,0.0493,0.0716,0.0716,0.1164,0.1411,0.1411,0.1366,0.1366,0.1433,0.1366,0.1366,0.1411,0.1411,0.1411,0.1389,0.1321,0.1231,0.1078,0.0959,0.0813,0.07,0.0776,0.0465,0.0022,0.0022,-0.0268,-0.0582,-0.0134,0.0022,0.0112,0.0561,0.0697,0.0703,0.0778,0.0808,0.0806,0.0808,0.0856,0.0887,0.089,0.0897,0.0897,0.0897,0.0925,0.0925,0.0925,0.154,0.207,0.207,0.3177,0.4062,0.4062,0.4563,0.5228,0.5946,0.6057,0.6537,0.7765,0.7928,0.8173,0.8752,0.8808,0.8808,0.8808,0.8804,0.8834,0.8834,0.8831,0.9084,0.961,0.964,1.0186,1.1297,1.0711,1.0736,1.1322,1.1322,1.1598,-0.0044,0.0,0.0,0.0,0.0,0.0,0.2822,0.295,0.3043,0.3271,0.3388,0.3446,0.345,0.326,0.3012,0.272,0.2255,0.1855,0.1722,0.1121,0.0697,0.0697,0.0697,0.0697,0.0697,0.0697,0.0675,0.0652,0.0652,0.0741,0.0986,0.114,0.1207,0.1162,0.1186,0.1209,0.1209,0.1344,0.1567,0.19,0.1877,0.199,0.2192,0.1972,0.1816,0.1681,0.1479,0.1411,0.1389,0.1321,0.1231,0.1076,0.0954,0.0817,0.0698,0.0729,0.0636,0.0516,0.0516,0.0426,0.0337,0.0471,0.0516,0.0539,0.0652,0.0697,0.0699,0.0729,0.0753,0.0811,0.0855,0.0899,0.0887,0.089,0.0897,0.0925,0.1038,0.1401,0.1708,0.1708,0.2652,0.3454,0.3454,0.4476,0.5332,0.5445,0.5959,0.6448,0.6758,0.713,0.7498,0.7871,0.8282,0.8613,0.8778,0.8808,0.8808,0.8808,0.9162,0.9387,0.9387,0.9762,1.0042,1.0188,1.0617,1.0985,1.1297,1.1137,1.1339,1.1877,1.1877,1.1952,-0.0667,-0.0045,0.0607,0.1223,0.0,0.0,0.2421,0.2667,0.286,0.3045,0.321,0.3307,0.3317,0.3148,0.3034,0.3034,0.2635,0.2302,0.2121,0.1455,0.0988,0.0988,0.0809,0.0697,0.0697,0.0876,0.0988,0.0988,0.1166,0.1366,0.1587,0.1652,0.165,0.1605,0.1721,0.1745,0.17,0.1925,0.2171,0.2437,0.2437,0.246,0.2505,0.2329,0.2152,0.1906,0.1681,0.1568,0.1546,0.1411,0.1276,0.1164,0.1032,0.0943,0.0853,0.0809,0.0787,0.0787,0.0787,0.0742,0.0697,0.0697,0.0697,0.0697,0.0697,0.0697,0.0697,0.0697,0.0732,0.0783,0.0844,0.085,0.0878,0.095,0.0988,0.1102,0.1481,0.2069,0.2458,0.2155,0.318,0.4173,0.4414,0.5296,0.6075,0.6406,0.6756,0.7104,0.7399,0.7714,0.8007,0.8256,0.8586,0.8808,0.8808,0.8808,0.8808,0.8808,0.9312,0.9588,0.9588,1.0115,1.0521,1.0766,1.1112,1.1448,1.1723,1.1648,1.1798,1.2101,1.215,1.2175,-0.1339,-0.059,0.0226,0.0361,0.0924,0.0,0.181,0.2248,0.2625,0.2768,0.2974,0.3102,0.3148,0.3149,0.3171,0.3192,0.2973,0.2639,0.2234,0.1723,0.1411,0.1411,0.0988,0.0719,0.0764,0.1166,0.1411,0.1478,0.1922,0.2166,0.2098,0.203,0.1918,0.1806,0.2166,0.2323,0.221,0.2663,0.289,0.289,0.289,0.2776,0.255,0.2505,0.2373,0.2131,0.1906,0.1793,0.1771,0.1501,0.1366,0.1298,0.1164,0.1119,0.1075,0.0966,0.0921,0.0899,0.0899,0.0809,0.0697,0.0697,0.0697,0.0697,0.0697,0.0697,0.0697,0.0697,0.0699,0.0737,0.0788,0.0859,0.0954,0.1147,0.1248,0.1476,0.2157,0.2869,0.3206,0.2572,0.3459,0.4506,0.5119,0.5812,0.6507,0.7109,0.7244,0.7456,0.7928,0.8007,0.82,0.8752,0.8808,0.8808,0.8808,0.8808,0.8834,0.8883,0.9387,0.9718,0.9795,1.0295,1.0838,1.1372,1.1398,1.1698,1.2303,1.2175,1.213,1.2155,1.2278,1.2328,-0.1623,-0.1303,-0.1001,-0.045,0.0094,0.0,0.1025,0.1473,0.1905,0.2202,0.2379,0.2549,0.2755,0.2887,0.3021,0.3171,0.3239,0.3108,0.2639,0.1902,0.1411,0.1411,0.0988,0.0853,0.1233,0.1344,0.1567,0.1943,0.2455,0.2743,0.272,0.2947,0.3081,0.3059,0.2923,0.2855,0.2833,0.2886,0.289,0.289,0.289,0.2868,0.2822,0.2595,0.2461,0.2394,0.1972,0.1793,0.1771,0.1501,0.1366,0.1298,0.1276,0.1187,0.1097,0.1075,0.0987,0.0899,0.0899,0.0809,0.0697,0.0697,0.0697,0.0697,0.0697,0.0697,0.0697,0.0697,0.0737,0.0806,0.0863,0.1199,0.1574,0.1699,0.2158,0.2606,0.2866,0.3502,0.4039,0.4044,0.46,0.5289,0.5875,0.6505,0.7106,0.7664,0.8156,0.8507,0.8613,0.8616,0.8669,0.8778,0.8808,0.8808,0.8808,0.8808,0.8985,0.9413,0.9939,1.0456,1.096,1.1485,1.1819,1.1952,1.2051,1.218,1.2303,1.2274,1.2328,1.2426,1.2455,1.2451,-0.2016,-0.1758,-0.1488,-0.1007,-0.0398,0.0,0.0,0.1164,0.1658,0.1906,0.2093,0.2234,0.2365,0.2453,0.256,0.277,0.2932,0.2996,0.286,0.2435,0.2055,0.1789,0.1544,0.1389,0.1411,0.1856,0.2346,0.2815,0.3105,0.3238,0.3238,0.3398,0.3466,0.3398,0.3262,0.3118,0.2946,0.2926,0.2832,0.2706,0.2768,0.2798,0.2801,0.2726,0.2708,0.2686,0.2306,0.2084,0.1928,0.1703,0.1501,0.1344,0.1321,0.1276,0.1254,0.1209,0.112,0.101,0.1077,0.0966,0.0809,0.0875,0.0897,0.0897,0.0897,0.0853,0.0809,0.0875,0.0866,0.0927,0.1269,0.1614,0.1989,0.2351,0.2788,0.3221,0.3685,0.4078,0.4539,0.5226,0.5559,0.5943,0.6537,0.7128,0.7694,0.8259,0.8613,0.8808,0.8808,0.8808,0.8808,0.8808,0.8808,0.891,0.9185,0.9211,0.9439,0.9965,1.0533,1.0977,1.1297,1.1877,1.2224,1.2303,1.2303,1.2382,1.2505,1.2505,1.2505,1.2505,1.2808,1.2949,-0.2448,-0.2136,-0.1806,-0.1592,-0.0836,-0.0118,0.0,0.0,0.0,0.1523,0.1723,0.1915,0.1959,0.1966,0.2064,0.229,0.2476,0.2658,0.2831,0.2879,0.2722,0.2278,0.2144,0.1989,0.1722,0.25,0.3192,0.358,0.3602,0.3602,0.3602,0.3602,0.3556,0.3442,0.3392,0.3215,0.2918,0.2872,0.2724,0.2503,0.2601,0.2669,0.2674,0.2798,0.2854,0.2856,0.2609,0.2352,0.2087,0.1884,0.1636,0.1389,0.1344,0.1344,0.1389,0.1344,0.1254,0.1164,0.1254,0.1144,0.0966,0.1075,0.1097,0.1097,0.1097,0.1098,0.1099,0.1209,0.1239,0.1384,0.1875,0.2236,0.2587,0.3091,0.3431,0.3864,0.4607,0.4796,0.5144,0.6182,0.645,0.6694,0.716,0.761,0.8117,0.8699,0.8808,0.8808,0.8808,0.888,0.8959,0.8959,0.9035,0.9286,0.9714,0.9762,0.9991,1.055,1.1057,1.1372,1.1502,1.2051,1.2382,1.2505,1.2426,1.248,1.2705,1.2822,1.2818,1.2715,1.3204,1.3491,-0.2794,-0.2628,-0.2468,-0.2388,-0.1564,-0.0847,-0.1039,0.0,0.0898,0.0627,0.0,0.1267,0.1445,0.0,0.0,0.1992,0.216,0.2287,0.2378,0.2684,0.2843,0.2663,0.2257,0.2209,0.2677,0.3217,0.3534,0.3602,0.3602,0.3602,0.3602,0.3602,0.3602,0.358,0.3338,0.3153,0.299,0.2755,0.2595,0.2502,0.2516,0.2523,0.2527,0.2669,0.2727,0.2711,0.2574,0.2352,0.2087,0.1884,0.1636,0.1389,0.1389,0.1389,0.1389,0.1389,0.1344,0.1276,0.1298,0.1209,0.1075,0.1097,0.1097,0.1097,0.1097,0.1386,0.1697,0.1718,0.213,0.2614,0.2731,0.3225,0.3745,0.3929,0.4457,0.5056,0.5625,0.5868,0.6209,0.6864,0.7369,0.7738,0.7794,0.7848,0.8117,0.8699,0.8808,0.8808,0.8808,0.9211,0.9514,0.9514,0.9939,1.024,1.0291,1.0316,1.0554,1.1167,1.1372,1.1698,1.218,1.2377,1.248,1.2505,1.2603,1.2681,1.2705,1.3243,1.3496,1.3478,1.3544,1.3795,-0.2776,-0.2729,-0.2684,-0.2544,-0.1986,-0.1458,-0.1379,-0.0672,0.0045,0.0336,0.0,0.0,0.0,0.0,0.0,0.0,0.1496,0.1825,0.2029,0.225,0.2374,0.2347,0.2546,0.2835,0.3148,0.3428,0.3605,0.3609,0.3602,0.3602,0.3602,0.3864,0.4014,0.4014,0.4015,0.3809,0.3351,0.3085,0.2713,0.2263,0.2351,0.2384,0.2388,0.2525,0.2618,0.2687,0.2631,0.2516,0.2306,0.2062,0.1839,0.1614,0.1456,0.1411,0.1411,0.1411,0.1366,0.1298,0.1344,0.1298,0.1231,0.1254,0.1276,0.1321,0.1587,0.1787,0.1986,0.2342,0.2574,0.2851,0.3296,0.373,0.4132,0.4579,0.5227,0.5788,0.603,0.6418,0.6888,0.745,0.7741,0.801,0.8368,0.8421,0.8504,0.8752,0.8808,0.8906,0.9237,0.9462,0.9714,1.0038,1.0265,1.0546,1.0897,1.0922,1.1209,1.1848,1.2002,1.2224,1.2529,1.25,1.2578,1.273,1.2978,1.3142,1.3219,1.3752,1.417,1.4478,1.4478,1.457,-0.2776,-0.2759,-0.2747,-0.259,-0.2217,-0.1854,-0.1735,-0.1231,-0.0693,-0.029,-0.0414,0.0,0.0,0.0,0.0063,0.0256,0.0,0.1049,0.1435,0.1604,0.1806,0.2088,0.2706,0.3173,0.333,0.3423,0.351,0.3542,0.3534,0.3621,0.3775,0.4122,0.436,0.4491,0.4504,0.4262,0.3717,0.3384,0.292,0.2314,0.2411,0.2456,0.246,0.2603,0.2696,0.2762,0.2794,0.2687,0.2483,0.2219,0.1974,0.1771,0.1501,0.1411,0.1411,0.1411,0.1366,0.1344,0.1389,0.1366,0.1344,0.1389,0.1478,0.1655,0.1988,0.2254,0.252,0.2965,0.3145,0.3309,0.3856,0.4293,0.4704,0.5203,0.5905,0.648,0.6637,0.702,0.7479,0.804,0.8146,0.8282,0.8725,0.8808,0.886,0.9008,0.9008,0.9208,0.9762,0.9972,1.023,1.0656,1.083,1.1116,1.1598,1.1628,1.1848,1.2377,1.2505,1.2603,1.2759,1.2656,1.2749,1.3089,1.3329,1.3557,1.3795,1.4281,1.4726,1.5108,1.5108,1.5198,-0.2891,-0.2805,-0.2695,-0.2687,-0.2237,-0.1922,-0.237,-0.1744,-0.1208,-0.1652,-0.1384,-0.1028,-0.0893,-0.0798,-0.0702,-0.0488,-0.0388,0.0,0.0,0.0737,0.1255,0.2087,0.2617,0.2998,0.3194,0.322,0.3266,0.3398,0.3398,0.366,0.4252,0.4296,0.4511,0.4964,0.4542,0.4211,0.398,0.3537,0.3153,0.2869,0.2873,0.2876,0.2882,0.3028,0.301,0.2894,0.3041,0.2853,0.2483,0.2219,0.1974,0.1771,0.1501,0.1411,0.1411,0.1411,0.1389,0.1389,0.1389,0.1389,0.1389,0.1389,0.17,0.2077,0.2099,0.2786,0.3563,0.3563,0.3989,0.4445,0.4476,0.5151,0.5848,0.588,0.6491,0.7214,0.7741,0.7871,0.8064,0.8643,0.8781,0.8781,0.8808,0.8808,0.8982,0.9488,0.9562,0.9766,1.0316,1.0871,1.1293,1.1448,1.1923,1.2303,1.2455,1.2451,1.2529,1.2681,1.27,1.2754,1.2881,1.2881,1.3109,1.3568,1.3592,1.3818,1.4281,1.48,1.5085,1.5108,1.5108,1.5418,-0.289,-0.2618,-0.2392,-0.2754,-0.2415,-0.2099,-0.2527,-0.2394,-0.2102,-0.1852,-0.1921,-0.1922,-0.1563,-0.1478,-0.1406,-0.125,-0.0951,-0.0518,0.0,0.0621,0.1164,0.168,0.2314,0.2752,0.2862,0.3069,0.3266,0.3382,0.368,0.3985,0.4294,0.4898,0.5308,0.5459,0.5274,0.4915,0.4406,0.3931,0.3427,0.29,0.29,0.29,0.2904,0.2944,0.2989,0.3035,0.3083,0.303,0.289,0.2893,0.2748,0.2486,0.2124,0.1944,0.1833,0.1522,0.1411,0.1411,0.1411,0.1611,0.1855,0.1855,0.221,0.2677,0.3008,0.3319,0.3673,0.3985,0.4206,0.4394,0.4469,0.5132,0.5786,0.5876,0.6799,0.7688,0.7871,0.8203,0.8557,0.8752,0.8808,0.8906,0.9263,0.9338,0.9387,0.9562,0.9887,1.0375,1.1049,1.1318,1.1623,1.2105,1.2328,1.2451,1.2505,1.2578,1.2652,1.2705,1.2779,1.2852,1.2905,1.2905,1.3109,1.3592,1.3912,1.4328,1.4823,1.5406,1.5708,1.5708,1.5786,1.5897,-0.2418,-0.2103,-0.1923,-0.2284,-0.2103,-0.1967,-0.2393,-0.2482,-0.2369,-0.1987,-0.2302,-0.2438,-0.1743,-0.1899,-0.2011,-0.1725,-0.1522,-0.1113,0.0,0.029,0.0815,0.1269,0.1885,0.2362,0.2581,0.2816,0.3104,0.3444,0.3827,0.422,0.4639,0.5329,0.5784,0.5943,0.5719,0.5353,0.4848,0.4314,0.3788,0.3298,0.3216,0.3183,0.3183,0.3183,0.3215,0.3236,0.3236,0.3206,0.3168,0.3264,0.3175,0.2934,0.2664,0.2477,0.2299,0.1634,0.1411,0.1433,0.1588,0.1856,0.2121,0.232,0.272,0.3208,0.3517,0.3717,0.3919,0.4206,0.4296,0.4367,0.462,0.533,0.6037,0.629,0.7361,0.8302,0.8302,0.8633,0.8933,0.8933,0.891,0.9057,0.964,0.9865,1.002,1.0182,1.0533,1.1019,1.1694,1.1828,1.2051,1.2529,1.2578,1.2603,1.2627,1.273,1.2779,1.2779,1.2852,1.2905,1.2905,1.307,1.3363,1.3847,1.4328,1.4846,1.5356,1.5796,1.5994,1.5994,1.6144,1.6188]}]]